[[{"header":{"parameterUnit":"m.s-1","parameterCategory":1,"la1":31.0,"la2":29.5877,"lo1":-88.7671,"lo2":-86.6584,"dy":0.0162,"dx":0.0185,"nx":115,"ny":88,"refTime":"2023-05-18T12:00:00:Z","depth":0,"parameterNumber":2,"parameterNumberName":"U-component_of_WINDS"},"data":[0.0,0.0,0.0,0.0,0.0,0.0,0.0,0.0,0.0,0.0,0.0,0.0,0.0,0.0,0.0,0.0,0.0,0.0,0.0,0.0,0.0,0.0,0.0,0.0,0.0,0.0,0.0,0.0,0.0,0.0,0.0,0.0,0.0,0.0,0.0,0.0,0.0,0.0,0.0,0.0,0.0,0.0,0.0,0.0,0.0,0.0,0.0,0.0,0.0,0.0,0.0,0.0,0.0,0.0,0.0,0.0,0.0,0.0,0.0,0.0,0.0,0.0,0.0,0.0,0.0,0.0,0.0,0.0,0.0,0.0,0.0,0.0,0.0,0.0,0.0,0.0,0.0,0.0,0.0,0.0,0.0,0.0,0.0,0.0,0.0,0.0,0.0,0.0,0.0,0.0,0.0,0.0,0.0,0.0,0.0,0.0,0.0,0.0,0.0,0.0,0.0,0.0,0.0,0.0,0.0,0.0,0.0,0.0,0.0,0.0,0.0,0.0,0.0,0.0,0.0,0.0,0.0,0.0,0.0,0.0,0.0,0.0,0.0,0.0,0.0,0.0,0.0,0.0,0.0,0.0,0.0,0.0,0.0,0.0,0.0,0.0,0.0,0.0,0.0,0.0,0.0,0.0,0.0,0.0,0.0,0.0,0.0,0.0,0.0,0.0,0.0,0.0,0.0,0.0,0.0,0.0,0.0,0.0,0.0,0.0,0.0,0.0,0.0,0.0,0.0,0.0,0.0,0.0,0.0,0.0,0.0,0.0,0.0,0.0,0.0,0.0,0.0,0.0,0.0,0.0,0.0,0.0,0.0,0.0,0.0,0.0,0.0,0.0,0.0,0.0,0.0,0.0,0.0,0.0,0.0,0.0,0.0,0.0,0.0,0.0,0.0,0.0,0.0,0.0,0.0,0.0,0.0,0.0,0.0,0.0,0.0,0.0,0.0,0.0,0.0,0.0,0.0,0.0,0.0,0.0,0.0,0.0,0.0,0.0,0.0,0.0,0.0,0.0,0.0,0.0,0.0,0.0,0.0,0.0,0.0,0.0,0.0,0.0,0.0,0.0,0.0,0.0,0.0,0.0,0.0,0.0,0.0,0.0,0.0,0.0,0.0,0.0,0.0,0.0,0.0,0.0,0.0,0.0,0.0,0.0,0.0,0.0,0.0,0.0,0.0,0.0,0.0,0.0,0.0,0.0,0.0,0.0,0.0,0.0,0.0,0.0,0.0,0.0,0.0,0.0,0.0,0.0,0.0,0.0,0.0,0.0,0.0,0.0,0.0,0.0,0.0,0.0,0.0,0.0,0.0,0.0,0.0,0.0,0.0,0.0,0.0,0.0,0.0,0.0,0.0,0.0,0.0,0.0,0.0,0.0,0.0,0.0,0.0,0.0,0.0,0.0,0.0,0.0,0.0,0.0,0.0,0.0,0.0,0.0,0.0,0.0,0.0,0.0,0.0,0.0,0.0,0.0,0.0,0.0,0.0,0.0,0.0,0.0,0.0,0.0,0.0,0.0,0.0,0.0,0.0,0.0,0.0,0.0,0.0,0.0,0.0,0.0,0.0,0.0,0.0,0.0,0.0,0.0,0.0,0.0,0.0,0.0,0.0,0.0,0.0,0.0,0.0,0.0,0.0,0.0,0.0,0.0,0.0,0.0,0.0,0.0,0.0,0.0,0.0,0.0,0.0,0.0,0.0,0.0,0.0,0.0,0.0,0.0,0.0,0.0,0.0,0.0,0.0,0.0,0.0,0.0,0.0,0.0,0.0,0.0,0.0,0.0,0.0,0.0,0.0,0.0,0.0,0.0,0.0,0.0,0.0,0.0,0.0,0.0,0.0,0.0,0.0,0.0,0.0,0.0,0.0,0.0,0.0,0.0,0.0,0.0,0.0,0.0,0.0,0.0,0.0,0.0,0.0,0.0,0.0,0.0,0.0,0.0,0.0,0.0,0.0,0.0,0.0,0.0,0.0,0.0,0.0,0.0,0.0,0.0,0.0,0.0,0.0,0.0,0.0,0.0,0.0,0.0,0.0,0.0,0.0,0.0,0.0,0.0,0.0,0.0,0.0,0.0,0.0,0.0,0.0,0.0,0.0,0.0,0.0,0.0,0.0,0.0,0.0,0.0,0.0,0.0,0.0,0.0,0.0,0.0,0.0,0.0,0.0,0.0,0.0,0.0,0.0,0.0,0.0,0.0,0.0,0.0,0.0,0.0,0.0,0.0,0.0,0.0,0.0,0.0,0.0,0.0,0.0,0.0,0.0,0.0,0.0,0.0,0.0,0.0,0.0,0.0,0.0,0.0,0.0,0.0,0.0,0.0,0.0,0.0,0.0,0.0,0.0,0.0,0.0,0.0,0.0,0.0,0.0,0.0,0.0,0.0,0.0,0.0,0.0,0.0,0.0,0.0,0.0,0.0,0.0,0.0,0.0,0.0,0.0,0.0,0.0,0.0,0.0,0.0,0.0,0.0,0.0,0.0,0.0,0.0,0.0,0.0,0.0,0.0,0.0,0.0,0.0,0.0,0.0,0.0,0.0,0.0,0.0,0.0,0.0,0.0,0.0,0.0,0.0,0.0,0.0,0.0,0.0,0.0,0.0,0.0,0.0,0.0,0.0,0.0,0.0,0.0,0.0,0.0,0.0,0.0,0.0,0.0,0.0,0.0,0.0,0.0,0.0,0.0,0.0,0.0,0.0,0.0,0.0,0.0,0.0,0.0,0.0,0.0,0.0,0.0,0.0,0.0,0.0,0.0,0.0,0.0,0.0,0.0,0.0,0.0,0.0,0.0,0.0,0.0,0.0,0.0,0.0,0.0,0.0,0.0,0.0,0.0,0.0,0.0,0.0,0.0,0.0,0.0,0.0,0.0,0.0,0.0,0.0,0.0,0.0,0.0,0.0,0.0,0.0,0.0,0.0,0.0,0.0,0.0,0.0,0.0,0.0,0.0,0.0,0.0,0.0,0.0,0.0,0.0,0.0,0.0,0.0,0.0,0.0,0.0,0.0,0.0,0.0,0.0,0.0,0.0,0.0,0.0,0.0,0.0,0.0,0.0,0.0,0.0,0.0,0.0,0.0,0.0,0.0,0.0,0.0,0.0,0.0,0.0,0.0,0.0,0.0,0.0,0.0,0.0,0.0,0.0,0.0,0.0,0.0,0.0,0.0,0.0,0.0,0.0,0.0,0.0,0.0,0.0,0.0,0.0,0.0,0.0,0.0,0.0,0.0,0.0,0.0,0.0,0.0,0.0,0.0,0.0,0.0,0.0,0.0,0.0,0.0,0.0,0.0,0.0,0.0,0.0,0.0,0.0,0.0,0.0,0.0,0.0,0.0,0.0,0.0,0.0,0.0,0.0,0.0,0.0,0.0,0.0,0.0,0.0,0.0,0.0,0.0,0.0,0.0,0.0,0.0,0.0,0.0,0.0,0.0,0.0,0.0,0.0,0.0,0.0,0.0,0.0,0.0,0.0,0.0,0.0,0.0,0.0,0.0,0.0,0.0,0.0,0.0,0.0,0.0,0.0,0.0,0.0,0.0,0.0,0.0,0.0,0.0,0.0,0.0,0.0,0.0,0.0,0.0,0.0,0.0,0.0,0.0,0.0,0.0,0.0,0.0,0.0,0.0,0.0,0.0,0.0,0.0,0.0,0.0,0.0,0.0,0.0,0.0,0.0,0.0,0.0,0.0,0.0,0.0,0.0,0.0,0.0,0.0,0.0,0.0,0.0,0.0,0.0,0.0,0.0,0.0,0.0,0.0,0.0,0.0,0.0,0.0,0.0,0.0,0.0,0.0,0.0,0.0,0.0,0.0,0.0,0.0,0.0,0.0,0.0,0.0,0.0,0.0,0.0,0.0,0.0,0.0,0.0,0.0,0.0,0.0,0.0,0.0,0.0,0.0,0.0,0.0,0.0,0.0,0.0,0.0,0.0,0.0,0.0,0.0,0.0,0.0,0.0,0.0,0.0,0.0,0.0,0.0,0.0,0.0,0.0,0.0,0.0,0.0,0.0,0.0,0.0,0.0,0.0,0.0,0.0,0.0,0.0,0.0,0.0,0.0,0.0,0.0,0.0,0.0,0.0,0.0,0.0,0.0,0.0,0.0,0.0,0.0,0.0,0.0,0.0,0.0,0.0,0.0,0.0,0.0,0.0,0.0,0.0,0.0,0.0,0.0,0.0,0.0,0.0,0.0,0.0,0.0,0.0,0.0,0.0,0.0,0.0,0.0,0.0,0.0,0.0,0.0,0.0,0.0,0.0,0.0,0.0,0.0,0.0,-0.5312,0.0,0.0,0.0,0.0,0.0,0.0,0.0,0.0,0.0,0.0,0.0,0.0,0.0,0.0,0.0,0.0,0.0,0.0,0.0,0.0,0.0,0.0,0.0,0.0,0.0,0.0,0.0,0.0,0.0,0.0,0.0,0.0,0.0,0.0,0.0,0.0,0.0,0.0,0.0,0.0,0.0,0.0,0.0,0.0,0.0,0.0,0.0,0.0,0.0,0.0,0.0,0.0,0.0,0.0,0.0,0.0,0.0,0.0,0.0,0.0,0.0,0.0,0.0,0.0,0.0,0.0,0.0,0.0,0.0,0.0,0.0,0.0,0.0,0.0,0.0,0.0,0.0,0.0,0.0,0.0,0.0,0.0,0.0,0.0,0.0,0.0,0.0,0.0,0.0,0.0,0.0,0.0,0.0,0.0,0.0,0.0,0.0,0.0,0.0,0.0,0.0,0.0,0.0,0.0,0.0,0.0,0.0,0.0,0.0,0.0,-0.5242,-0.5242,-0.5312,-0.5347,-0.5312,0.0,0.0,0.0,0.0,0.0,0.0,0.0,0.0,0.0,0.0,0.0,0.0,0.0,0.0,0.0,0.0,0.0,0.0,0.0,0.0,0.0,0.0,0.0,0.0,0.0,0.0,0.0,0.0,0.0,0.0,0.0,0.0,0.0,0.0,0.0,0.0,0.0,0.0,0.0,0.0,0.0,0.0,0.0,0.0,0.0,0.0,0.0,0.0,0.0,0.0,0.0,0.0,0.0,0.0,0.0,0.0,0.0,0.0,0.0,0.0,0.0,0.0,0.0,0.0,0.0,0.0,0.0,0.0,0.0,0.0,0.0,0.0,0.0,0.0,0.0,0.0,0.0,0.0,0.0,0.0,0.0,0.0,0.0,0.0,0.0,0.0,0.0,0.0,0.0,0.0,0.0,0.0,0.0,0.0,0.0,0.0,0.0,0.0,0.0,0.0,0.0,0.0,0.0,0.0,0.0,0.0,0.0,0.0,0.0,0.0,0.0,0.0,-0.5379,-0.5382,-0.5312,0.0,0.0,0.0,0.0,0.0,0.0,0.0,0.0,0.0,0.0,0.0,0.0,0.0,0.0,0.0,0.0,0.0,0.0,0.0,0.0,0.0,0.0,0.0,0.0,0.0,0.0,0.0,0.0,0.0,0.0,0.0,0.0,0.0,0.0,0.0,0.0,0.0,0.0,0.0,0.0,0.0,0.0,0.0,0.0,0.0,0.0,0.0,0.0,0.0,0.0,0.0,0.0,0.0,0.0,0.0,0.0,0.0,0.0,0.0,0.0,0.0,0.0,0.0,0.0,0.0,0.0,0.0,0.0,0.0,0.0,0.0,0.0,0.0,0.0,0.0,0.0,0.0,0.0,0.0,0.0,0.0,0.0,0.0,0.0,0.0,0.0,0.0,0.0,0.0,0.0,0.0,0.0,0.0,0.0,0.0,0.0,0.0,0.0,0.0,0.0,0.0,0.0,0.0,0.0,0.0,0.0,0.0,0.0,0.0,0.0,-0.5495,-0.5491,-0.5495,0.0,-0.5309,0.0,0.0,0.0,0.0,0.0,0.0,0.0,0.0,0.0,0.0,0.0,0.0,0.0,0.0,0.0,0.0,0.0,0.0,0.0,0.0,0.0,0.0,0.0,0.0,0.0,0.0,0.0,0.0,0.0,0.0,0.0,0.0,0.0,0.0,0.0,0.0,0.0,0.0,0.0,0.0,0.0,0.0,0.0,0.0,0.0,0.0,0.0,0.0,0.0,0.0,0.0,0.0,0.0,0.0,0.0,0.0,0.0,0.0,0.0,0.0,0.0,0.0,0.0,0.0,0.0,0.0,0.0,0.0,0.0,0.0,0.0,0.0,0.0,0.0,0.0,0.0,0.0,0.0,0.0,0.0,0.0,0.0,0.0,0.0,0.0,0.0,0.0,0.0,0.0,0.0,0.0,0.0,0.0,0.0,0.0,0.0,0.0,0.0,0.0,0.0,0.0,0.0,0.0,0.0,0.0,0.0,0.0,0.0,0.0,0.0,-0.5686,-0.5725,-0.5686,-0.5592,0.0,0.0,0.0,0.0,0.0,0.0,0.0,0.0,0.0,0.0,0.0,0.0,0.0,0.0,0.0,0.0,0.0,0.0,0.0,0.0,0.0,0.0,0.0,0.0,0.0,0.0,0.0,0.0,0.0,0.0,0.0,0.0,0.0,0.0,0.0,0.0,0.0,0.0,0.0,0.0,0.0,0.0,0.0,0.0,0.0,0.0,0.0,0.0,0.0,0.0,0.0,0.0,0.0,0.0,0.0,0.0,0.0,0.0,0.0,0.0,0.0,0.0,0.0,0.0,0.0,0.0,0.0,0.0,0.0,0.0,0.0,0.0,0.0,0.0,0.0,0.0,0.0,0.0,0.0,0.0,0.0,0.0,0.0,0.0,0.0,0.0,0.0,0.0,0.0,0.0,0.0,0.0,0.0,0.0,0.0,0.0,0.0,0.0,0.0,0.0,0.0,0.0,0.0,0.0,0.0,0.0,0.0,0.0,0.0,0.0,-0.5874,-0.5971,-0.6036,-0.594,-0.5842,-0.5644,0.0,0.0,0.0,0.0,0.0,0.0,0.0,0.0,0.0,0.0,0.0,0.0,0.0,0.0,0.0,0.0,0.0,0.0,0.0,0.0,0.0,0.0,0.0,0.0,0.0,0.0,0.0,0.0,0.0,0.0,0.0,0.0,0.0,0.0,0.0,0.0,0.0,0.0,0.0,0.0,0.0,0.0,0.0,0.0,0.0,0.0,0.0,0.0,0.0,0.0,0.0,0.0,0.0,0.0,0.0,0.0,0.0,0.0,0.0,0.0,0.0,0.0,0.0,0.0,0.0,0.0,0.0,0.0,0.0,0.0,0.0,0.0,0.0,0.0,0.0,0.0,0.0,0.0,0.0,0.0,0.0,0.0,0.0,0.0,0.0,0.0,0.0,0.0,0.0,0.0,0.0,0.0,0.0,0.0,0.0,0.0,0.0,0.0,0.0,0.0,0.0,0.0,0.0,0.0,0.0,0.0,0.0,0.0,-0.5886,-0.6149,-0.6307,-0.6356,-0.6264,-0.6114,0.0,0.0,0.0,0.0,0.0,0.0,0.0,0.0,0.0,0.0,0.0,0.0,0.0,0.0,0.0,0.0,0.0,0.0,0.0,0.0,0.0,0.0,0.0,0.0,0.0,0.0,0.0,0.0,0.0,0.0,0.0,0.0,0.0,0.0,0.0,0.0,0.0,0.0,0.0,0.0,0.0,0.0,0.0,0.0,0.0,0.0,0.0,0.0,0.0,0.0,0.0,0.0,0.0,0.0,0.0,0.0,0.0,0.0,0.0,0.0,0.0,0.0,0.0,0.0,0.0,0.0,0.0,0.0,0.0,0.0,0.0,0.0,0.0,0.0,0.0,0.0,0.0,0.0,0.0,0.0,0.0,0.0,0.0,0.0,0.0,0.0,0.0,0.0,0.0,0.0,0.0,0.0,0.0,0.0,0.0,0.0,0.0,0.0,0.0,0.0,0.0,0.0,0.0,0.0,0.0,0.0,0.0,0.0,0.0,-0.6272,-0.66,-0.6755,-0.6725,-0.6535,-0.636,0.0,0.0,0.0,0.0,0.0,0.0,0.0,0.0,0.0,0.0,0.0,0.0,0.0,0.0,0.0,0.0,0.0,0.0,0.0,0.0,0.0,0.0,0.0,0.0,0.0,0.0,0.0,0.0,0.0,0.0,0.0,0.0,0.0,0.0,0.0,0.0,0.0,0.0,0.0,0.0,0.0,0.0,0.0,0.0,0.0,0.0,0.0,0.0,0.0,0.0,0.0,0.0,0.0,0.0,0.0,0.0,0.0,0.0,0.0,0.0,0.0,0.0,0.0,0.0,0.0,0.0,0.0,0.0,0.0,0.0,0.0,0.0,0.0,0.0,0.0,0.0,0.0,0.0,0.0,0.0,0.0,0.0,0.0,0.0,0.0,0.0,0.0,0.0,0.0,0.0,0.0,0.0,0.0,0.0,0.0,0.0,0.0,0.0,0.0,0.0,0.0,0.0,0.0,0.0,0.0,0.0,0.0,0.0,0.0,-0.6824,0.0,-0.7219,-0.7171,-0.6906,-0.6691,0.0,0.0,0.0,0.0,0.0,0.0,0.0,0.0,0.0,0.0,0.0,0.0,0.0,0.0,0.0,0.0,0.0,0.0,0.0,0.0,0.0,0.0,0.0,0.0,0.0,0.0,0.0,0.0,0.0,0.0,0.0,0.0,0.0,0.0,0.0,0.0,0.0,0.0,0.0,0.0,0.0,0.0,0.0,0.0,0.0,0.0,0.0,0.0,0.0,0.0,0.0,0.0,0.0,0.0,0.0,0.0,0.0,0.0,0.0,0.0,0.0,0.0,0.0,0.0,0.0,0.0,0.0,0.0,0.0,0.0,0.0,0.0,0.0,0.0,0.0,0.0,0.0,0.0,0.0,0.0,0.0,0.0,0.0,0.0,0.0,0.0,0.0,0.0,0.0,0.0,0.0,0.0,0.0,0.0,0.0,0.0,0.0,0.0,0.0,0.0,0.0,0.0,0.0,0.0,0.0,0.0,0.0,0.0,-0.6786,-0.7456,-0.7636,-0.7681,-0.7686,-0.7324,-0.7086,0.0,0.0,0.0,0.0,0.0,0.0,0.0,0.0,0.0,0.0,0.0,0.0,0.0,0.0,0.0,0.0,0.0,0.0,0.0,0.0,0.0,0.0,0.0,0.0,0.0,0.0,0.0,0.0,0.0,0.0,0.0,0.0,0.0,0.0,0.0,0.0,0.0,0.0,0.0,0.0,0.0,0.0,0.0,0.0,0.0,0.0,0.0,0.0,0.0,0.0,0.0,0.0,0.0,0.0,0.0,0.0,0.0,0.0,0.0,0.0,0.0,0.0,0.0,0.0,0.0,0.0,0.0,0.0,0.0,0.0,0.0,0.0,0.0,0.0,0.0,0.0,0.0,0.0,0.0,0.0,0.0,0.0,0.0,0.0,0.0,0.0,0.0,0.0,0.0,0.0,0.0,0.0,0.0,0.0,0.0,0.0,0.0,0.0,0.0,0.0,0.0,0.0,0.0,0.0,0.0,0.0,0.0,0.0,0.0,-0.7773,-0.7962,-0.8049,-0.8038,-0.77,-0.7398,0.0,0.0,0.0,0.0,0.0,0.0,0.0,0.0,0.0,0.0,0.0,0.0,0.0,0.0,0.0,0.0,0.0,0.0,0.0,0.0,0.0,0.0,0.0,0.0,0.0,0.0,0.0,0.0,0.0,0.0,0.0,0.0,0.0,0.0,0.0,0.0,0.0,0.0,0.0,0.0,0.0,0.0,0.0,0.0,0.0,0.0,0.0,0.0,0.0,0.0,0.0,0.0,0.0,0.0,0.0,0.0,0.0,0.0,0.0,0.0,0.0,0.0,0.0,0.0,0.0,0.0,0.0,0.0,0.0,0.0,0.0,0.0,0.0,0.0,0.0,0.0,0.0,0.0,0.0,0.0,0.0,0.0,0.0,0.0,0.0,0.0,0.0,0.0,0.0,0.0,0.0,0.0,0.0,0.0,0.0,0.0,0.0,0.0,0.0,0.0,0.0,0.0,0.0,0.0,0.0,0.0,0.0,0.0,0.0,-0.8764,-0.8973,-0.9044,-0.8955,-0.8394,-0.7939,-0.7602,0.0,0.0,0.0,0.0,0.0,0.0,0.0,0.0,0.0,0.0,0.0,0.0,0.0,0.0,0.0,0.0,0.0,0.0,0.0,0.0,0.0,0.0,0.0,0.0,0.0,0.0,0.0,0.0,0.0,0.0,0.0,0.0,0.0,0.0,0.0,0.0,0.0,0.0,0.0,0.0,0.0,0.0,0.0,0.0,0.0,0.0,0.0,0.0,0.0,0.0,0.0,0.0,0.0,0.0,0.0,0.0,0.0,0.0,0.0,0.0,0.0,0.0,0.0,0.0,0.0,0.0,0.0,0.0,0.0,0.0,0.0,0.0,0.0,0.0,0.0,0.0,0.0,0.0,0.0,0.0,0.0,0.0,0.0,0.0,0.0,0.0,0.0,0.0,0.0,0.0,0.0,0.0,0.0,0.0,0.0,0.0,0.0,0.0,0.0,0.0,0.0,0.0,0.0,0.0,0.0,0.0,0.0,0.0,-1.0237,-1.0507,-1.0463,-1.0167,-0.924,-0.8574,0.0,0.0,0.0,0.0,0.0,0.0,0.0,0.0,0.0,0.0,0.0,0.0,0.0,0.0,0.0,0.0,0.0,0.0,0.0,0.0,0.0,0.0,0.0,0.0,0.0,0.0,0.0,0.0,0.0,0.0,0.0,0.0,0.0,0.0,0.0,0.0,0.0,0.0,0.0,0.0,0.0,0.0,0.0,0.0,0.0,0.0,0.0,0.0,0.0,0.0,0.0,0.0,0.0,0.0,0.0,0.0,0.0,0.0,0.0,0.0,0.0,0.0,0.0,0.0,0.0,0.0,0.0,0.0,0.0,0.0,0.0,0.0,0.0,0.0,0.0,0.0,0.0,0.0,0.0,0.0,0.0,0.0,0.0,0.0,0.0,0.0,0.0,0.0,0.0,0.0,0.0,0.0,0.0,0.0,0.0,0.0,0.0,0.0,0.0,0.0,0.0,0.0,0.0,0.0,0.0,0.0,0.0,0.0,0.0,-1.0702,-1.0931,-1.0805,-1.0334,-0.9366,-0.8684,0.0,0.0,0.0,0.0,0.0,0.0,0.0,0.0,0.0,0.0,0.0,0.0,0.0,0.0,0.0,0.0,0.0,0.0,0.0,0.0,0.0,0.0,0.0,0.0,0.0,0.0,0.0,0.0,0.0,0.0,0.0,0.0,0.0,0.0,0.0,0.0,0.0,0.0,0.0,0.0,0.0,0.0,0.0,0.0,0.0,0.0,0.0,0.0,0.0,0.0,0.0,0.0,0.0,0.0,0.0,0.0,0.0,0.0,0.0,0.0,0.0,0.0,0.0,0.0,0.0,0.0,0.0,0.0,0.0,0.0,0.0,0.0,0.0,0.0,0.0,0.0,0.0,0.0,0.0,0.0,0.0,0.0,0.0,0.0,0.0,0.0,0.0,0.0,0.0,0.0,0.0,0.0,0.0,0.0,0.0,0.0,0.0,0.0,0.0,0.0,0.0,0.0,0.0,0.0,0.0,0.0,0.0,0.0,-1.0428,-1.1236,-1.1547,-1.1578,-1.1289,-0.9885,-0.8964,0.0,0.0,0.0,0.0,0.0,0.0,0.0,0.0,0.0,0.0,0.0,0.0,0.0,0.0,0.0,0.0,0.0,0.0,0.0,0.0,0.0,0.0,0.0,0.0,0.0,0.0,0.0,0.0,0.0,0.0,0.0,0.0,0.0,0.0,0.0,0.0,0.0,0.0,0.0,0.0,0.0,0.0,0.0,0.0,0.0,0.0,0.0,0.0,0.0,0.0,0.0,0.0,0.0,0.0,0.0,0.0,0.0,0.0,0.0,0.0,0.0,0.0,0.0,0.0,0.0,0.0,0.0,0.0,0.0,0.0,0.0,0.0,0.0,0.0,0.0,0.0,0.0,0.0,0.0,0.0,0.0,0.0,0.0,0.0,0.0,0.0,0.0,0.0,0.0,0.0,0.0,0.0,0.0,0.0,0.0,0.0,0.0,0.0,0.0,0.0,0.0,0.0,0.0,0.0,0.0,0.0,0.0,0.0,-1.0738,-1.1811,-1.2181,-1.239,-1.2395,-1.0516,-0.9393,0.0,0.0,0.0,0.0,0.0,0.0,0.0,0.0,0.0,0.0,0.0,0.0,0.0,0.0,0.0,0.0,0.0,0.0,0.0,0.0,0.0,0.0,0.0,0.0,0.0,0.0,0.0,0.0,0.0,0.0,0.0,0.0,0.0,0.0,0.0,0.0,0.0,0.0,0.0,0.0,0.0,0.0,0.0,0.0,0.0,0.0,0.0,0.0,0.0,0.0,0.0,0.0,0.0,0.0,0.0,0.0,0.0,0.0,0.0,0.0,0.0,0.0,0.0,0.0,0.0,0.0,0.0,0.0,0.0,0.0,0.0,0.0,0.0,0.0,0.0,0.0,0.0,0.0,0.0,0.0,0.0,0.0,0.0,0.0,0.0,0.0,0.0,0.0,0.0,0.0,0.0,0.0,0.0,0.0,0.0,0.0,0.0,0.0,0.0,0.0,0.0,0.0,0.0,0.0,0.0,0.0,0.0,0.0,-1.0829,-1.2015,-1.2104,-1.2092,-1.1957,-1.087,-1.0039,0.0,0.0,0.0,0.0,0.0,0.0,0.0,0.0,0.0,0.0,0.0,0.0,0.0,0.0,0.0,0.0,0.0,0.0,0.0,0.0,0.0,0.0,0.0,0.0,0.0,0.0,0.0,0.0,0.0,0.0,0.0,0.0,0.0,0.0,0.0,0.0,0.0,0.0,0.0,0.0,0.0,0.0,0.0,0.0,0.0,0.0,0.0,0.0,-0.9322,0.0,0.0,0.0,0.0,0.0,0.0,0.0,0.0,0.0,0.0,0.0,0.0,0.0,0.0,0.0,0.0,0.0,0.0,0.0,0.0,0.0,0.0,0.0,0.0,0.0,0.0,0.0,0.0,0.0,0.0,0.0,0.0,0.0,0.0,0.0,0.0,0.0,0.0,0.0,0.0,0.0,0.0,0.0,0.0,0.0,0.0,0.0,0.0,0.0,0.0,0.0,0.0,0.0,0.0,0.0,0.0,0.0,0.0,0.0,-1.0841,-1.1333,-1.2033,-1.2074,-1.1449,-1.1019,-1.0448,0.0,0.0,0.0,0.0,0.0,0.0,0.0,0.0,0.0,0.0,0.0,0.0,0.0,0.0,0.0,0.0,0.0,0.0,0.0,0.0,0.0,0.0,0.0,0.0,0.0,0.0,0.0,0.0,0.0,0.0,0.0,0.0,0.0,0.0,0.0,0.0,0.0,0.0,0.0,0.0,0.0,0.0,0.0,0.0,0.0,0.0,0.0,0.0,0.0,0.0,0.0,0.0,0.0,0.0,0.0,0.0,0.0,0.0,0.0,0.0,0.0,0.0,0.0,0.0,0.0,0.0,0.0,0.0,0.0,0.0,0.0,0.0,0.0,0.0,0.0,0.0,0.0,0.0,0.0,0.0,0.0,0.0,0.0,0.0,0.0,0.0,0.0,0.0,0.0,0.0,0.0,0.0,0.0,0.0,0.0,0.0,0.0,0.0,0.0,0.0,0.0,0.0,0.0,0.0,0.0,0.0,0.0,-0.9956,-1.0791,-1.065,-1.194,-1.2106,-1.0986,-1.1094,-1.0739,-0.9795,0.0,0.0,0.0,0.0,0.0,0.0,0.0,0.0,0.0,0.0,0.0,0.0,0.0,0.0,0.0,0.0,0.0,0.0,0.0,0.0,0.0,0.0,0.0,0.0,0.0,0.0,0.0,0.0,0.0,0.0,0.0,0.0,0.0,0.0,0.0,0.0,0.0,0.0,-0.8954,-0.9403,0.0,0.0,0.0,0.0,0.0,0.0,0.0,0.0,-1.1662,0.0,0.0,0.0,0.0,0.0,0.0,0.0,0.0,0.0,0.0,0.0,0.0,0.0,0.0,0.0,0.0,0.0,0.0,0.0,0.0,0.0,0.0,0.0,0.0,0.0,0.0,0.0,0.0,0.0,0.0,0.0,0.0,0.0,0.0,0.0,0.0,0.0,0.0,0.0,0.0,0.0,0.0,0.0,0.0,0.0,0.0,0.0,0.0,0.0,0.0,0.0,0.0,0.0,0.0,0.0,0.0,-0.929,-1.0026,-1.0602,-1.1009,-1.1886,-1.1824,-1.0732,-1.1209,-1.1018,-0.9995,0.0,0.0,0.0,0.0,0.0,0.0,0.0,0.0,0.0,0.0,0.0,0.0,0.0,0.0,0.0,0.0,0.0,0.0,0.0,0.0,0.0,0.0,0.0,0.0,0.0,0.0,0.0,0.0,0.0,0.0,0.0,0.0,0.0,0.0,0.0,0.0,0.0,0.0,0.0,-1.0587,-1.0981,0.0,0.0,0.0,0.0,0.0,0.0,0.0,0.0,-1.1984,0.0,0.0,0.0,0.0,0.0,0.0,0.0,0.0,0.0,0.0,0.0,0.0,0.0,0.0,0.0,0.0,0.0,0.0,0.0,0.0,0.0,0.0,0.0,0.0,0.0,0.0,0.0,0.0,0.0,0.0,0.0,0.0,0.0,0.0,0.0,0.0,0.0,0.0,0.0,0.0,0.0,0.0,0.0,0.0,0.0,0.0,0.0,0.0,0.0,0.0,0.0,0.0,0.0,0.0,0.0,-0.8947,-0.9681,-0.9966,-0.9844,-1.0716,-1.0651,-0.9486,-1.0218,-1.0303,0.0,0.0,0.0,0.0,0.0,0.0,0.0,0.0,0.0,0.0,0.0,0.0,0.0,0.0,0.0,0.0,0.0,0.0,0.0,0.0,0.0,0.0,0.0,0.0,0.0,0.0,0.0,0.0,0.0,0.0,0.0,0.0,0.0,0.0,0.0,0.0,0.0,0.0,0.0,0.0,-1.1692,-1.1976,-1.1877,0.0,0.0,0.0,0.0,0.0,0.0,-1.344,-1.3161,0.0,0.0,0.0,0.0,0.0,0.0,0.0,0.0,0.0,0.0,0.0,0.0,0.0,0.0,0.0,0.0,0.0,0.0,0.0,0.0,0.0,0.0,0.0,0.0,0.0,0.0,0.0,0.0,0.0,0.0,0.0,0.0,0.0,0.0,0.0,0.0,0.0,0.0,0.0,0.0,0.0,0.0,0.0,0.0,0.0,0.0,0.0,0.0,0.0,0.0,0.0,0.0,0.0,0.0,0.0,-0.8444,-0.9244,-0.936,-0.8784,-0.9668,-0.9651,-0.8605,-0.9504,-0.9739,0.0,0.0,0.0,0.0,0.0,0.0,0.0,0.0,0.0,0.0,0.0,0.0,0.0,0.0,0.0,0.0,0.0,0.0,0.0,0.0,0.0,0.0,0.0,0.0,0.0,0.0,0.0,0.0,0.0,0.0,0.0,0.0,0.0,0.0,0.0,0.0,0.0,0.0,0.0,0.0,0.0,-1.291,-1.3342,-1.3762,0.0,0.0,0.0,0.0,-1.4433,-1.4379,0.0,0.0,0.0,0.0,0.0,0.0,0.0,0.0,0.0,0.0,0.0,0.0,0.0,0.0,0.0,0.0,0.0,0.0,0.0,0.0,0.0,0.0,0.0,0.0,0.0,0.0,0.0,0.0,0.0,0.0,0.0,0.0,0.0,0.0,0.0,0.0,0.0,0.0,0.0,0.0,0.0,0.0,0.0,0.0,0.0,0.0,0.0,0.0,0.0,0.0,0.0,0.0,0.0,0.0,0.0,0.0,-0.8569,-0.8901,-0.9132,-0.9234,-0.9738,-0.9815,-0.9394,-1.0277,-1.0389,0.0,0.0,0.0,0.0,0.0,0.0,0.0,0.0,0.0,0.0,0.0,0.0,0.0,0.0,0.0,0.0,0.0,0.0,0.0,0.0,0.0,0.0,0.0,0.0,0.0,0.0,0.0,0.0,0.0,0.0,0.0,0.0,0.0,0.0,0.0,0.0,0.0,0.0,0.0,0.0,0.0,-1.4049,-1.3985,-1.4498,-1.4994,0.0,0.0,-1.5384,-1.5847,-1.5038,0.0,0.0,0.0,0.0,0.0,0.0,0.0,0.0,0.0,0.0,0.0,0.0,0.0,0.0,0.0,0.0,0.0,0.0,0.0,0.0,0.0,0.0,0.0,0.0,0.0,0.0,0.0,0.0,0.0,0.0,0.0,0.0,0.0,0.0,0.0,0.0,0.0,0.0,0.0,0.0,0.0,0.0,0.0,0.0,0.0,0.0,0.0,0.0,0.0,0.0,0.0,0.0,0.0,0.0,0.0,-0.8044,-0.8371,-0.848,-0.8477,-0.8398,-0.8849,-0.8979,-0.8711,-0.9636,-0.9824,0.0,0.0,0.0,0.0,0.0,0.0,0.0,0.0,0.0,0.0,0.0,0.0,0.0,0.0,0.0,0.0,0.0,0.0,0.0,0.0,0.0,0.0,0.0,0.0,0.0,0.0,0.0,0.0,0.0,0.0,0.0,0.0,0.0,0.0,0.0,0.0,0.0,0.0,0.0,0.0,0.0,0.0,-1.484,-1.5128,0.0,0.0,0.0,-1.5787,-1.5999,0.0,0.0,0.0,0.0,0.0,0.0,0.0,0.0,0.0,0.0,0.0,0.0,0.0,0.0,0.0,0.0,0.0,0.0,0.0,0.0,0.0,0.0,0.0,0.0,0.0,0.0,0.0,0.0,0.0,0.0,0.0,0.0,0.0,0.0,0.0,0.0,0.0,0.0,0.0,0.0,0.0,0.0,0.0,0.0,0.0,0.0,0.0,0.0,0.0,0.0,0.0,0.0,0.0,0.0,0.0,0.0,0.0,-0.8079,-0.8005,-0.7881,-0.7766,-0.8175,-0.8322,-0.8164,-0.9107,0.0,0.0,0.0,0.0,0.0,0.0,0.0,0.0,0.0,0.0,0.0,0.0,0.0,0.0,0.0,0.0,0.0,0.0,0.0,0.0,0.0,0.0,0.0,0.0,0.0,0.0,0.0,-0.736,0.0,0.0,0.0,0.0,0.0,0.0,0.0,0.0,0.0,0.0,0.0,0.0,0.0,0.0,-1.5156,-1.5389,-1.5602,-1.5919,0.0,0.0,-1.6253,-1.6498,-1.6293,-1.599,0.0,0.0,0.0,0.0,0.0,0.0,0.0,0.0,0.0,0.0,0.0,0.0,0.0,0.0,0.0,0.0,0.0,0.0,0.0,0.0,0.0,0.0,0.0,0.0,0.0,0.0,0.0,0.0,0.0,0.0,0.0,0.0,0.0,0.0,0.0,0.0,0.0,0.0,0.0,0.0,0.0,0.0,0.0,0.0,0.0,0.0,0.0,0.0,0.0,0.0,0.0,0.0,0.0,0.0,-0.7666,-0.7715,-0.7431,-0.747,-0.788,-0.8284,-0.839,-0.8244,-0.9343,-0.9633,0.0,0.0,0.0,0.0,0.0,0.0,0.0,0.0,0.0,0.0,0.0,0.0,0.0,0.0,0.0,0.0,0.0,0.0,0.0,0.0,0.0,0.0,0.0,0.0,0.0,0.0,0.0,0.0,0.0,0.0,0.0,0.0,0.0,0.0,0.0,0.0,0.0,0.0,0.0,0.0,0.0,-1.5492,-1.5477,-1.5833,-1.6143,0.0,-1.6696,-1.7239,-1.8091,-1.7058,-1.6398,-1.6965,0.0,0.0,0.0,0.0,0.0,0.0,0.0,0.0,0.0,0.0,0.0,0.0,0.0,0.0,0.0,0.0,0.0,0.0,0.0,0.0,0.0,0.0,0.0,0.0,0.0,0.0,0.0,0.0,0.0,0.0,0.0,0.0,0.0,0.0,0.0,0.0,0.0,0.0,0.0,0.0,0.0,0.0,0.0,0.0,0.0,0.0,0.0,0.0,0.0,0.0,0.0,0.0,0.0,-0.8157,-0.813,-0.7921,-0.7863,-0.7904,-0.8162,-0.8154,-0.785,-0.8694,-0.9027,0.0,0.0,0.0,0.0,0.0,0.0,0.0,0.0,0.0,0.0,0.0,0.0,0.0,0.0,0.0,0.0,0.0,0.0,0.0,0.0,0.0,0.0,0.0,0.0,0.0,0.0,0.0,0.0,-0.9052,-0.9771,-1.0881,0.0,0.0,0.0,0.0,0.0,0.0,0.0,0.0,0.0,0.0,-1.6375,-1.6638,-1.6653,0.0,0.0,-1.7141,-1.7197,-1.7601,-1.7724,-1.7482,-1.6728,-1.6277,0.0,0.0,0.0,0.0,0.0,0.0,0.0,0.0,0.0,0.0,0.0,0.0,0.0,0.0,0.0,0.0,0.0,0.0,0.0,0.0,0.0,0.0,0.0,0.0,0.0,0.0,0.0,0.0,0.0,0.0,0.0,0.0,0.0,0.0,0.0,0.0,0.0,0.0,0.0,0.0,0.0,0.0,0.0,0.0,0.0,0.0,0.0,0.0,0.0,0.0,0.0,0.0,-0.8445,-0.8527,-0.8116,-0.7854,-0.7743,-0.7856,-0.777,-0.7462,-0.8216,-0.8649,0.0,0.0,0.0,0.0,0.0,0.0,0.0,0.0,0.0,0.0,0.0,0.0,0.0,0.0,0.0,0.0,0.0,0.0,0.0,0.0,0.0,0.0,0.0,0.0,0.0,0.0,0.0,0.0,-0.9846,-1.0605,-1.1503,0.0,0.0,0.0,0.0,0.0,0.0,0.0,0.0,0.0,0.0,-1.7212,-1.7392,-1.7204,-1.7105,-1.74,-1.725,-1.7174,-1.7436,-1.7881,-1.7842,-1.684,0.0,0.0,0.0,0.0,0.0,0.0,0.0,0.0,0.0,0.0,0.0,0.0,0.0,0.0,0.0,0.0,0.0,0.0,0.0,0.0,0.0,0.0,0.0,0.0,0.0,0.0,0.0,-0.4064,0.0,0.0,-0.37,0.0,0.0,0.0,0.0,0.0,0.0,0.0,0.0,0.0,0.0,0.0,0.0,0.0,0.0,0.0,0.0,0.0,0.0,0.0,0.0,0.0,0.0,-0.8389,-0.8766,-0.7772,-0.7251,-0.7338,-0.73,-0.7251,-0.7049,-0.8084,-0.8767,-0.8859,0.0,0.0,0.0,0.0,0.0,0.0,0.0,0.0,0.0,0.0,0.0,0.0,0.0,0.0,0.0,0.0,0.0,0.0,0.0,0.0,0.0,0.0,0.0,0.0,0.0,0.0,-1.0325,-1.1169,-1.1802,0.0,0.0,0.0,0.0,0.0,0.0,0.0,0.0,0.0,-1.7674,-1.7872,-1.7869,-1.7535,-1.7211,-1.6961,-1.6699,-1.6901,-1.7304,-1.7951,-1.748,-1.7176,0.0,0.0,0.0,0.0,0.0,0.0,0.0,0.0,0.0,0.0,0.0,0.0,0.0,0.0,0.0,0.0,0.0,0.0,0.0,0.0,0.0,0.0,0.0,0.0,0.0,0.0,0.0,-0.4881,-0.4663,0.0,0.0,0.0,0.0,0.0,0.0,0.0,0.0,0.0,0.0,0.0,-0.6316,-0.6355,0.0,0.0,0.0,0.0,0.0,0.0,0.0,0.0,0.0,0.0,0.0,0.0,-0.85,-0.8685,-0.7866,-0.7463,-0.7573,-0.7172,-0.7071,-0.7259,-0.7632,-0.8012,-0.8362,0.0,0.0,0.0,0.0,0.0,0.0,0.0,0.0,0.0,0.0,0.0,0.0,0.0,0.0,0.0,0.0,0.0,0.0,0.0,0.0,0.0,0.0,0.0,0.0,0.0,-1.05,0.0,0.0,0.0,0.0,0.0,0.0,0.0,0.0,0.0,0.0,-1.5876,-1.6691,-1.7479,-1.7829,-1.8022,-1.8019,-1.7746,-1.741,0.0,0.0,0.0,0.0,0.0,0.0,0.0,0.0,0.0,0.0,0.0,0.0,0.0,0.0,-1.8607,-1.7222,-1.8138,-1.9103,-1.9005,0.0,0.0,0.0,0.0,0.0,0.0,0.0,0.0,0.0,0.0,0.0,0.0,0.0,0.0,-0.5443,-0.514,-0.4879,0.0,0.0,0.0,0.0,0.0,0.0,0.0,0.0,-0.6099,-0.6441,-0.6686,-0.6689,-0.6732,-0.695,-0.7118,-0.7055,0.0,0.0,0.0,0.0,0.0,0.0,0.0,0.0,-0.8493,-0.8593,-0.7815,-0.7359,-0.7346,-0.6809,-0.6721,-0.7193,-0.7508,-0.7813,-0.8004,-0.8115,-0.8065,0.0,0.0,0.0,0.0,0.0,0.0,0.0,0.0,0.0,0.0,0.0,0.0,0.0,0.0,0.0,0.0,0.0,0.0,0.0,0.0,0.0,0.0,0.0,-1.09,0.0,0.0,0.0,0.0,0.0,0.0,0.0,0.0,0.0,-1.5185,-1.5869,-1.6629,-1.7402,-1.7946,-1.8202,-1.8005,0.0,0.0,0.0,0.0,0.0,0.0,0.0,-1.6153,-1.6501,-1.699,-1.7838,-1.9455,-2.039,-2.089,-2.0709,0.0,0.0,-1.8639,-1.9451,-2.071,-2.1495,-2.1941,-2.212,-2.1969,-2.1328,-2.0642,0.0,0.0,0.0,0.0,-0.6199,0.0,0.0,0.0,-0.6239,-0.5976,0.0,-0.5152,0.0,0.0,0.0,0.0,-0.4556,-0.5501,0.0,0.0,-0.6598,-0.6985,-0.6975,-0.6979,-0.6975,-0.7017,-0.7436,-0.7436,-0.7049,-0.6831,0.0,0.0,0.0,0.0,0.0,0.0,-0.84,-0.8409,-0.7544,-0.695,-0.6676,-0.6161,-0.6159,-0.6796,-0.7784,-0.8174,-0.7882,-0.7625,-0.7447,-0.7377,-0.7317,0.0,0.0,0.0,0.0,0.0,0.0,0.0,0.0,0.0,0.0,0.0,0.0,0.0,0.0,0.0,0.0,0.0,0.0,0.0,0.0,-1.0677,0.0,0.0,0.0,0.0,0.0,0.0,0.0,0.0,0.0,-1.4897,-1.5147,-1.609,-1.6932,-1.7389,0.0,0.0,0.0,0.0,-1.6941,-1.5773,-1.5617,-1.561,-1.5544,-1.5245,-1.5267,-1.5862,0.0,0.0,-2.1027,-2.1661,-2.1963,-2.2648,-2.2373,-2.1691,-1.9853,-2.043,-2.2035,-2.4671,-2.379,-2.3154,-2.4175,-2.2162,-2.02,-0.5647,0.0,0.0,0.0,0.0,-0.6544,-0.6766,-0.7121,-0.7033,-0.6484,-0.5715,-0.5663,0.0,0.0,0.0,0.0,0.0,0.0,-0.513,-0.5787,-0.6264,-0.6647,-0.6975,-0.6975,-0.6975,-0.7017,-0.714,-0.7437,-0.7887,-0.7231,-0.7103,-0.7384,0.0,0.0,0.0,0.0,-0.79,-0.7625,-0.6849,-0.646,-0.6435,-0.5758,-0.5852,-0.6789,-0.7748,-0.7954,-0.7274,-0.7363,-0.7167,-0.6643,-0.6881,0.0,0.0,0.0,0.0,0.0,0.0,0.0,0.0,0.0,0.0,0.0,0.0,0.0,0.0,0.0,0.0,0.0,0.0,0.0,-1.1132,-1.1462,-1.1763,0.0,0.0,0.0,0.0,0.0,0.0,0.0,0.0,0.0,-1.5178,-1.5401,-1.5861,0.0,0.0,-1.6956,-1.6657,-1.6768,-1.6591,-1.5676,-1.5771,0.0,-1.5799,-1.571,-1.581,-1.6368,-1.7756,-1.9114,-1.9996,-2.1077,-2.1617,-2.107,-2.128,-2.1591,-2.1867,-2.2121,-2.3004,-2.4604,-2.4198,-2.2983,-2.186,-2.1023,-1.9926,-0.5328,-0.5116,-0.5356,-0.5745,-0.6196,-0.6236,-0.6451,-0.6761,-0.6714,-0.627,-0.558,-0.5541,-0.5175,-0.4552,-0.4642,0.0,0.0,0.0,-0.4959,-0.5486,-0.5999,-0.6428,-0.6722,-0.6891,-0.6975,-0.7021,-0.7185,-0.7472,-0.7792,-0.743,-0.7266,-0.7262,0.0,-0.7594,-0.7672,-0.7717,-0.7525,-0.7022,-0.6371,-0.5954,-0.5749,-0.5474,-0.5757,-0.6553,-0.7321,-0.7486,-0.6936,-0.6905,-0.6711,-0.6363,-0.6543,-0.6959,0.0,0.0,0.0,0.0,0.0,0.0,0.0,0.0,0.0,0.0,0.0,-0.8914,-0.9102,0.0,0.0,0.0,-1.0601,-1.118,-1.1641,-1.183,0.0,0.0,0.0,0.0,0.0,0.0,0.0,-1.4369,-1.4766,-1.5079,-1.5203,-1.4998,-1.5072,-1.5708,-1.6162,-1.6203,-1.5637,0.0,-1.5717,-1.4789,-1.471,-1.4751,-1.482,-1.4601,-1.4683,-1.5511,-1.6782,-1.8171,-1.9107,-2.0024,-2.0677,-2.0831,-2.0945,-2.1201,-2.1776,-2.212,-2.2279,-2.252,-2.2885,-2.2368,-2.0223,-1.9399,-1.8338,-0.4952,-0.4844,-0.525,-0.548,-0.5661,-0.5741,-0.5805,-0.5782,-0.5764,-0.5568,-0.5244,-0.5077,-0.4865,-0.4573,-0.4556,0.0,-0.4338,-0.4895,-0.506,-0.5007,-0.5819,-0.6246,-0.6289,-0.6719,-0.6979,-0.7021,-0.7436,-0.7436,-0.7024,-0.7436,-0.7426,-0.6984,-0.7207,-0.7247,-0.7122,-0.7359,-0.7147,-0.652,-0.5969,-0.5416,-0.4876,-0.5355,-0.5822,-0.6203,-0.6653,-0.682,-0.667,-0.6319,-0.6222,-0.6355,-0.6316,-0.6629,-0.7311,0.0,0.0,0.0,0.0,0.0,0.0,0.0,0.0,0.0,0.0,0.0,0.0,0.0,0.0,0.0,-1.1292,0.0,-1.1945,-1.1979,0.0,0.0,0.0,-1.2864,-1.3072,-1.3642,-1.4117,-1.4374,0.0,0.0,-1.5291,-1.4767,-1.4495,-1.479,-1.5629,-1.5769,-1.452,-1.4688,-1.455,-1.3636,-1.3091,-1.2859,-1.3288,-1.2779,-1.2691,-1.3673,-1.4536,-1.5909,-1.7773,-1.851,-1.9482,-2.11,-2.0883,-2.0199,-2.0172,-2.0642,-2.0671,-1.8869,-2.033,-2.1242,-1.9228,-1.7587,-1.6045,-0.4606,-0.457,-0.4679,-0.5163,-0.5808,-0.5861,-0.6024,-0.625,-0.6227,-0.572,-0.4931,-0.5022,-0.4874,-0.4524,-0.4408,-0.4361,-0.4383,-0.447,-0.4707,-0.5007,-0.5221,-0.565,-0.6292,-0.6419,-0.6638,-0.6979,-0.7101,-0.7105,-0.7021,-0.7101,-0.699,-0.6657,-0.6734,-0.6939,-0.7176,-0.7027,-0.6605,-0.5856,-0.5246,-0.4779,-0.4426,-0.5335,-0.5947,-0.6199,-0.6649,-0.6726,-0.6428,-0.64,-0.6317,-0.6103,-0.6279,-0.6593,-0.6995,-0.7217,0.0,0.0,0.0,0.0,0.0,0.0,0.0,0.0,0.0,-0.9704,-1.0118,0.0,-1.0845,0.0,-1.1658,-1.2066,-1.236,-1.2834,0.0,0.0,-1.3047,-1.3331,-1.3115,-1.3675,-1.4163,-1.4381,-1.4648,-1.492,-1.5267,-1.4644,-1.4156,-1.4158,-1.4369,-1.4429,-1.4053,-1.4081,-1.4056,-1.3636,-1.3203,-1.3031,-1.2907,-1.2363,-1.1865,-1.2215,-1.3077,-1.4255,-1.5613,-1.6428,-1.7352,-1.8574,-1.8014,-1.7399,-1.732,-1.8227,-1.8049,-1.6339,-1.7962,-1.9508,-1.7683,-1.6353,-1.4617,-0.4128,-0.4127,-0.4073,-0.4407,-0.4911,-0.5261,-0.5491,-0.5602,-0.5538,-0.5136,-0.4491,-0.4546,-0.4429,-0.423,-0.4149,-0.4159,-0.4284,-0.4234,-0.4364,-0.4707,-0.4923,-0.5265,-0.5733,-0.6118,-0.6419,-0.668,-0.6894,-0.6975,-0.6975,-0.6975,-0.6892,-0.6736,-0.6777,-0.6908,-0.7101,-0.6828,-0.6396,-0.5731,-0.4915,-0.4469,-0.4358,-0.5104,-0.5723,-0.6102,-0.6441,-0.6537,-0.6344,-0.6355,-0.6241,-0.602,-0.6196,-0.6444,-0.6777,-0.6823,-0.7224,0.0,0.0,0.0,0.0,0.0,0.0,0.0,0.0,0.0,0.0,0.0,-1.1362,-1.1799,-1.2492,-1.2895,-1.2847,-1.3454,-1.369,-1.3352,-1.3662,-1.3745,-1.3343,-1.3763,-1.4037,-1.3934,-1.4188,-1.4497,-1.4809,-1.4133,-1.3488,-1.3123,-1.2951,-1.2954,-1.3242,-1.317,-1.2925,-1.2493,-1.2238,-1.2031,-1.192,-1.1015,-1.0188,-0.99,-1.0525,-1.1576,-1.2862,-1.352,-1.3775,-1.3388,-1.4261,-1.4336,-1.2434,-1.5631,-1.7263,-1.453,-1.5382,-1.6663,-1.5727,-1.4249,-1.2266,-0.3459,-0.3461,-0.3459,-0.3458,-0.3506,-0.4314,-0.4606,-0.4526,-0.4332,-0.4211,-0.404,-0.3922,-0.3902,-0.3836,-0.3882,-0.3928,-0.4064,-0.4064,-0.415,-0.4272,-0.4663,-0.4879,-0.4961,-0.5736,-0.6161,-0.6298,-0.6677,-0.6937,-0.6975,-0.6975,-0.6975,-0.6975,-0.6939,-0.6987,-0.6962,-0.673,-0.6327,-0.5772,-0.4796,-0.4346,-0.4558,-0.4925,-0.5433,-0.6005,-0.6223,-0.6322,-0.6355,-0.6227,-0.6099,-0.6016,-0.6102,-0.6307,-0.6644,-0.6518,-0.689,0.0,-0.8561,0.0,0.0,0.0,0.0,0.0,0.0,0.0,0.0,-1.1217,-1.1805,-1.2431,-1.3289,-1.3655,-1.3192,-1.3904,-1.4267,-1.4081,-1.4231,-1.4144,-1.3537,-1.3827,-1.3886,-1.3382,-1.3689,-1.4027,-1.4201,-1.3509,-1.2713,-1.2086,-1.167,-1.1681,-1.2181,-1.2037,-1.1562,-1.0829,-1.0498,-1.0201,-0.9917,-0.9011,-0.7982,-0.7411,-0.7693,-0.8526,-0.9915,-1.0118,-0.9413,-0.7809,-0.9855,-1.0651,-0.6091,-1.1842,-1.5323,-1.1438,-1.2538,-1.3976,-1.3236,-1.1415,-0.9453,-0.2847,-0.2847,-0.2735,-0.2734,-0.2732,-0.3104,-0.3582,-0.4093,-0.3811,-0.3715,-0.3757,-0.38,-0.3729,-0.367,-0.3706,-0.3744,-0.379,-0.3882,-0.3928,-0.3966,-0.4056,-0.4314,-0.4661,-0.4831,-0.5394,-0.6179,-0.631,-0.6559,-0.6975,-0.6975,-0.6975,-0.6975,-0.679,-0.6787,-0.6952,0.0,0.0,0.0,-0.4538,-0.4383,-0.4745,-0.5504,-0.5994,-0.6245,-0.6312,0.0,-0.6224,-0.6007,-0.5876,-0.5836,-0.597,0.0,0.0,0.0,0.0,0.0,0.0,0.0,0.0,0.0,0.0,0.0,-0.9788,-1.0166,-1.0644,-1.1468,-1.2113,-1.2425,-1.3021,-1.312,-1.2419,-1.3872,-1.4249,-1.2796,-1.3913,-1.4357,-1.3156,-1.364,-1.3934,-1.3516,-1.3547,-1.3712,-1.391,-1.3206,-1.223,-1.1311,-1.1042,-1.1051,-1.1169,-1.0836,-1.0387,-0.9928,-0.895,-0.7898,-0.7442,-0.6736,-0.6211,-0.6166,-0.6044,-0.6299,-0.6896,-0.6382,-0.5672,-0.4428,-0.4741,-0.462,-0.3141,-0.6346,-0.8606,-0.7498,-0.9374,-1.1072,-1.0641,-0.8336,-0.6097,-0.224,-0.2183,-0.2072,-0.2014,0.0,-0.1958,-0.2405,-0.3011,-0.3067,-0.3203,-0.3414,-0.3414,-0.3482,-0.3583,-0.3694,-0.3726,-0.3699,-0.3744,-0.3836,-0.3926,-0.3926,-0.4012,-0.427,-0.4484,-0.4877,-0.5402,-0.5661,-0.6002,-0.651,-0.6504,-0.6595,-0.6816,-0.6725,-0.6728,-0.6859,-0.6476,-0.5999,-0.5343,-0.4865,-0.473,-0.5019,-0.5345,-0.5811,-0.6276,-0.6049,0.0,0.0,0.0,0.0,0.0,0.0,0.0,0.0,-0.6422,0.0,-0.781,-0.8144,-0.8602,-0.9244,-0.943,-0.9519,-0.9599,-0.9867,-1.0361,-1.1057,-1.1726,-1.2252,-1.2478,-1.2904,-1.2986,-1.2594,-1.3449,-1.3738,-1.3033,-1.3749,-1.3996,-1.3367,-1.3533,-1.363,-1.3194,-1.3123,-1.3197,-1.3338,-1.2663,-1.1665,-1.0501,-1.0098,-0.9958,-0.9776,-0.9679,-0.9469,-0.8828,-0.7365,-0.6233,-0.5884,-0.4945,-0.4048,-0.3722,-0.3495,-0.3428,-0.3432,-0.2705,-0.1249,0.1382,0.264,0.3326,0.4221,0.1747,-0.1269,-0.2806,-0.5635,-0.7602,-0.7129,-0.5347,-0.388,-0.1684,-0.1572,-0.1515,-0.1403,-0.1234,-0.1009,-0.1173,-0.1664,-0.238,0.0,0.0,-0.2984,-0.3158,-0.3498,-0.3609,-0.3638,-0.3702,-0.37,-0.3748,-0.384,-0.3838,-0.384,-0.3884,-0.4228,-0.4489,-0.457,-0.4957,-0.5392,-0.5865,-0.595,-0.6215,-0.6578,-0.6715,-0.6764,-0.6666,-0.6322,-0.6013,-0.5741,-0.5224,-0.5052,-0.5165,-0.5083,-0.5408,-0.6182,-0.5699,-0.5423,-0.5478,-0.4975,-0.4842,-0.5137,-0.527,-0.5577,-0.6093,-0.6295,-0.6842,-0.7682,-0.8062,-0.8553,-0.9244,-0.9421,-0.9603,-0.9678,-0.9936,-1.0423,-1.1212,-1.1653,-1.2054,-1.2354,-1.2632,-1.2739,-1.2605,-1.2911,-1.3163,-1.33,-1.3547,-1.3603,-1.3419,-1.3451,-1.3288,-1.2824,-1.2668,-1.2639,-1.2709,-1.2039,-1.0988,-0.9632,-0.909,-0.8638,-0.8211,-0.8269,-0.8212,-0.7508,-0.6217,-0.5109,-0.4737,-0.3839,-0.2399,-0.129,-0.1104,-0.0791,-0.0043,0.0774,0.3251,0.7281,0.8928,0.9734,1.1431,0.8778,0.5357,0.2179,-0.143,-0.4069,-0.352,-0.2561,-0.1949,-0.1628,-0.1572,-0.1291,-0.1178,-0.1066,-0.0449,-0.0221,-0.0429,-0.1923,-0.2516,-0.2345,-0.2476,-0.2693,-0.2988,-0.3007,-0.3231,-0.3578,-0.3622,-0.3624,-0.3667,-0.367,-0.367,-0.367,-0.3713,-0.401,-0.4389,-0.4478,-0.4824,-0.5389,-0.5779,-0.6039,-0.6173,-0.6578,-0.6715,-0.662,-0.6623,-0.641,-0.5973,-0.5193,-0.4916,-0.5098,-0.5219,-0.5431,-0.5729,-0.5607,-0.5409,-0.5308,-0.4751,-0.4497,-0.4539,-0.4663,-0.5048,-0.5741,-0.5825,-0.6419,-0.7739,-0.7987,-0.8431,-0.9244,-0.955,-0.9683,-0.9723,-0.9941,-1.0157,-1.0312,-1.0616,-1.1002,-1.1437,-1.1794,-1.1785,-1.1474,-1.2374,-1.27,-1.2091,-1.2941,-1.3451,-1.2944,-1.3179,-1.3227,-1.274,-1.2419,-1.2291,-1.246,-1.1448,-0.9969,-0.8593,-0.8085,-0.7649,-0.6573,-0.6331,-0.6395,-0.6232,-0.542,-0.4519,-0.3688,-0.3145,-0.1753,-0.0045,0.0266,0.0708,0.1748,0.3116,0.5476,0.918,0.9921,1.0871,1.275,1.2473,0.9617,0.5773,0.3119,0.1685,-0.0159,-0.0121,0.0244,-0.1403,-0.1291,-0.1178,-0.0897,-0.0449,0.0224,0.0499,0.0381,-0.0682,-0.1401,-0.1812,-0.1951,-0.2324,-0.2865,-0.2967,-0.3239,-0.358,-0.358,-0.358,-0.358,-0.358,-0.358,-0.358,-0.358,-0.3751,-0.3966,-0.3965,-0.4358,-0.5089,-0.5163,-0.5556,-0.6179,-0.6227,-0.6042,-0.576,-0.5996,-0.6056,-0.5838,-0.5583,-0.5496,-0.5585,-0.5315,-0.5486,-0.6087,-0.5575,-0.5183,-0.5135,-0.462,-0.4366,-0.4366,-0.4405,-0.4705,-0.5265,-0.5567,-0.6118,-0.7091,-0.7686,-0.83,-0.899,-0.9466,-0.9718,-0.9718,-0.9793,-0.9779,-0.9536,-1.0191,-1.0672,-1.0836,-1.0966,-1.0924,-1.07,-1.142,-1.1793,-1.1522,-1.2313,-1.2759,-1.2729,-1.2668,-1.2624,-1.2376,-1.1783,-1.1597,-1.1994,-1.0656,-0.9011,-0.7404,-0.6935,-0.6228,-0.4776,-0.4559,-0.4742,-0.4955,-0.3572,-0.2219,-0.1739,-0.0991,-0.0,0.1071,0.1782,0.2572,0.3651,0.5097,0.7287,1.0192,1.131,1.2663,1.4632,1.5081,1.3231,1.0784,1.0971,0.9445,0.4749,0.2293,0.1578,-0.0897,-0.0672,-0.0672,-0.028,0.0448,0.0783,0.0891,0.0825,0.0313,-0.0448,-0.1291,-0.1418,-0.189,-0.2557,-0.277,-0.3084,-0.3361,-0.3534,-0.358,-0.358,-0.358,-0.358,-0.358,-0.358,-0.358,-0.358,-0.3621,-0.401,-0.4746,-0.4728,-0.5255,-0.6239,-0.5924,-0.5374,-0.474,-0.5247,-0.561,-0.5701,-0.5841,-0.5933,-0.5933,-0.5488,-0.5529,-0.6044,-0.544,-0.4966,-0.4836,-0.4403,-0.4144,-0.4142,-0.4144,-0.4362,-0.4836,-0.5305,-0.5819,-0.6452,-0.7422,-0.8308,-0.8954,-0.9421,-0.9643,-0.9554,-0.9639,-0.9519,-0.9141,-0.9848,-1.037,-1.0311,-1.0331,-1.0326,-1.0301,-1.058,-1.0921,-1.1324,-1.1632,-1.2002,-1.2305,-1.215,-1.192,-1.1752,-1.1132,-1.0817,-1.0819,-0.9779,-0.8113,-0.6499,-0.5548,-0.465,-0.3739,-0.3296,-0.3393,-0.353,-0.1959,-0.0134,0.0401,0.1114,0.1785,0.2187,0.3211,0.4214,0.528,0.6481,0.837,1.0986,1.2558,1.3888,1.5876,1.6531,1.5493,1.3406,1.5218,1.5657,0.7888,0.5486,0.3691,-0.0,0.0503,0.0615,0.1062,0.151,0.1118,0.0936,0.0859,0.0265,-0.0306,-0.0816,-0.0828,-0.1084,-0.1567,-0.2022,-0.2421,-0.2807,-0.335,-0.358,-0.358,-0.358,-0.358,-0.358,-0.358,-0.358,-0.3622,-0.3605,-0.3865,-0.4401,-0.5034,-0.5698,-0.6297,-0.5924,-0.5022,-0.3999,-0.4635,-0.5265,-0.5701,-0.5701,-0.5744,-0.5744,-0.5701,-0.5478,-0.5135,-0.505,-0.4792,-0.4391,-0.3928,-0.3668,-0.3668,-0.3667,-0.3884,-0.436,-0.4792,-0.5435,-0.6243,-0.7384,-0.8472,-0.947,-0.9683,-0.9515,-0.9145,-0.9475,-0.9479,-0.902,-0.9466,-0.9776,-0.9746,-0.9925,-1.0083,-1.0103,-1.0312,-1.0582,-1.0954,-1.111,-1.118,-1.1553,-1.159,-1.1383,-1.0961,-1.0469,-1.0269,-1.0119,-0.883,-0.7193,-0.5527,-0.4418,-0.3654,-0.3532,-0.2775,-0.2286,-0.2875,-0.1523,0.0537,0.1971,0.2639,0.2858,0.3442,0.4453,0.5356,0.6307,0.7423,0.9068,1.113,1.273,1.404,1.5285,1.6077,1.5703,1.4785,1.5984,1.6932,1.1248,0.9165,0.7623,0.0615,0.0838,0.0894,0.123,0.179,0.1903,0.1777,0.1369,0.0805,0.0209,-0.0355,-0.0623,-0.1011,-0.1435,-0.1877,-0.25,-0.317,-0.3486,-0.358,-0.358,-0.358,-0.358,-0.358,-0.358,-0.358,-0.358,-0.3615,-0.3831,-0.4358,-0.5176,-0.5653,-0.5747,-0.5437,-0.4726,-0.3754,-0.4256,-0.4659,-0.4874,-0.5137,-0.5262,-0.5267,-0.5308,-0.5181,-0.5007,-0.4746,-0.4431,-0.4176,-0.4042,-0.384,-0.3458,-0.3527,-0.3665,-0.3886,-0.4318,-0.4877,-0.5561,-0.7085,-0.8353,-0.9221,-0.9266,-0.9226,-0.9016,-0.9181,-0.9016,-0.8349,-0.889,-0.9105,-0.8696,-0.9421,-1.0019,-1.0083,-1.0423,-1.0731,-1.0926,-1.126,-1.1496,-1.1479,-1.1041,-1.0636,-1.0397,-0.942,-0.898,-0.905,-0.7524,-0.5739,-0.4581,-0.3796,-0.3491,-0.2868,-0.2152,-0.1523,-0.0895,-0.0045,0.0985,0.2516,0.2916,0.3219,0.3972,0.5181,0.6367,0.69,0.7977,0.943,1.1322,1.2622,1.3776,1.4826,1.5757,1.5944,1.5547,1.4976,1.5331,1.2567,1.1579,0.9778,0.123,0.1398,0.1398,0.1622,0.2071,0.2353,0.2128,0.1507,0.0928,0.0321,-0.0209,-0.0646,-0.0942,-0.1262,-0.1833,-0.2502,-0.3168,-0.3442,-0.358,-0.358,-0.358,-0.358,-0.358,-0.358,-0.358,-0.3622,-0.3609,-0.3907,-0.4515,-0.5308,-0.561,-0.5386,-0.5007,-0.4395,-0.369,-0.3963,-0.4186,-0.4316,-0.4661,-0.4833,-0.4836,-0.4792,-0.4792,-0.4792,-0.4491,-0.4168,-0.3919,-0.4034,-0.3916,-0.3424,-0.3519,-0.358,-0.3624,-0.4058,-0.4615,-0.543,-0.6923,-0.8103,-0.872,-0.8765,-0.8728,-0.8679,-0.8724,-0.8521,-0.8013,-0.839,-0.8521,-0.8103,-0.8918,-0.9571,-0.9765,-1.0099,-1.0326,-1.0413,-1.0838,-1.1028,-1.0753,-1.0108,-0.9626,-0.9424,-0.8257,-0.7454,-0.7532,-0.5901,-0.4138,-0.3524,-0.3357,-0.3455,-0.2331,-0.1614,-0.0358,0.1299,0.1522,0.2013,0.2918,0.2997,0.3341,0.4578,0.6015,0.7376,0.7585,0.8609,0.9814,1.1522,1.2669,1.3637,1.4526,1.5409,1.6055,1.6217,1.5897,1.5278,1.4671,1.3882,1.328,0.2072,0.2578,0.2578,0.2522,0.2634,0.2069,0.1509,0.095,0.0335,-0.0216,-0.0665,-0.0755,-0.0773,-0.0813,-0.1661,-0.2095,-0.2314,-0.3168,-0.3578,-0.358,-0.358,-0.358,-0.358,-0.358,-0.358,-0.3621,-0.359,-0.4046,-0.4907,-0.5417,-0.5623,-0.5331,-0.4714,-0.4102,-0.3663,-0.3667,-0.384,-0.423,-0.4274,-0.4316,-0.4318,-0.4316,-0.4314,-0.4316,-0.4272,-0.4045,-0.3686,-0.3661,-0.3615,-0.3566,-0.3614,-0.3624,-0.3622,-0.4058,-0.4959,-0.624,-0.7014,-0.7659,-0.814,-0.8259,-0.8136,-0.7886,-0.8148,-0.8148,-0.7727,-0.8066,-0.8234,-0.8238,-0.8345,-0.8549,-0.8716,-0.8981,-0.911,-0.9164,-0.9132,-0.9204,-0.9128,-0.871,-0.8244,-0.7871,-0.7109,-0.6331,-0.5517,-0.4007,-0.3073,-0.254,-0.2009,-0.1701,-0.2199,-0.0627,0.1119,0.2377,0.3139,0.3672,0.3714,0.3473,0.3853,0.5043,0.6773,0.8595,0.8924,0.938,1.0563,1.1617,1.2566,1.3457,1.4292,1.4955,1.5468,1.5997,1.6868,1.6624,1.5955,1.7408,1.689,0.2284,0.2128,0.2128,0.1903,0.1563,0.1587,0.1208,0.0558,0.0548,0.0054,-0.0751,-0.0824,-0.0795,-0.0774,-0.1054,-0.1518,-0.2141,-0.308,-0.3532,-0.3578,-0.3488,-0.3532,-0.358,-0.358,-0.358,-0.3621,-0.3607,-0.3991,-0.4602,-0.479,-0.4751,-0.467,-0.4449,-0.4056,-0.3665,-0.358,-0.3711,-0.3842,-0.3842,-0.3842,-0.3884,-0.384,-0.384,-0.384,-0.384,-0.3705,-0.3478,-0.3827,-0.388,-0.3437,-0.3825,-0.3928,-0.3711,-0.4318,-0.5137,-0.5993,-0.6807,-0.7395,-0.7679,-0.7727,-0.7765,-0.772,-0.7848,-0.7675,-0.7436,-0.7644,-0.7807,-0.7513,-0.7214,-0.7175,-0.7474,-0.8166,-0.874,-0.8533,-0.8302,-0.8171,-0.7963,-0.7351,-0.6799,-0.6761,-0.6209,-0.5338,-0.414,-0.2361,-0.1562,-0.2284,-0.0402,0.076,0.0716,0.1164,0.188,0.3047,0.3675,0.3981,0.4539,0.4164,0.4322,0.5602,0.7064,0.8135,0.8777,0.9468,1.0525,1.1467,1.2425,1.3272,1.4083,1.4833,1.527,1.591,1.6773,1.6963,1.6707,1.7611,1.7732,0.2401,0.185,0.179,0.151,0.1113,0.108,0.0918,0.0604,0.0532,-0.0,-0.0634,-0.0709,-0.064,-0.0677,-0.0642,-0.0983,-0.174,-0.2858,-0.3488,-0.3486,-0.3442,-0.3532,-0.3578,-0.358,-0.358,-0.3622,-0.3755,-0.4058,-0.4447,-0.436,-0.432,-0.432,-0.4142,-0.3928,-0.3667,-0.358,-0.358,-0.358,-0.358,-0.3624,-0.358,-0.358,-0.358,-0.358,-0.358,-0.3578,-0.3471,-0.3868,-0.3878,-0.3538,-0.3825,-0.4016,-0.393,-0.4574,-0.5224,-0.5782,-0.6513,-0.6971,-0.7035,-0.7009,-0.7064,-0.723,-0.7038,-0.6829,-0.6642,-0.679,-0.6653,-0.6372,-0.6219,-0.6091,-0.6402,-0.7228,-0.7826,-0.7619,-0.7376,-0.7203,-0.7009,-0.6223,-0.5676,-0.5449,-0.5106,-0.4384,-0.336,-0.1385,-0.0537,-0.1075,0.1434,0.2833,0.3148,0.2781,0.2592,0.3799,0.4154,0.4541,0.4961,0.4847,0.501,0.6158,0.7073,0.8044,0.8826,0.96,1.0431,1.1335,1.2229,1.3057,1.3875,1.4631,1.5233,1.5756,1.6242,1.6561,1.6803,1.7353,1.7492,0.2352,0.1842,0.179,0.1563,0.1164,0.0537,0.0638,0.085,0.0103,-0.03,-0.0396,-0.0385,-0.0379,-0.0411,-0.0407,-0.0536,-0.1114,-0.2678,-0.3399,-0.326,-0.3442,-0.3534,-0.3578,-0.3534,-0.3578,-0.358,-0.4012,-0.4308,-0.4382,-0.431,-0.4232,-0.4188,-0.3842,-0.3667,-0.358,-0.358,-0.358,-0.358,-0.358,-0.358,-0.358,-0.358,-0.358,-0.358,-0.358,-0.3619,-0.361,-0.3661,-0.3707,-0.3612,-0.3661,-0.3842,-0.4316,-0.4751,-0.5221,-0.5747,-0.6187,-0.6324,-0.6166,-0.6136,-0.6262,-0.6253,-0.5838,-0.5751,-0.5838,-0.5611,-0.5386,-0.5362,-0.537,-0.5492,-0.5655,-0.5895,-0.6118,-0.6176,-0.6283,-0.6189,-0.5802,-0.5376,-0.4737,-0.4058,-0.3897,-0.3633,-0.2739,-0.094,0.0671,0.1929,0.2607,0.3146,0.3684,0.3541,0.3937,0.4464,0.4806,0.5055,0.5338,0.566,0.6052,0.6615,0.7384,0.823,0.8846,0.957,1.0407,1.1303,1.2342,1.3204,1.3881,1.4589,1.4826,1.5308,1.5745,1.6242,1.6688,1.7124,1.7472,0.2268,0.163,0.1608,0.0882,-0.0108,-0.0417,-0.0364,-0.0159,-0.02,-0.0099,-0.0102,-0.0098,-0.0096,-0.0192,-0.0323,-0.0492,-0.0846,-0.2366,-0.3132,-0.3171,-0.3214,-0.326,-0.3306,-0.335,-0.3352,-0.3486,-0.3619,-0.3746,-0.3877,-0.3838,-0.3797,-0.3753,-0.3667,-0.3624,-0.358,-0.358,-0.358,-0.358,-0.358,-0.358,-0.358,-0.358,-0.358,-0.358,-0.358,-0.358,-0.3624,-0.3928,-0.393,-0.3622,-0.3928,-0.4318,-0.4703,-0.492,-0.5356,-0.6102,-0.6279,-0.6208,-0.5914,-0.5904,-0.5871,-0.5736,-0.5614,-0.5578,-0.5506,-0.5352,-0.5209,-0.5066,-0.5005,-0.4987,-0.4981,-0.4669,-0.4769,-0.5338,-0.5467,-0.5211,-0.4657,-0.4268,-0.4018,-0.3814,-0.3462,-0.3148,-0.2335,-0.0268,0.202,0.2697,0.2921,0.3141,0.3315,0.3753,0.3963,0.4615,0.5046,0.5612,0.5984,0.6228,0.6482,0.7053,0.7784,0.8316,0.8922,0.9505,1.035,1.1393,1.2431,1.3255,1.3926,1.4428,1.4744,1.4929,1.5359,1.5867,1.6385,1.6801,1.7167,0.2252,0.1603,0.1525,0.0651,-0.0688,-0.0809,-0.0764,-0.0523,-0.0194,-0.0388,-0.0951,-0.1104,-0.085,-0.062,-0.0688,-0.0627,-0.0623,-0.2143,-0.2957,-0.313,-0.3255,-0.3255,-0.3258,-0.348,-0.3568,-0.3615,-0.3704,-0.3707,-0.358,-0.358,-0.3624,-0.3624,-0.358,-0.358,-0.358,-0.358,-0.358,-0.358,-0.358,-0.358,-0.358,-0.358,-0.358,-0.358,-0.358,-0.358,-0.3624,-0.3884,-0.3882,-0.3709,-0.3882,-0.4232,-0.4661,-0.4923,-0.5356,-0.597,-0.6261,-0.616,-0.5658,-0.5616,-0.5482,-0.5153,-0.503,-0.4917,-0.4779,-0.4729,-0.4603,-0.4406,-0.4295,-0.4233,-0.4153,-0.3894,-0.3876,-0.4252,-0.448,-0.4403,-0.3889,-0.322,-0.3093,-0.3191,-0.3151,-0.2291,-0.0492,0.0895,0.3015,0.3145,0.323,0.344,0.3612,0.4089,0.4609,0.513,0.5693,0.6255,0.6729,0.6846,0.6875,0.7492,0.8202,0.8594,0.9029,0.9469,1.0191,1.156,1.2683,1.3293,1.3957,1.446,1.4824,1.4948,1.5101,1.544,1.5945,1.6533,1.691,0.236,0.1863,0.1651,0.0853,-0.0317,-0.0695,-0.0502,-0.0104,-0.0286,-0.1258,-0.248,-0.2592,-0.2263,-0.1627,-0.1534,-0.1163,-0.0668,-0.2053,-0.2911,-0.3043,-0.3304,-0.348,-0.3304,-0.3743,-0.3877,-0.388,-0.4056,-0.3972,-0.3624,-0.358,-0.358,-0.358,-0.358,-0.3578,-0.3532,-0.3578,-0.3578,-0.3488,-0.3578,-0.358,-0.358,-0.358,-0.358,-0.358,-0.3534,-0.3488,-0.3488,-0.3532,-0.3576,-0.358,-0.3624,-0.3886,-0.4316,-0.4751,-0.514,-0.5612,-0.6102,-0.5834,-0.5372,-0.5015,-0.4793,-0.4328,-0.3971,-0.3688,-0.3707,-0.367,-0.3581,-0.3373,-0.346,-0.3436,-0.3322,-0.319,-0.3154,-0.2964,-0.321,-0.3491,-0.3552,-0.2329,-0.1882,-0.2154,-0.2336,-0.1389,0.1839,0.2607,0.319,0.3544,0.3718,0.406,0.4532,0.4874,0.5575,0.6004,0.634,0.6764,0.7192,0.72,0.7276,0.7814,0.8516,0.8935,0.9408,0.9894,1.0512,1.1841,1.2851,1.3413,1.3969,1.4537,1.4911,1.5043,1.5159,1.5197,1.557,1.6196,1.6714,0.2798,0.2501,0.2449,0.1437,-0.0,-0.0203,-0.0204,-0.021,-0.1562,-0.2354,-0.2884,-0.2879,-0.2751,-0.2528,-0.2456,-0.2333,-0.228,-0.2639,-0.2911,-0.2957,-0.3311,-0.344,-0.3439,-0.3748,-0.3924,-0.379,-0.3875,-0.375,-0.3622,-0.3578,-0.358,-0.358,-0.358,-0.3442,-0.317,-0.3442,-0.3396,-0.317,-0.3442,-0.3578,-0.358,-0.3578,-0.358,-0.3578,-0.326,-0.3078,-0.3078,-0.3078,-0.326,-0.3578,-0.3624,-0.3797,-0.423,-0.4412,-0.4718,-0.5137,-0.5303,-0.5139,-0.4624,-0.4244,-0.3867,-0.3363,-0.3135,-0.2955,-0.3088,-0.3055,-0.2977,-0.2876,-0.2987,-0.2957,-0.2722,-0.2364,-0.1789,-0.115,-0.164,-0.2004,-0.188,-0.1702,-0.0806,0.0895,0.1164,0.1568,0.1927,0.2912,0.3631,0.3847,0.4062,0.4364,0.4879,0.5351,0.583,0.638,0.6803,0.7227,0.7516,0.7518,0.7721,0.8177,0.8748,0.9306,1.0016,1.0799,1.1524,1.2549,1.3151,1.3743,1.4276,1.4846,1.5008,1.5131,1.5208,1.5285,1.5535,1.6027,1.6477,0.3017,0.2872,0.2393,0.1541,0.0582,0.0154,-0.0464,-0.1365,-0.2569,-0.3091,-0.2943,-0.3032,-0.3009,-0.2883,-0.2912,-0.2917,-0.2916,-0.2911,-0.2911,-0.2957,-0.3399,-0.3663,-0.3836,-0.4012,-0.401,-0.3919,-0.3957,-0.3834,-0.3621,-0.3534,-0.3534,-0.358,-0.358,-0.335,-0.2987,-0.3124,-0.317,-0.2988,-0.317,-0.3396,-0.3578,-0.3396,-0.3306,-0.3216,-0.2855,-0.2586,-0.2542,-0.2588,-0.2722,-0.3005,-0.3401,-0.3727,-0.3753,-0.417,-0.4483,-0.4723,-0.4874,-0.4733,-0.4073,-0.3731,-0.3351,-0.2829,-0.2554,-0.2586,-0.2683,-0.2679,-0.2623,-0.2476,-0.2521,-0.2395,-0.2054,-0.1632,-0.0923,-0.0211,-0.0172,-0.0131,0.0312,0.0089,0.0761,0.2289,0.3193,0.3234,0.2506,0.3485,0.406,0.4324,0.4541,0.4838,0.5221,0.5607,0.6079,0.6758,0.7224,0.7603,0.7987,0.8039,0.8334,0.8788,0.9556,0.9978,1.0606,1.152,1.2098,1.2818,1.3448,1.4,1.4415,1.4843,1.5096,1.5219,1.5273,1.541,1.5638,1.593,1.6378,0.3186,0.3151,0.2021,0.1436,0.1063,0.0309,-0.1032,-0.2697,-0.3215,-0.3251,-0.2991,-0.3149,-0.3081,-0.2921,-0.2956,-0.2963,-0.2911,-0.2911,-0.2911,-0.3043,-0.3396,-0.3794,-0.4058,-0.4186,-0.414,-0.4003,-0.4216,-0.3961,-0.3573,-0.3396,-0.3442,-0.3488,-0.3532,-0.3263,-0.2947,-0.2946,-0.2898,-0.2764,-0.2988,-0.3304,-0.3442,-0.3214,-0.2946,-0.2632,-0.2277,-0.201,-0.1966,-0.1966,-0.201,-0.1966,-0.3005,-0.3213,-0.301,-0.3788,-0.4055,-0.4037,-0.4172,-0.4077,-0.3553,-0.324,-0.2992,-0.239,-0.218,-0.2258,-0.2218,-0.2213,-0.2145,-0.2085,-0.202,-0.1682,-0.1114,-0.0976,-0.0328,0.0611,0.1115,0.1792,0.2526,0.2107,0.1835,0.2769,0.3699,0.3922,0.4049,0.4306,0.4778,0.4961,0.5181,0.5483,0.5825,0.6212,0.6719,0.7308,0.7727,0.8021,0.8361,0.8655,0.903,0.9469,1.0407,1.1031,1.1345,1.2006,1.2443,1.2982,1.3467,1.3868,1.4273,1.4634,1.5049,1.5241,1.531,1.5455,1.566,1.6037,1.6429,0.3512,0.3481,0.3233,0.2,0.0438,0.0052,-0.1135,-0.2866,-0.2997,-0.3052,-0.2945,-0.2985,-0.2976,-0.2915,-0.2908,-0.2889,-0.2915,-0.2911,-0.2911,-0.2911,-0.3,-0.3309,-0.3661,-0.4056,-0.4096,-0.3827,-0.3737,-0.3609,-0.3347,-0.326,-0.326,-0.326,-0.3307,-0.3038,-0.2636,-0.2865,-0.2729,-0.2276,-0.2858,-0.3396,-0.3445,-0.3081,-0.2544,-0.2008,-0.1699,-0.1389,-0.1166,-0.1344,-0.1344,-0.1348,-0.1849,-0.2394,-0.238,-0.2574,-0.2757,-0.2777,-0.2762,-0.2717,-0.241,-0.2186,-0.1825,-0.1618,-0.1289,-0.1105,-0.1582,-0.1505,-0.1578,-0.1654,-0.1535,-0.0918,-0.0,0.0236,0.0799,0.1622,0.2151,0.268,0.3448,0.2722,0.2428,0.3016,0.3464,0.3614,0.39,0.4455,0.4966,0.546,0.5808,0.6121,0.6456,0.6745,0.7314,0.7852,0.8062,0.8394,0.8922,0.9248,0.9707,1.0128,1.103,1.1735,1.2085,1.2419,1.2855,1.3132,1.3412,1.3762,1.3985,1.4675,1.5105,1.5231,1.5371,1.5573,1.5818,1.6136,1.6498,0.3585,0.3585,0.3586,0.2877,0.1449,-0.0648,-0.1898,-0.2288,-0.2859,-0.3025,-0.2957,-0.2995,-0.2974,-0.2921,-0.2922,-0.2932,-0.2921,-0.2911,-0.2911,-0.2954,-0.3044,-0.3133,-0.3222,-0.3617,-0.3746,-0.3524,-0.3524,-0.3347,-0.3123,-0.3078,-0.3078,-0.308,-0.3174,-0.2954,-0.2415,-0.2553,-0.2013,-0.1518,-0.2368,-0.3222,-0.3452,-0.2815,-0.2055,-0.1387,-0.1121,-0.0942,-0.0764,-0.0943,-0.0943,-0.0898,-0.1166,-0.1567,-0.1844,-0.2046,-0.2188,-0.2105,-0.2098,-0.1966,-0.1788,-0.1519,-0.1242,-0.0828,-0.054,-0.0525,-0.0668,-0.0668,-0.081,-0.0935,-0.0753,-0.0303,0.0643,0.1281,0.1815,0.2284,0.2987,0.3552,0.3762,0.3257,0.3027,0.3749,0.4141,0.4242,0.4461,0.4861,0.5233,0.5743,0.6059,0.6362,0.6717,0.7059,0.7773,0.8222,0.8394,0.8765,0.9364,0.9873,1.036,1.0852,1.1536,1.209,1.2467,1.2826,1.3185,1.3357,1.348,1.3321,1.3618,1.4367,1.5101,1.5333,1.5492,1.5697,1.594,1.6246,1.6657,0.342,0.3599,0.3606,0.3611,0.2813,-0.1447,-0.2859,-0.2061,-0.2751,-0.3008,-0.2921,-0.3005,-0.2817,-0.283,-0.2914,-0.2949,-0.2891,-0.2911,-0.2911,-0.2909,-0.3133,-0.309,-0.309,-0.3222,-0.3352,-0.3355,-0.3307,-0.3127,-0.2991,-0.2948,-0.2993,-0.295,-0.309,-0.2958,-0.2508,-0.2151,-0.1568,-0.0805,-0.1697,-0.264,-0.3096,-0.2506,-0.179,-0.0942,-0.0764,-0.0719,-0.0675,-0.0764,-0.0719,-0.0719,-0.0719,-0.0898,-0.1311,-0.1748,-0.2094,-0.1879,-0.1788,-0.1521,-0.1163,-0.1072,-0.0794,-0.0085,-0.0084,-0.0083,0.008,-0.0039,-0.0196,-0.0235,-0.0157,0.0192,0.0852,0.1616,0.2197,0.2692,0.3603,0.4029,0.4034,0.3925,0.4158,0.4377,0.4489,0.4512,0.489,0.5328,0.5658,0.5982,0.6329,0.6686,0.7043,0.7423,0.8051,0.859,0.8765,0.9159,0.9755,1.0239,1.0764,1.1345,1.1957,1.2354,1.2797,1.311,1.3357,1.3397,1.3435,1.3362,1.3545,1.4237,1.4847,1.53,1.558,1.5726,1.5996,1.6328,1.6735,0.2686,0.3588,0.3604,0.3611,0.2801,-0.1526,-0.3378,-0.3198,-0.2792,-0.2744,-0.2683,-0.2449,-0.2331,-0.2344,-0.2747,-0.2884,-0.2869,-0.2865,-0.2865,-0.2909,-0.3,-0.2955,-0.2955,-0.3001,-0.3043,-0.3,-0.2998,-0.2953,-0.2908,-0.2909,-0.2911,-0.2911,-0.2866,-0.278,-0.2787,-0.2609,-0.1614,-0.0627,-0.1341,-0.2102,-0.2514,-0.2286,-0.1747,-0.0809,-0.0629,-0.0629,-0.0675,-0.0675,-0.0719,-0.0719,-0.0719,-0.0719,-0.081,-0.0997,-0.104,-0.099,-0.0987,-0.0807,-0.0403,-0.0268,-0.0,0.044,0.0645,0.0548,0.0454,0.0404,0.0365,0.0163,0.0402,0.0857,0.1698,0.2283,0.2789,0.3353,0.385,0.4366,0.4786,0.4848,0.4695,0.4672,0.4663,0.4777,0.5242,0.5739,0.6145,0.6465,0.6771,0.7271,0.7819,0.802,0.8309,0.8765,0.9092,0.9597,1.0147,1.0592,1.1056,1.1653,1.2204,1.2597,1.2959,1.331,1.3486,1.3715,1.3729,1.3664,1.396,1.4353,1.4895,1.5506,1.5632,1.5733,1.6024,1.632,1.6625,0.241,0.1959,0.2132,0.1853,0.0892,-0.1299,-0.2587,-0.2732,-0.2538,-0.2397,-0.2354,-0.2174,-0.211,-0.2155,-0.2334,-0.2556,-0.2686,-0.2639,-0.2729,-0.2821,-0.2911,-0.2911,-0.2911,-0.2911,-0.2911,-0.2911,-0.2911,-0.2911,-0.2911,-0.2911,-0.287,-0.2739,-0.2422,-0.2377,-0.2516,-0.1796,-0.1346,-0.0762,-0.1298,-0.2062,-0.2569,-0.2065,-0.0987,-0.0853,-0.0629,-0.0629,-0.0629,-0.0314,-0.0404,-0.0539,-0.0224,-0.0179,-0.0314,-0.0538,-0.0583,-0.0359,-0.0224,-0.0045,0.0268,0.0358,0.0581,0.0983,0.1225,0.1302,0.1295,0.1368,0.1186,0.1063,0.1536,0.1957,0.2031,0.2911,0.3594,0.3835,0.4291,0.4795,0.5166,0.5349,0.5231,0.5057,0.545,0.5615,0.5621,0.6091,0.6568,0.693,0.7194,0.7747,0.84,0.8603,0.8685,0.9359,0.9765,1.0157,1.0616,1.0926,1.1357,1.192,1.2383,1.2772,1.3132,1.3446,1.3868,1.4181,1.4139,1.3931,1.4245,1.4586,1.5165,1.5639,1.5713,1.582,1.6052,1.6305,1.6549,0.2244,0.0673,0.0841,0.0336,-0.0558,-0.119,-0.1575,-0.188,-0.2139,-0.2202,-0.2049,-0.1982,-0.1929,-0.1929,-0.1974,-0.2151,-0.2458,-0.2458,-0.2594,-0.2865,-0.2911,-0.2911,-0.2911,-0.2911,-0.2911,-0.2912,-0.2915,-0.2915,-0.2823,-0.2597,-0.2649,-0.2697,-0.202,-0.1705,-0.1842,-0.0898,-0.0675,-0.0944,-0.1661,-0.2385,-0.2754,-0.1485,-0.0225,-0.0539,-0.0584,-0.0584,-0.0314,-0.009,-0.0,-0.0,0.0269,0.0582,0.0179,-0.0223,-0.0134,0.0313,0.0537,0.0716,0.0895,0.0984,0.1252,0.1832,0.1918,0.2051,0.2092,0.2121,0.2085,0.2033,0.2561,0.3124,0.3056,0.387,0.4247,0.4247,0.4707,0.5321,0.54,0.5551,0.5763,0.5886,0.6327,0.6228,0.5984,0.6345,0.68,0.6912,0.7173,0.7924,0.8519,0.892,0.9237,1.005,1.0549,1.0827,1.1088,1.1223,1.1675,1.2174,1.2597,1.2953,1.3269,1.3621,1.4032,1.4381,1.4285,1.4134,1.4488,1.488,1.5359,1.5706,1.5763,1.5892,1.6011,1.6117,1.6308,0.1966,0.1346,0.1009,0.0785,0.0445,-0.0807,-0.1379,-0.1516,-0.1858,-0.2047,-0.1965,-0.1686,-0.1524,-0.1524,-0.1524,-0.188,-0.228,-0.2415,-0.255,-0.2821,-0.2865,-0.2911,-0.2911,-0.2911,-0.2911,-0.2914,-0.2921,-0.2921,-0.2735,-0.2105,-0.2019,-0.2428,-0.2472,-0.2022,-0.0719,-0.0,-0.0045,-0.0,-0.1798,-0.2883,-0.3112,-0.1573,-0.0494,-0.009,-0.009,-0.0045,0.0358,0.0492,0.0447,0.0672,0.0895,0.0984,0.0761,0.0625,0.1026,0.1519,0.188,0.1927,0.192,0.1875,0.2142,0.2677,0.2943,0.2946,0.2986,0.2717,0.2534,0.2158,0.2936,0.379,0.4322,0.4673,0.4585,0.4665,0.4966,0.5462,0.5671,0.59,0.6074,0.6409,0.6738,0.6314,0.5941,0.6515,0.6995,0.7026,0.7267,0.8056,0.8803,0.9333,0.9844,1.0644,1.0964,1.1201,1.1426,1.1601,1.192,1.2383,1.2779,1.3132,1.3419,1.3762,1.4085,1.4344,1.4248,1.4522,1.5023,1.5389,1.566,1.5741,1.5763,1.5814,1.5921,1.6014,1.613,0.2017,0.1578,0.1067,0.0687,0.0368,-0.0254,-0.0751,-0.1138,-0.1323,-0.1473,-0.1608,-0.1494,-0.1389,-0.1389,-0.1389,-0.1657,-0.206,-0.2195,-0.2418,-0.2692,-0.2826,-0.2915,-0.2911,-0.2911,-0.2911,-0.2887,-0.2921,-0.2879,-0.2558,-0.1928,-0.1524,-0.1392,-0.2246,-0.1886,-0.0,-0.0,-0.0,-0.0,-0.0898,-0.1887,-0.234,-0.1348,0.0314,0.1526,0.1436,0.1344,0.1208,0.152,0.1252,0.1387,0.1698,0.2011,0.1787,0.1826,0.231,0.2978,0.3342,0.3342,0.3114,0.2853,0.3117,0.3468,0.3823,0.3997,0.4083,0.3948,0.3489,0.3008,0.4051,0.4992,0.5585,0.5782,0.5459,0.534,0.5444,0.5844,0.6172,0.6271,0.6521,0.6822,0.708,0.6819,0.6624,0.7123,0.7658,0.7836,0.8063,0.8675,0.9483,1.0161,1.0712,1.1244,1.141,1.1458,1.1675,1.1853,1.2138,1.2567,1.2994,1.3316,1.3567,1.3874,1.4157,1.4344,1.4363,1.4797,1.5463,1.5625,1.5632,1.5676,1.572,1.5829,1.5964,1.5975,1.613,0.1971,0.1657,0.1067,0.0605,0.0301,0.0242,-0.0143,-0.0664,-0.0868,-0.1076,-0.1254,-0.1344,-0.1389,-0.1389,-0.1434,-0.1568,-0.1794,-0.1975,-0.2259,-0.2537,-0.2733,-0.2895,-0.293,-0.2929,-0.2881,-0.2909,-0.291,-0.2902,-0.2328,-0.1218,0.009,-0.0045,-0.1302,-0.1212,-0.0,-0.0,-0.0,-0.0,0.0539,-0.0269,-0.1392,-0.0763,0.0942,0.2203,0.2837,0.2609,0.2107,0.2102,0.1878,0.1968,0.2588,0.29,0.2588,0.3021,0.3455,0.4121,0.4615,0.5046,0.4641,0.4291,0.4081,0.4424,0.4849,0.5318,0.5543,0.5508,0.5002,0.414,0.5241,0.6001,0.6441,0.6594,0.6197,0.5992,0.6015,0.6442,0.679,0.6873,0.7109,0.7551,0.7768,0.7779,0.7753,0.8057,0.8345,0.8584,0.8964,0.9389,1.0043,1.0809,1.119,1.1621,1.1664,1.1675,1.1889,1.2108,1.2389,1.2743,1.3173,1.3465,1.3708,1.3868,1.4085,1.4234,1.4445,1.4766,1.5269,1.5417,1.555,1.572,1.5871,1.5958,1.6036,1.6047,1.6176,0.1585,0.1638,0.1044,0.0753,0.0701,0.0338,0.0142,-0.0047,-0.0592,-0.0851,-0.0985,-0.1254,-0.1389,-0.1389,-0.1389,-0.1524,-0.1794,-0.1839,-0.2144,-0.247,-0.2753,-0.2876,-0.2864,-0.2846,-0.2821,-0.2854,-0.2545,-0.2512,-0.1976,0.0633,0.09,0.018,-0.018,-0.0135,-0.0,-0.0,-0.0,0.0359,0.1257,0.1392,0.0224,0.0224,0.1031,0.2471,0.2879,0.2785,0.2508,0.2367,0.2366,0.2503,0.3342,0.3651,0.3561,0.4206,0.4724,0.512,0.595,0.6377,0.6271,0.562,0.5454,0.5959,0.6376,0.6584,0.6765,0.6596,0.6067,0.5486,0.6341,0.6784,0.696,0.6881,0.6761,0.6615,0.6644,0.7021,0.7332,0.748,0.7725,0.8198,0.8412,0.8464,0.8612,0.8852,0.9393,0.9695,0.9719,1.0149,1.0557,1.1182,1.1459,1.1732,1.1811,1.1889,1.2108,1.2389,1.2785,1.3063,1.3385,1.36,1.3775,1.3934,1.4124,1.4356,1.4564,1.4821,1.5059,1.527,1.5514,1.5841,1.6034,1.6108,1.6245,1.6348,1.6466,0.1688,0.1132,0.086,0.0753,0.0706,0.0555,0.0368,0.0183,-0.009,-0.0403,-0.0627,-0.112,-0.1299,-0.1165,-0.1344,-0.1434,-0.1569,-0.1749,-0.1999,-0.2306,-0.254,-0.2783,-0.2738,-0.2538,-0.2241,-0.2407,-0.1828,-0.1127,-0.0641,0.1674,0.2255,0.1797,0.1122,0.0942,0.0852,0.0807,0.0583,0.0448,0.13,0.166,0.1976,0.1164,0.1522,0.2691,0.2918,0.2872,0.2822,0.2946,0.3078,0.3432,0.422,0.4395,0.4565,0.5419,0.593,0.6143,0.7011,0.7478,0.7634,0.6894,0.6593,0.6945,0.728,0.7477,0.7811,0.754,0.7248,0.709,0.7199,0.7604,0.8097,0.7821,0.7455,0.7282,0.7331,0.7638,0.7968,0.8174,0.8364,0.8859,0.9109,0.9226,0.9403,0.9603,1.0246,1.0785,1.0802,1.087,1.1223,1.1525,1.1768,1.1987,1.2066,1.218,1.236,1.2756,1.3179,1.3385,1.3594,1.3801,1.3941,1.4105,1.4287,1.4483,1.4745,1.5059,1.5227,1.5257,1.5482,1.5838,1.6098,1.6286,1.6418,1.6633,1.6809,0.1662,0.0968,0.0783,0.0719,0.0719,0.0719,0.0584,0.036,0.0225,-0.0045,-0.0403,-0.0895,-0.0985,-0.0895,-0.094,-0.112,-0.1165,-0.1346,-0.1629,-0.1946,-0.2289,-0.2724,-0.2728,-0.252,-0.2245,-0.1824,-0.0239,0.0892,0.0923,0.2263,0.2652,0.2558,0.2242,0.1927,0.184,0.1794,0.1479,0.121,0.1477,0.2109,0.2698,0.2288,0.2237,0.3092,0.3226,0.3312,0.3442,0.3612,0.3825,0.422,0.4785,0.5392,0.5813,0.6359,0.7039,0.7457,0.7833,0.8222,0.8296,0.8232,0.7922,0.8269,0.8622,0.8787,0.8844,0.8784,0.8717,0.8182,0.8316,0.8586,0.9075,0.8421,0.8256,0.809,0.8019,0.8323,0.8834,0.9153,0.9267,0.9526,0.9744,1.002,1.0088,1.0325,1.094,1.1361,1.132,1.1367,1.1673,1.1913,1.2062,1.2288,1.2431,1.2508,1.265,1.3069,1.3419,1.3514,1.3755,1.3993,1.4164,1.4326,1.4479,1.4704,1.4961,1.5293,1.5513,1.5675,1.5762,1.5866,1.6159,1.6441,1.6777,1.6986,1.7207,0.1397,0.1347,0.09,0.0719,0.0719,0.0719,0.0675,0.0584,0.0315,-0.0,-0.0269,-0.0448,-0.0448,-0.0448,-0.0537,-0.0671,-0.0806,-0.0852,-0.1048,-0.1466,-0.1813,-0.2557,-0.3145,-0.3123,-0.2194,-0.0,0.1391,0.2331,0.2547,0.2734,0.2876,0.2914,0.2688,0.2646,0.2791,0.2837,0.2837,0.2789,0.2734,0.2827,0.2919,0.2825,0.3132,0.3534,0.3714,0.3797,0.3968,0.4274,0.4484,0.4785,0.5473,0.607,0.6567,0.7207,0.7837,0.824,0.8667,0.9007,0.9128,0.9385,0.9451,0.9482,0.9792,1.0229,1.0562,1.0519,1.0123,0.9432,0.9479,0.9417,0.9188,0.8869,0.8997,0.9012,0.8985,0.911,0.9644,0.9954,1.0078,1.0172,1.055,1.0838,1.0823,1.0999,1.1614,1.1915,1.1836,1.192,1.2108,1.2228,1.2341,1.2621,1.2798,1.289,1.3069,1.3378,1.3655,1.3749,1.3914,1.4176,1.444,1.4631,1.4804,1.4944,1.53,1.5696,1.593,1.6122,1.6243,1.6355,1.6413,1.6675,1.7027,1.7367,1.7574,0.1249,0.0966,0.0781,0.0719,0.0719,0.0719,0.0719,0.0629,0.036,0.0225,0.018,-0.0135,-0.0225,-0.0135,-0.0269,-0.0448,-0.0627,-0.0717,-0.087,-0.0952,-0.1137,-0.2009,-0.2747,-0.2913,-0.2156,-0.0051,0.1806,0.2909,0.2839,0.2898,0.2922,0.2911,0.2918,0.2914,0.2872,0.2918,0.2873,0.2872,0.2914,0.3047,0.3407,0.3442,0.3568,0.4102,0.415,0.4236,0.4449,0.484,0.514,0.5475,0.6161,0.6991,0.7487,0.8129,0.8784,0.9026,0.9332,0.9651,0.9922,1.022,1.0447,1.0562,1.0715,1.0992,1.0921,1.0764,1.0616,1.0549,1.0336,1.0306,1.0329,1.0103,1.0078,1.0073,1.0059,1.0144,1.0446,1.0598,1.0735,1.0886,1.1159,1.1451,1.1566,1.1844,1.2346,1.2365,1.2258,1.2264,1.2413,1.2461,1.2544,1.2959,1.3181,1.332,1.3486,1.3782,1.3947,1.4046,1.4227,1.4438,1.4704,1.4959,1.5292,1.5543,1.5818,1.6088,1.6254,1.648,1.6751,1.6913,1.6873,1.6993,1.7352,1.7698,1.8031,0.1357,0.0771,0.0735,0.0764,0.0809,0.0764,0.0719,0.0675,0.045,0.0494,0.0539,0.018,0.0135,0.0269,0.0135,-0.0045,-0.0224,-0.0224,-0.0406,-0.0422,-0.0438,-0.1048,-0.168,-0.0,-0.0705,0.0837,0.2007,0.2903,0.2896,0.2966,0.2934,0.293,0.2887,0.2915,0.2912,0.2912,0.2912,0.2912,0.2955,0.3135,0.3488,0.37,0.3917,0.4358,0.4578,0.4709,0.5055,0.5445,0.5833,0.634,0.7046,0.7912,0.8333,0.8869,0.9518,0.9686,0.9922,1.0235,1.0529,1.0911,1.1132,1.1324,1.133,1.133,1.133,1.1324,1.148,1.1427,1.1082,1.1021,1.108,1.0886,1.0736,1.0677,1.0791,1.0797,1.1057,1.1201,1.1207,1.1404,1.1573,1.1909,1.2264,1.2746,1.3144,1.2917,1.2691,1.2697,1.2745,1.2815,1.2939,1.3314,1.3602,1.3761,1.3914,1.4104,1.4273,1.4369,1.4585,1.4866,1.5082,1.5404,1.5761,1.608,1.6238,1.6413,1.6578,1.6793,1.7033,1.7166,1.7191,1.7377,1.7681,1.7923,1.8203,0.1675,0.0768,0.0719,0.0853,0.1031,0.0853,0.0719,0.0719,0.0719,0.0675,0.0675,0.0629,0.0584,0.0675,0.0629,0.0584,0.0539,0.0539,0.0317,0.0092,-0.0,-0.0242,-0.0,-0.0,-0.0,0.1955,0.2922,0.2913,0.2927,0.2977,0.2986,0.3034,0.3037,0.3143,0.3176,0.3245,0.3149,0.301,0.2911,0.3265,0.3656,0.3741,0.4222,0.4748,0.5099,0.5399,0.5784,0.6215,0.6605,0.7066,0.7682,0.8296,0.8833,0.9324,0.9799,1.0152,1.0467,1.0682,1.09,1.1282,1.1689,1.1884,1.2029,1.2102,1.2029,1.1962,1.2062,1.2022,1.1725,1.1566,1.1432,1.1152,1.0911,1.0981,1.1137,1.1324,1.1584,1.1695,1.1664,1.1763,1.1917,1.2181,1.2562,1.3047,1.3534,1.342,1.3229,1.3142,1.3188,1.3276,1.3444,1.3746,1.4013,1.421,1.4344,1.4433,1.461,1.4704,1.5086,1.5373,1.5617,1.5803,1.6113,1.6359,1.6546,1.6706,1.687,1.706,1.7265,1.7346,1.7402,1.7567,1.7811,1.7897,1.8116,0.1043,0.0797,0.0728,0.0852,0.1075,0.1031,0.0852,0.0719,0.0719,0.0719,0.0719,0.0719,0.072,0.0719,0.0719,0.0719,0.0721,0.0677,0.0598,0.047,0.0337,0.0148,-0.0,-0.0,-0.0,0.2276,0.2903,0.2927,0.2925,0.2977,0.3251,0.3476,0.3395,0.3636,0.3935,0.4083,0.3597,0.3211,0.3062,0.3491,0.3922,0.4092,0.4661,0.519,0.5661,0.5962,0.6218,0.692,0.7269,0.7328,0.8452,0.9182,0.8931,0.9646,1.0201,1.0162,1.0457,1.0786,1.1014,1.1388,1.1872,1.2354,1.2502,1.2467,1.2431,1.2449,1.255,1.2437,1.2262,1.205,1.1977,1.1785,1.1573,1.1584,1.1664,1.1774,1.1993,1.1999,1.1993,1.2079,1.2235,1.2336,1.2725,1.3342,1.373,1.3761,1.3729,1.3636,1.363,1.3689,1.3894,1.4166,1.4283,1.4447,1.4529,1.4578,1.4852,1.5104,1.5558,1.5873,1.6032,1.6223,1.6459,1.6617,1.6722,1.6927,1.7118,1.7248,1.724,1.7505,1.7582,1.7752,1.7886,1.7927,1.8031,0.0993,0.0791,0.0727,0.0809,0.0942,0.103,0.0941,0.0719,0.0719,0.0719,0.0719,0.0719,0.0726,0.0781,0.0909,0.0913,0.0708,0.0913,0.0923,0.0729,0.0633,0.0485,0.0391,0.0632,0.1514,0.2364,0.2845,0.299,0.3048,0.3116,0.3353,0.3766,0.3788,0.4153,0.4414,0.4467,0.4237,0.3876,0.3748,0.4021,0.4294,0.4574,0.506,0.559,0.6056,0.6221,0.6513,0.7377,0.7679,0.7784,0.9066,0.9465,0.9399,1.003,1.0654,1.0725,1.1099,1.142,1.1709,1.2037,1.2437,1.2731,1.2924,1.2953,1.2918,1.2924,1.2924,1.2883,1.2679,1.2538,1.2532,1.249,1.2354,1.2222,1.2222,1.2222,1.2258,1.2258,1.2312,1.2395,1.2483,1.2528,1.2929,1.3565,1.398,1.4027,1.4078,1.4098,1.4077,1.411,1.4269,1.4533,1.458,1.4624,1.4704,1.4783,1.5022,1.5455,1.6184,1.646,1.6503,1.6607,1.6841,1.6884,1.6868,1.6978,1.7052,1.7077,1.7134,1.7401,1.7582,1.7637,1.7698,1.7786,1.7945,0.1258,0.072,0.0719,0.0719,0.0719,0.0986,0.0941,0.0719,0.0719,0.0719,0.0719,0.0719,0.0778,0.0971,0.1183,0.1206,0.1177,0.1342,0.1206,0.0949,0.0915,0.0854,0.1079,0.1476,0.1939,0.24,0.2829,0.3218,0.341,0.3522,0.3703,0.397,0.4318,0.4655,0.4897,0.5065,0.5005,0.4845,0.4789,0.4981,0.4932,0.5053,0.5272,0.5761,0.6102,0.6435,0.6849,0.7426,0.8084,0.8549,0.9159,0.9667,1.005,1.0365,1.0948,1.1431,1.1726,1.2012,1.2324,1.2684,1.3067,1.3278,1.3346,1.3421,1.3461,1.3229,1.3195,1.3229,1.3063,1.2959,1.2918,1.2743,1.2573,1.2496,1.249,1.2496,1.2538,1.2538,1.2638,1.2654,1.2596,1.2737,1.3302,1.39,1.4271,1.4295,1.4312,1.4363,1.4606,1.4617,1.4773,1.4949,1.4809,1.478,1.4831,1.4939,1.5144,1.5691,1.6522,1.6846,1.6807,1.6983,1.7208,1.7158,1.7076,1.6855,1.6839,1.6912,1.7043,1.7272,1.7401,1.7426,1.7504,1.7641,1.7769,0.0886,0.0719,0.0942,0.0898,0.0719,0.0986,0.0941,0.0719,0.0719,0.0719,0.0719,0.072,0.0904,0.1234,0.1448,0.1512,0.1752,0.1867,0.1535,0.1336,0.128,0.1355,0.148,0.1759,0.2244,0.2891,0.3328,0.3536,0.3872,0.4015,0.4209,0.4539,0.5,0.5481,0.5623,0.5836,0.5945,0.5794,0.5951,0.583,0.5598,0.5379,0.5404,0.6024,0.6502,0.6793,0.7328,0.8222,0.8472,0.8724,0.9785,1.0365,1.07,1.0835,1.1105,1.1516,1.2151,1.2467,1.2783,1.3176,1.3562,1.3762,1.3828,1.3967,1.3901,1.3575,1.3412,1.3446,1.3452,1.335,1.3242,1.3035,1.282,1.2807,1.2725,1.2766,1.2814,1.289,1.3,1.2917,1.2802,1.3147,1.3716,1.4092,1.4426,1.4527,1.4465,1.4585,1.5091,1.528,1.5377,1.5442,1.5017,1.4942,1.5031,1.5087,1.5279,1.5922,1.6744,1.6989,1.7099,1.724,1.737,1.7353,1.7264,1.7003,1.6831,1.6863,1.7011,1.7216,1.7361,1.7448,1.7527,1.7641,1.7687,0.0735,0.072,0.0852,0.0987,0.0988,0.0941,0.0942,0.0988,0.0809,0.0809,0.0988,0.1034,0.1178,0.1594,0.1852,0.1983,0.2277,0.2498,0.26,0.2348,0.1796,0.1826,0.1956,0.2126,0.25,0.3143,0.3569,0.388,0.4333,0.4515,0.4753,0.5271,0.5964,0.6272,0.6339,0.6654,0.6816,0.6838,0.6981,0.6884,0.6538,0.6523,0.6247,0.6726,0.7125,0.7382,0.7791,0.8639,0.9007,0.9315,1.0171,1.0981,1.1319,1.151,1.1695,1.2096,1.2591,1.2957,1.3197,1.3549,1.4013,1.4176,1.4144,1.4208,1.415,1.3848,1.3729,1.3769,1.3674,1.3573,1.3628,1.348,1.3338,1.3257,1.316,1.3132,1.3304,1.3507,1.3541,1.3456,1.3472,1.3657,1.4131,1.4373,1.4657,1.4805,1.4742,1.5232,1.5651,1.6114,1.6181,1.6159,1.5875,1.5558,1.561,1.5533,1.5435,1.615,1.7031,1.7206,1.7371,1.7426,1.7496,1.7464,1.7351,1.7085,1.6954,1.6922,1.7027,1.7265,1.7386,1.7494,1.7587,1.7679,1.7791,0.072,0.0719,0.0719,0.0942,0.1299,0.0988,0.1076,0.1389,0.1077,0.1121,0.1526,0.1623,0.1662,0.1995,0.2461,0.2502,0.264,0.3043,0.3421,0.3278,0.2685,0.2472,0.2443,0.2639,0.2923,0.3265,0.3746,0.4303,0.4848,0.5186,0.5662,0.6244,0.6466,0.6588,0.6787,0.6951,0.7068,0.7416,0.7689,0.7945,0.8029,0.8094,0.7537,0.7543,0.7948,0.8289,0.8447,0.8928,0.9542,0.9942,1.0475,1.1276,1.1811,1.2029,1.2389,1.2714,1.3079,1.3475,1.3815,1.413,1.4447,1.4613,1.4447,1.4351,1.428,1.4176,1.4058,1.3973,1.3908,1.3848,1.3894,1.3888,1.3742,1.3675,1.3581,1.3554,1.3788,1.3987,1.3941,1.3927,1.4012,1.4142,1.4422,1.4675,1.4833,1.4978,1.5395,1.5947,1.6495,1.702,1.7321,1.7347,1.7228,1.6893,1.6464,1.6037,1.5829,1.6615,1.7408,1.7527,1.7626,1.7646,1.7635,1.7581,1.7414,1.7324,1.7104,1.7005,1.714,1.7477,1.7633,1.783,1.7854,1.7941,1.8023,0.0719,0.0719,0.0719,0.0987,0.1344,0.1299,0.1522,0.1922,0.1877,0.1923,0.2074,0.2547,0.2788,0.2807,0.3035,0.3146,0.3287,0.3627,0.3614,0.3499,0.3222,0.2965,0.2887,0.306,0.3176,0.3587,0.4178,0.4667,0.5377,0.6071,0.6463,0.6629,0.7384,0.7398,0.7131,0.7314,0.7567,0.796,0.8231,0.8431,0.8663,0.8573,0.8286,0.8438,0.8937,0.8939,0.9089,0.9926,1.0153,1.0376,1.0835,1.1686,1.2204,1.2496,1.2785,1.3229,1.3595,1.3888,1.4227,1.4497,1.4763,1.4763,1.4624,1.4578,1.4483,1.4331,1.4227,1.4202,1.4092,1.402,1.4006,1.3967,1.3894,1.3973,1.3947,1.402,1.4189,1.4169,1.4123,1.4083,1.4107,1.4372,1.47,1.4875,1.5003,1.5329,1.5962,1.654,1.7394,1.7928,1.8456,1.8475,1.8475,1.7996,1.7436,1.6654,1.6463,1.7245,1.7749,1.781,1.7855,1.7836,1.7803,1.7808,1.7858,1.7837,1.7571,1.7369,1.7644,1.7973,1.8074,1.8189,1.8199,1.8238,1.8347]},{"header":{"parameterUnit":"m.s-1","parameterCategory":1,"la1":31.0,"la2":29.5877,"lo1":-88.7671,"lo2":-86.6584,"dy":0.0162,"dx":0.0185,"nx":115,"ny":88,"refTime":"2023-05-18T12:00:00:Z","depth":0,"parameterNumber":3,"parameterNumberName":"V-component_of_WINDS"},"data":[0.0,0.0,0.0,0.0,0.0,0.0,0.0,0.0,0.0,0.0,0.0,0.0,0.0,0.0,0.0,0.0,0.0,0.0,0.0,0.0,0.0,0.0,0.0,0.0,0.0,0.0,0.0,0.0,0.0,0.0,0.0,0.0,0.0,0.0,0.0,0.0,0.0,0.0,0.0,0.0,0.0,0.0,0.0,0.0,0.0,0.0,0.0,0.0,0.0,0.0,0.0,0.0,0.0,0.0,0.0,0.0,0.0,0.0,0.0,0.0,0.0,0.0,0.0,0.0,0.0,0.0,0.0,0.0,0.0,0.0,0.0,0.0,0.0,0.0,0.0,0.0,0.0,0.0,0.0,0.0,0.0,0.0,0.0,0.0,0.0,0.0,0.0,0.0,0.0,0.0,0.0,0.0,0.0,0.0,0.0,0.0,0.0,0.0,0.0,0.0,0.0,0.0,0.0,0.0,0.0,0.0,0.0,0.0,0.0,0.0,0.0,0.0,0.0,0.0,0.0,0.0,0.0,0.0,0.0,0.0,0.0,0.0,0.0,0.0,0.0,0.0,0.0,0.0,0.0,0.0,0.0,0.0,0.0,0.0,0.0,0.0,0.0,0.0,0.0,0.0,0.0,0.0,0.0,0.0,0.0,0.0,0.0,0.0,0.0,0.0,0.0,0.0,0.0,0.0,0.0,0.0,0.0,0.0,0.0,0.0,0.0,0.0,0.0,0.0,0.0,0.0,0.0,0.0,0.0,0.0,0.0,0.0,0.0,0.0,0.0,0.0,0.0,0.0,0.0,0.0,0.0,0.0,0.0,0.0,0.0,0.0,0.0,0.0,0.0,0.0,0.0,0.0,0.0,0.0,0.0,0.0,0.0,0.0,0.0,0.0,0.0,0.0,0.0,0.0,0.0,0.0,0.0,0.0,0.0,0.0,0.0,0.0,0.0,0.0,0.0,0.0,0.0,0.0,0.0,0.0,0.0,0.0,0.0,0.0,0.0,0.0,0.0,0.0,0.0,0.0,0.0,0.0,0.0,0.0,0.0,0.0,0.0,0.0,0.0,0.0,0.0,0.0,0.0,0.0,0.0,0.0,0.0,0.0,0.0,0.0,0.0,0.0,0.0,0.0,0.0,0.0,0.0,0.0,0.0,0.0,0.0,0.0,0.0,0.0,0.0,0.0,0.0,0.0,0.0,0.0,0.0,0.0,0.0,0.0,0.0,0.0,0.0,0.0,0.0,0.0,0.0,0.0,0.0,0.0,0.0,0.0,0.0,0.0,0.0,0.0,0.0,0.0,0.0,0.0,0.0,0.0,0.0,0.0,0.0,0.0,0.0,0.0,0.0,0.0,0.0,0.0,0.0,0.0,0.0,0.0,0.0,0.0,0.0,0.0,0.0,0.0,0.0,0.0,0.0,0.0,0.0,0.0,0.0,0.0,0.0,0.0,0.0,0.0,0.0,0.0,0.0,0.0,0.0,0.0,0.0,0.0,0.0,0.0,0.0,0.0,0.0,0.0,0.0,0.0,0.0,0.0,0.0,0.0,0.0,0.0,0.0,0.0,0.0,0.0,0.0,0.0,0.0,0.0,0.0,0.0,0.0,0.0,0.0,0.0,0.0,0.0,0.0,0.0,0.0,0.0,0.0,0.0,0.0,0.0,0.0,0.0,0.0,0.0,0.0,0.0,0.0,0.0,0.0,0.0,0.0,0.0,0.0,0.0,0.0,0.0,0.0,0.0,0.0,0.0,0.0,0.0,0.0,0.0,0.0,0.0,0.0,0.0,0.0,0.0,0.0,0.0,0.0,0.0,0.0,0.0,0.0,0.0,0.0,0.0,0.0,0.0,0.0,0.0,0.0,0.0,0.0,0.0,0.0,0.0,0.0,0.0,0.0,0.0,0.0,0.0,0.0,0.0,0.0,0.0,0.0,0.0,0.0,0.0,0.0,0.0,0.0,0.0,0.0,0.0,0.0,0.0,0.0,0.0,0.0,0.0,0.0,0.0,0.0,0.0,0.0,0.0,0.0,0.0,0.0,0.0,0.0,0.0,0.0,0.0,0.0,0.0,0.0,0.0,0.0,0.0,0.0,0.0,0.0,0.0,0.0,0.0,0.0,0.0,0.0,0.0,0.0,0.0,0.0,0.0,0.0,0.0,0.0,0.0,0.0,0.0,0.0,0.0,0.0,0.0,0.0,0.0,0.0,0.0,0.0,0.0,0.0,0.0,0.0,0.0,0.0,0.0,0.0,0.0,0.0,0.0,0.0,0.0,0.0,0.0,0.0,0.0,0.0,0.0,0.0,0.0,0.0,0.0,0.0,0.0,0.0,0.0,0.0,0.0,0.0,0.0,0.0,0.0,0.0,0.0,0.0,0.0,0.0,0.0,0.0,0.0,0.0,0.0,0.0,0.0,0.0,0.0,0.0,0.0,0.0,0.0,0.0,0.0,0.0,0.0,0.0,0.0,0.0,0.0,0.0,0.0,0.0,0.0,0.0,0.0,0.0,0.0,0.0,0.0,0.0,0.0,0.0,0.0,0.0,0.0,0.0,0.0,0.0,0.0,0.0,0.0,0.0,0.0,0.0,0.0,0.0,0.0,0.0,0.0,0.0,0.0,0.0,0.0,0.0,0.0,0.0,0.0,0.0,0.0,0.0,0.0,0.0,0.0,0.0,0.0,0.0,0.0,0.0,0.0,0.0,0.0,0.0,0.0,0.0,0.0,0.0,0.0,0.0,0.0,0.0,0.0,0.0,0.0,0.0,0.0,0.0,0.0,0.0,0.0,0.0,0.0,0.0,0.0,0.0,0.0,0.0,0.0,0.0,0.0,0.0,0.0,0.0,0.0,0.0,0.0,0.0,0.0,0.0,0.0,0.0,0.0,0.0,0.0,0.0,0.0,0.0,0.0,0.0,0.0,0.0,0.0,0.0,0.0,0.0,0.0,0.0,0.0,0.0,0.0,0.0,0.0,0.0,0.0,0.0,0.0,0.0,0.0,0.0,0.0,0.0,0.0,0.0,0.0,0.0,0.0,0.0,0.0,0.0,0.0,0.0,0.0,0.0,0.0,0.0,0.0,0.0,0.0,0.0,0.0,0.0,0.0,0.0,0.0,0.0,0.0,0.0,0.0,0.0,0.0,0.0,0.0,0.0,0.0,0.0,0.0,0.0,0.0,0.0,0.0,0.0,0.0,0.0,0.0,0.0,0.0,0.0,0.0,0.0,0.0,0.0,0.0,0.0,0.0,0.0,0.0,0.0,0.0,0.0,0.0,0.0,0.0,0.0,0.0,0.0,0.0,0.0,0.0,0.0,0.0,0.0,0.0,0.0,0.0,0.0,0.0,0.0,0.0,0.0,0.0,0.0,0.0,0.0,0.0,0.0,0.0,0.0,0.0,0.0,0.0,0.0,0.0,0.0,0.0,0.0,0.0,0.0,0.0,0.0,0.0,0.0,0.0,0.0,0.0,0.0,0.0,0.0,0.0,0.0,0.0,0.0,0.0,0.0,0.0,0.0,0.0,0.0,0.0,0.0,0.0,0.0,0.0,0.0,0.0,0.0,0.0,0.0,0.0,0.0,0.0,0.0,0.0,0.0,0.0,0.0,0.0,0.0,0.0,0.0,0.0,0.0,0.0,0.0,0.0,0.0,0.0,0.0,0.0,0.0,0.0,0.0,0.0,0.0,0.0,0.0,0.0,0.0,0.0,0.0,0.0,0.0,0.0,0.0,0.0,0.0,0.0,0.0,0.0,0.0,0.0,0.0,0.0,0.0,0.0,0.0,0.0,0.0,0.0,0.0,0.0,0.0,0.0,0.0,0.0,0.0,0.0,0.0,0.0,0.0,0.0,0.0,0.0,0.0,0.0,0.0,0.0,0.0,0.0,0.0,0.0,0.0,0.0,0.0,0.0,0.0,0.0,0.0,0.0,0.0,0.0,0.0,0.0,0.0,0.0,0.0,0.0,0.0,0.0,0.0,0.0,0.0,0.0,0.0,0.0,0.0,0.0,0.0,0.0,0.0,0.0,0.0,0.0,0.0,0.0,0.0,0.0,0.0,0.0,0.0,0.0,0.0,0.0,0.0,0.0,0.0,0.0,0.0,0.0,0.0,0.0,0.0,0.0,0.0,0.0,0.0,0.0,0.0,0.0,0.0,0.0,0.0,0.0,0.0,0.0,0.0,0.0,0.0,0.0,0.0,0.0,0.0,0.0,0.0,0.0,0.0,0.0,0.0,0.0,0.0,0.0,0.0,0.0,0.0,0.0,0.0,0.0,0.0,0.0,-1.4497,0.0,0.0,0.0,0.0,0.0,0.0,0.0,0.0,0.0,0.0,0.0,0.0,0.0,0.0,0.0,0.0,0.0,0.0,0.0,0.0,0.0,0.0,0.0,0.0,0.0,0.0,0.0,0.0,0.0,0.0,0.0,0.0,0.0,0.0,0.0,0.0,0.0,0.0,0.0,0.0,0.0,0.0,0.0,0.0,0.0,0.0,0.0,0.0,0.0,0.0,0.0,0.0,0.0,0.0,0.0,0.0,0.0,0.0,0.0,0.0,0.0,0.0,0.0,0.0,0.0,0.0,0.0,0.0,0.0,0.0,0.0,0.0,0.0,0.0,0.0,0.0,0.0,0.0,0.0,0.0,0.0,0.0,0.0,0.0,0.0,0.0,0.0,0.0,0.0,0.0,0.0,0.0,0.0,0.0,0.0,0.0,0.0,0.0,0.0,0.0,0.0,0.0,0.0,0.0,0.0,0.0,0.0,0.0,0.0,0.0,-1.4501,-1.4501,-1.4497,-1.4494,-1.4497,0.0,0.0,0.0,0.0,0.0,0.0,0.0,0.0,0.0,0.0,0.0,0.0,0.0,0.0,0.0,0.0,0.0,0.0,0.0,0.0,0.0,0.0,0.0,0.0,0.0,0.0,0.0,0.0,0.0,0.0,0.0,0.0,0.0,0.0,0.0,0.0,0.0,0.0,0.0,0.0,0.0,0.0,0.0,0.0,0.0,0.0,0.0,0.0,0.0,0.0,0.0,0.0,0.0,0.0,0.0,0.0,0.0,0.0,0.0,0.0,0.0,0.0,0.0,0.0,0.0,0.0,0.0,0.0,0.0,0.0,0.0,0.0,0.0,0.0,0.0,0.0,0.0,0.0,0.0,0.0,0.0,0.0,0.0,0.0,0.0,0.0,0.0,0.0,0.0,0.0,0.0,0.0,0.0,0.0,0.0,0.0,0.0,0.0,0.0,0.0,0.0,0.0,0.0,0.0,0.0,0.0,0.0,0.0,0.0,0.0,0.0,0.0,-1.4483,-1.4492,-1.4497,0.0,0.0,0.0,0.0,0.0,0.0,0.0,0.0,0.0,0.0,0.0,0.0,0.0,0.0,0.0,0.0,0.0,0.0,0.0,0.0,0.0,0.0,0.0,0.0,0.0,0.0,0.0,0.0,0.0,0.0,0.0,0.0,0.0,0.0,0.0,0.0,0.0,0.0,0.0,0.0,0.0,0.0,0.0,0.0,0.0,0.0,0.0,0.0,0.0,0.0,0.0,0.0,0.0,0.0,0.0,0.0,0.0,0.0,0.0,0.0,0.0,0.0,0.0,0.0,0.0,0.0,0.0,0.0,0.0,0.0,0.0,0.0,0.0,0.0,0.0,0.0,0.0,0.0,0.0,0.0,0.0,0.0,0.0,0.0,0.0,0.0,0.0,0.0,0.0,0.0,0.0,0.0,0.0,0.0,0.0,0.0,0.0,0.0,0.0,0.0,0.0,0.0,0.0,0.0,0.0,0.0,0.0,0.0,0.0,0.0,-1.4408,-1.4399,-1.4408,0.0,-1.4488,0.0,0.0,0.0,0.0,0.0,0.0,0.0,0.0,0.0,0.0,0.0,0.0,0.0,0.0,0.0,0.0,0.0,0.0,0.0,0.0,0.0,0.0,0.0,0.0,0.0,0.0,0.0,0.0,0.0,0.0,0.0,0.0,0.0,0.0,0.0,0.0,0.0,0.0,0.0,0.0,0.0,0.0,0.0,0.0,0.0,0.0,0.0,0.0,0.0,0.0,0.0,0.0,0.0,0.0,0.0,0.0,0.0,0.0,0.0,0.0,0.0,0.0,0.0,0.0,0.0,0.0,0.0,0.0,0.0,0.0,0.0,0.0,0.0,0.0,0.0,0.0,0.0,0.0,0.0,0.0,0.0,0.0,0.0,0.0,0.0,0.0,0.0,0.0,0.0,0.0,0.0,0.0,0.0,0.0,0.0,0.0,0.0,0.0,0.0,0.0,0.0,0.0,0.0,0.0,0.0,0.0,0.0,0.0,0.0,0.0,-1.4344,-1.4349,-1.4344,-1.4381,0.0,0.0,0.0,0.0,0.0,0.0,0.0,0.0,0.0,0.0,0.0,0.0,0.0,0.0,0.0,0.0,0.0,0.0,0.0,0.0,0.0,0.0,0.0,0.0,0.0,0.0,0.0,0.0,0.0,0.0,0.0,0.0,0.0,0.0,0.0,0.0,0.0,0.0,0.0,0.0,0.0,0.0,0.0,0.0,0.0,0.0,0.0,0.0,0.0,0.0,0.0,0.0,0.0,0.0,0.0,0.0,0.0,0.0,0.0,0.0,0.0,0.0,0.0,0.0,0.0,0.0,0.0,0.0,0.0,0.0,0.0,0.0,0.0,0.0,0.0,0.0,0.0,0.0,0.0,0.0,0.0,0.0,0.0,0.0,0.0,0.0,0.0,0.0,0.0,0.0,0.0,0.0,0.0,0.0,0.0,0.0,0.0,0.0,0.0,0.0,0.0,0.0,0.0,0.0,0.0,0.0,0.0,0.0,0.0,0.0,-1.4268,-1.4238,-1.4221,-1.4251,-1.4281,-1.4329,0.0,0.0,0.0,0.0,0.0,0.0,0.0,0.0,0.0,0.0,0.0,0.0,0.0,0.0,0.0,0.0,0.0,0.0,0.0,0.0,0.0,0.0,0.0,0.0,0.0,0.0,0.0,0.0,0.0,0.0,0.0,0.0,0.0,0.0,0.0,0.0,0.0,0.0,0.0,0.0,0.0,0.0,0.0,0.0,0.0,0.0,0.0,0.0,0.0,0.0,0.0,0.0,0.0,0.0,0.0,0.0,0.0,0.0,0.0,0.0,0.0,0.0,0.0,0.0,0.0,0.0,0.0,0.0,0.0,0.0,0.0,0.0,0.0,0.0,0.0,0.0,0.0,0.0,0.0,0.0,0.0,0.0,0.0,0.0,0.0,0.0,0.0,0.0,0.0,0.0,0.0,0.0,0.0,0.0,0.0,0.0,0.0,0.0,0.0,0.0,0.0,0.0,0.0,0.0,0.0,0.0,0.0,0.0,-1.421,-1.4141,-1.4082,-1.4028,-1.4069,-1.4145,0.0,0.0,0.0,0.0,0.0,0.0,0.0,0.0,0.0,0.0,0.0,0.0,0.0,0.0,0.0,0.0,0.0,0.0,0.0,0.0,0.0,0.0,0.0,0.0,0.0,0.0,0.0,0.0,0.0,0.0,0.0,0.0,0.0,0.0,0.0,0.0,0.0,0.0,0.0,0.0,0.0,0.0,0.0,0.0,0.0,0.0,0.0,0.0,0.0,0.0,0.0,0.0,0.0,0.0,0.0,0.0,0.0,0.0,0.0,0.0,0.0,0.0,0.0,0.0,0.0,0.0,0.0,0.0,0.0,0.0,0.0,0.0,0.0,0.0,0.0,0.0,0.0,0.0,0.0,0.0,0.0,0.0,0.0,0.0,0.0,0.0,0.0,0.0,0.0,0.0,0.0,0.0,0.0,0.0,0.0,0.0,0.0,0.0,0.0,0.0,0.0,0.0,0.0,0.0,0.0,0.0,0.0,0.0,0.0,-1.4087,-1.3915,-1.3851,-1.3865,-1.3934,-1.4037,0.0,0.0,0.0,0.0,0.0,0.0,0.0,0.0,0.0,0.0,0.0,0.0,0.0,0.0,0.0,0.0,0.0,0.0,0.0,0.0,0.0,0.0,0.0,0.0,0.0,0.0,0.0,0.0,0.0,0.0,0.0,0.0,0.0,0.0,0.0,0.0,0.0,0.0,0.0,0.0,0.0,0.0,0.0,0.0,0.0,0.0,0.0,0.0,0.0,0.0,0.0,0.0,0.0,0.0,0.0,0.0,0.0,0.0,0.0,0.0,0.0,0.0,0.0,0.0,0.0,0.0,0.0,0.0,0.0,0.0,0.0,0.0,0.0,0.0,0.0,0.0,0.0,0.0,0.0,0.0,0.0,0.0,0.0,0.0,0.0,0.0,0.0,0.0,0.0,0.0,0.0,0.0,0.0,0.0,0.0,0.0,0.0,0.0,0.0,0.0,0.0,0.0,0.0,0.0,0.0,0.0,0.0,0.0,0.0,-1.3838,0.0,-1.3648,-1.3629,-1.3776,-1.3871,0.0,0.0,0.0,0.0,0.0,0.0,0.0,0.0,0.0,0.0,0.0,0.0,0.0,0.0,0.0,0.0,0.0,0.0,0.0,0.0,0.0,0.0,0.0,0.0,0.0,0.0,0.0,0.0,0.0,0.0,0.0,0.0,0.0,0.0,0.0,0.0,0.0,0.0,0.0,0.0,0.0,0.0,0.0,0.0,0.0,0.0,0.0,0.0,0.0,0.0,0.0,0.0,0.0,0.0,0.0,0.0,0.0,0.0,0.0,0.0,0.0,0.0,0.0,0.0,0.0,0.0,0.0,0.0,0.0,0.0,0.0,0.0,0.0,0.0,0.0,0.0,0.0,0.0,0.0,0.0,0.0,0.0,0.0,0.0,0.0,0.0,0.0,0.0,0.0,0.0,0.0,0.0,0.0,0.0,0.0,0.0,0.0,0.0,0.0,0.0,0.0,0.0,0.0,0.0,0.0,0.0,0.0,0.0,-1.3836,-1.352,-1.3497,-1.3438,-1.3312,-1.3559,-1.3684,0.0,0.0,0.0,0.0,0.0,0.0,0.0,0.0,0.0,0.0,0.0,0.0,0.0,0.0,0.0,0.0,0.0,0.0,0.0,0.0,0.0,0.0,0.0,0.0,0.0,0.0,0.0,0.0,0.0,0.0,0.0,0.0,0.0,0.0,0.0,0.0,0.0,0.0,0.0,0.0,0.0,0.0,0.0,0.0,0.0,0.0,0.0,0.0,0.0,0.0,0.0,0.0,0.0,0.0,0.0,0.0,0.0,0.0,0.0,0.0,0.0,0.0,0.0,0.0,0.0,0.0,0.0,0.0,0.0,0.0,0.0,0.0,0.0,0.0,0.0,0.0,0.0,0.0,0.0,0.0,0.0,0.0,0.0,0.0,0.0,0.0,0.0,0.0,0.0,0.0,0.0,0.0,0.0,0.0,0.0,0.0,0.0,0.0,0.0,0.0,0.0,0.0,0.0,0.0,0.0,0.0,0.0,0.0,0.0,-1.3329,-1.3251,-1.3199,-1.3182,-1.3337,-1.3485,0.0,0.0,0.0,0.0,0.0,0.0,0.0,0.0,0.0,0.0,0.0,0.0,0.0,0.0,0.0,0.0,0.0,0.0,0.0,0.0,0.0,0.0,0.0,0.0,0.0,0.0,0.0,0.0,0.0,0.0,0.0,0.0,0.0,0.0,0.0,0.0,0.0,0.0,0.0,0.0,0.0,0.0,0.0,0.0,0.0,0.0,0.0,0.0,0.0,0.0,0.0,0.0,0.0,0.0,0.0,0.0,0.0,0.0,0.0,0.0,0.0,0.0,0.0,0.0,0.0,0.0,0.0,0.0,0.0,0.0,0.0,0.0,0.0,0.0,0.0,0.0,0.0,0.0,0.0,0.0,0.0,0.0,0.0,0.0,0.0,0.0,0.0,0.0,0.0,0.0,0.0,0.0,0.0,0.0,0.0,0.0,0.0,0.0,0.0,0.0,0.0,0.0,0.0,0.0,0.0,0.0,0.0,0.0,0.0,-1.3823,-1.3817,-1.3794,-1.3724,-1.3697,-1.3752,-1.3929,0.0,0.0,0.0,0.0,0.0,0.0,0.0,0.0,0.0,0.0,0.0,0.0,0.0,0.0,0.0,0.0,0.0,0.0,0.0,0.0,0.0,0.0,0.0,0.0,0.0,0.0,0.0,0.0,0.0,0.0,0.0,0.0,0.0,0.0,0.0,0.0,0.0,0.0,0.0,0.0,0.0,0.0,0.0,0.0,0.0,0.0,0.0,0.0,0.0,0.0,0.0,0.0,0.0,0.0,0.0,0.0,0.0,0.0,0.0,0.0,0.0,0.0,0.0,0.0,0.0,0.0,0.0,0.0,0.0,0.0,0.0,0.0,0.0,0.0,0.0,0.0,0.0,0.0,0.0,0.0,0.0,0.0,0.0,0.0,0.0,0.0,0.0,0.0,0.0,0.0,0.0,0.0,0.0,0.0,0.0,0.0,0.0,0.0,0.0,0.0,0.0,0.0,0.0,0.0,0.0,0.0,0.0,0.0,-1.4756,-1.4936,-1.4943,-1.4792,-1.4434,-1.4341,0.0,0.0,0.0,0.0,0.0,0.0,0.0,0.0,0.0,0.0,0.0,0.0,0.0,0.0,0.0,0.0,0.0,0.0,0.0,0.0,0.0,0.0,0.0,0.0,0.0,0.0,0.0,0.0,0.0,0.0,0.0,0.0,0.0,0.0,0.0,0.0,0.0,0.0,0.0,0.0,0.0,0.0,0.0,0.0,0.0,0.0,0.0,0.0,0.0,0.0,0.0,0.0,0.0,0.0,0.0,0.0,0.0,0.0,0.0,0.0,0.0,0.0,0.0,0.0,0.0,0.0,0.0,0.0,0.0,0.0,0.0,0.0,0.0,0.0,0.0,0.0,0.0,0.0,0.0,0.0,0.0,0.0,0.0,0.0,0.0,0.0,0.0,0.0,0.0,0.0,0.0,0.0,0.0,0.0,0.0,0.0,0.0,0.0,0.0,0.0,0.0,0.0,0.0,0.0,0.0,0.0,0.0,0.0,0.0,-1.4397,-1.5114,-1.5288,-1.4759,-1.4353,-1.4241,0.0,0.0,0.0,0.0,0.0,0.0,0.0,0.0,0.0,0.0,0.0,0.0,0.0,0.0,0.0,0.0,0.0,0.0,0.0,0.0,0.0,0.0,0.0,0.0,0.0,0.0,0.0,0.0,0.0,0.0,0.0,0.0,0.0,0.0,0.0,0.0,0.0,0.0,0.0,0.0,0.0,0.0,0.0,0.0,0.0,0.0,0.0,0.0,0.0,0.0,0.0,0.0,0.0,0.0,0.0,0.0,0.0,0.0,0.0,0.0,0.0,0.0,0.0,0.0,0.0,0.0,0.0,0.0,0.0,0.0,0.0,0.0,0.0,0.0,0.0,0.0,0.0,0.0,0.0,0.0,0.0,0.0,0.0,0.0,0.0,0.0,0.0,0.0,0.0,0.0,0.0,0.0,0.0,0.0,0.0,0.0,0.0,0.0,0.0,0.0,0.0,0.0,0.0,0.0,0.0,0.0,0.0,0.0,-1.4824,-1.4643,-1.5534,-1.579,-1.5396,-1.4865,-1.4699,0.0,0.0,0.0,0.0,0.0,0.0,0.0,0.0,0.0,0.0,0.0,0.0,0.0,0.0,0.0,0.0,0.0,0.0,0.0,0.0,0.0,0.0,0.0,0.0,0.0,0.0,0.0,0.0,0.0,0.0,0.0,0.0,0.0,0.0,0.0,0.0,0.0,0.0,0.0,0.0,0.0,0.0,0.0,0.0,0.0,0.0,0.0,0.0,0.0,0.0,0.0,0.0,0.0,0.0,0.0,0.0,0.0,0.0,0.0,0.0,0.0,0.0,0.0,0.0,0.0,0.0,0.0,0.0,0.0,0.0,0.0,0.0,0.0,0.0,0.0,0.0,0.0,0.0,0.0,0.0,0.0,0.0,0.0,0.0,0.0,0.0,0.0,0.0,0.0,0.0,0.0,0.0,0.0,0.0,0.0,0.0,0.0,0.0,0.0,0.0,0.0,0.0,0.0,0.0,0.0,0.0,0.0,0.0,-1.4916,-1.5186,-1.5875,-1.6219,-1.6154,-1.5665,-1.5479,0.0,0.0,0.0,0.0,0.0,0.0,0.0,0.0,0.0,0.0,0.0,0.0,0.0,0.0,0.0,0.0,0.0,0.0,0.0,0.0,0.0,0.0,0.0,0.0,0.0,0.0,0.0,0.0,0.0,0.0,0.0,0.0,0.0,0.0,0.0,0.0,0.0,0.0,0.0,0.0,0.0,0.0,0.0,0.0,0.0,0.0,0.0,0.0,0.0,0.0,0.0,0.0,0.0,0.0,0.0,0.0,0.0,0.0,0.0,0.0,0.0,0.0,0.0,0.0,0.0,0.0,0.0,0.0,0.0,0.0,0.0,0.0,0.0,0.0,0.0,0.0,0.0,0.0,0.0,0.0,0.0,0.0,0.0,0.0,0.0,0.0,0.0,0.0,0.0,0.0,0.0,0.0,0.0,0.0,0.0,0.0,0.0,0.0,0.0,0.0,0.0,0.0,0.0,0.0,0.0,0.0,0.0,0.0,-1.4837,-1.5037,-1.5216,-1.5338,-1.5443,-1.5743,-1.6066,0.0,0.0,0.0,0.0,0.0,0.0,0.0,0.0,0.0,0.0,0.0,0.0,0.0,0.0,0.0,0.0,0.0,0.0,0.0,0.0,0.0,0.0,0.0,0.0,0.0,0.0,0.0,0.0,0.0,0.0,0.0,0.0,0.0,0.0,0.0,0.0,0.0,0.0,0.0,0.0,0.0,0.0,0.0,0.0,0.0,0.0,0.0,0.0,-1.5362,0.0,0.0,0.0,0.0,0.0,0.0,0.0,0.0,0.0,0.0,0.0,0.0,0.0,0.0,0.0,0.0,0.0,0.0,0.0,0.0,0.0,0.0,0.0,0.0,0.0,0.0,0.0,0.0,0.0,0.0,0.0,0.0,0.0,0.0,0.0,0.0,0.0,0.0,0.0,0.0,0.0,0.0,0.0,0.0,0.0,0.0,0.0,0.0,0.0,0.0,0.0,0.0,0.0,0.0,0.0,0.0,0.0,0.0,0.0,-1.4853,-1.412,-1.506,-1.5315,-1.4787,-1.5519,-1.6166,0.0,0.0,0.0,0.0,0.0,0.0,0.0,0.0,0.0,0.0,0.0,0.0,0.0,0.0,0.0,0.0,0.0,0.0,0.0,0.0,0.0,0.0,0.0,0.0,0.0,0.0,0.0,0.0,0.0,0.0,0.0,0.0,0.0,0.0,0.0,0.0,0.0,0.0,0.0,0.0,0.0,0.0,0.0,0.0,0.0,0.0,0.0,0.0,0.0,0.0,0.0,0.0,0.0,0.0,0.0,0.0,0.0,0.0,0.0,0.0,0.0,0.0,0.0,0.0,0.0,0.0,0.0,0.0,0.0,0.0,0.0,0.0,0.0,0.0,0.0,0.0,0.0,0.0,0.0,0.0,0.0,0.0,0.0,0.0,0.0,0.0,0.0,0.0,0.0,0.0,0.0,0.0,0.0,0.0,0.0,0.0,0.0,0.0,0.0,0.0,0.0,0.0,0.0,0.0,0.0,0.0,0.0,-1.49,-1.4853,-1.3328,-1.501,-1.5426,-1.4318,-1.52,-1.5997,-1.6546,0.0,0.0,0.0,0.0,0.0,0.0,0.0,0.0,0.0,0.0,0.0,0.0,0.0,0.0,0.0,0.0,0.0,0.0,0.0,0.0,0.0,0.0,0.0,0.0,0.0,0.0,0.0,0.0,0.0,0.0,0.0,0.0,0.0,0.0,0.0,0.0,0.0,0.0,-1.309,-1.3682,0.0,0.0,0.0,0.0,0.0,0.0,0.0,0.0,-1.681,0.0,0.0,0.0,0.0,0.0,0.0,0.0,0.0,0.0,0.0,0.0,0.0,0.0,0.0,0.0,0.0,0.0,0.0,0.0,0.0,0.0,0.0,0.0,0.0,0.0,0.0,0.0,0.0,0.0,0.0,0.0,0.0,0.0,0.0,0.0,0.0,0.0,0.0,0.0,0.0,0.0,0.0,0.0,0.0,0.0,0.0,0.0,0.0,0.0,0.0,0.0,0.0,0.0,0.0,0.0,0.0,-1.4796,-1.4864,-1.4592,-1.4028,-1.4678,-1.4865,-1.457,-1.5079,-1.5735,-1.6472,0.0,0.0,0.0,0.0,0.0,0.0,0.0,0.0,0.0,0.0,0.0,0.0,0.0,0.0,0.0,0.0,0.0,0.0,0.0,0.0,0.0,0.0,0.0,0.0,0.0,0.0,0.0,0.0,0.0,0.0,0.0,0.0,0.0,0.0,0.0,0.0,0.0,0.0,0.0,-1.4373,-1.5114,0.0,0.0,0.0,0.0,0.0,0.0,0.0,0.0,-1.657,0.0,0.0,0.0,0.0,0.0,0.0,0.0,0.0,0.0,0.0,0.0,0.0,0.0,0.0,0.0,0.0,0.0,0.0,0.0,0.0,0.0,0.0,0.0,0.0,0.0,0.0,0.0,0.0,0.0,0.0,0.0,0.0,0.0,0.0,0.0,0.0,0.0,0.0,0.0,0.0,0.0,0.0,0.0,0.0,0.0,0.0,0.0,0.0,0.0,0.0,0.0,0.0,0.0,0.0,0.0,-1.4744,-1.4836,-1.4433,-1.3549,-1.4351,-1.446,-1.3802,-1.4661,-1.542,0.0,0.0,0.0,0.0,0.0,0.0,0.0,0.0,0.0,0.0,0.0,0.0,0.0,0.0,0.0,0.0,0.0,0.0,0.0,0.0,0.0,0.0,0.0,0.0,0.0,0.0,0.0,0.0,0.0,0.0,0.0,0.0,0.0,0.0,0.0,0.0,0.0,0.0,0.0,0.0,-1.4633,-1.5056,-1.5271,0.0,0.0,0.0,0.0,0.0,0.0,-1.6017,-1.6108,0.0,0.0,0.0,0.0,0.0,0.0,0.0,0.0,0.0,0.0,0.0,0.0,0.0,0.0,0.0,0.0,0.0,0.0,0.0,0.0,0.0,0.0,0.0,0.0,0.0,0.0,0.0,0.0,0.0,0.0,0.0,0.0,0.0,0.0,0.0,0.0,0.0,0.0,0.0,0.0,0.0,0.0,0.0,0.0,0.0,0.0,0.0,0.0,0.0,0.0,0.0,0.0,0.0,0.0,0.0,-1.4407,-1.4721,-1.4276,-1.3146,-1.4199,-1.4375,-1.3507,-1.4776,-1.5586,0.0,0.0,0.0,0.0,0.0,0.0,0.0,0.0,0.0,0.0,0.0,0.0,0.0,0.0,0.0,0.0,0.0,0.0,0.0,0.0,0.0,0.0,0.0,0.0,0.0,0.0,0.0,0.0,0.0,0.0,0.0,0.0,0.0,0.0,0.0,0.0,0.0,0.0,0.0,0.0,0.0,-1.4851,-1.5147,-1.5019,0.0,0.0,0.0,0.0,-1.5209,-1.5487,0.0,0.0,0.0,0.0,0.0,0.0,0.0,0.0,0.0,0.0,0.0,0.0,0.0,0.0,0.0,0.0,0.0,0.0,0.0,0.0,0.0,0.0,0.0,0.0,0.0,0.0,0.0,0.0,0.0,0.0,0.0,0.0,0.0,0.0,0.0,0.0,0.0,0.0,0.0,0.0,0.0,0.0,0.0,0.0,0.0,0.0,0.0,0.0,0.0,0.0,0.0,0.0,0.0,0.0,0.0,0.0,-1.4333,-1.4245,-1.4062,-1.382,-1.4505,-1.4899,-1.4961,-1.6367,-1.6953,0.0,0.0,0.0,0.0,0.0,0.0,0.0,0.0,0.0,0.0,0.0,0.0,0.0,0.0,0.0,0.0,0.0,0.0,0.0,0.0,0.0,0.0,0.0,0.0,0.0,0.0,0.0,0.0,0.0,0.0,0.0,0.0,0.0,0.0,0.0,0.0,0.0,0.0,0.0,0.0,0.0,-1.4805,-1.4866,-1.4435,-1.4105,0.0,0.0,-1.4346,-1.5986,-1.5778,0.0,0.0,0.0,0.0,0.0,0.0,0.0,0.0,0.0,0.0,0.0,0.0,0.0,0.0,0.0,0.0,0.0,0.0,0.0,0.0,0.0,0.0,0.0,0.0,0.0,0.0,0.0,0.0,0.0,0.0,0.0,0.0,0.0,0.0,0.0,0.0,0.0,0.0,0.0,0.0,0.0,0.0,0.0,0.0,0.0,0.0,0.0,0.0,0.0,0.0,0.0,0.0,0.0,0.0,0.0,-1.4074,-1.4427,-1.3839,-1.3565,-1.3637,-1.43,-1.4724,-1.4862,-1.6278,-1.7016,0.0,0.0,0.0,0.0,0.0,0.0,0.0,0.0,0.0,0.0,0.0,0.0,0.0,0.0,0.0,0.0,0.0,0.0,0.0,0.0,0.0,0.0,0.0,0.0,0.0,0.0,0.0,0.0,0.0,0.0,0.0,0.0,0.0,0.0,0.0,0.0,0.0,0.0,0.0,0.0,0.0,0.0,-1.4083,-1.3802,0.0,0.0,0.0,-1.3484,-1.428,0.0,0.0,0.0,0.0,0.0,0.0,0.0,0.0,0.0,0.0,0.0,0.0,0.0,0.0,0.0,0.0,0.0,0.0,0.0,0.0,0.0,0.0,0.0,0.0,0.0,0.0,0.0,0.0,0.0,0.0,0.0,0.0,0.0,0.0,0.0,0.0,0.0,0.0,0.0,0.0,0.0,0.0,0.0,0.0,0.0,0.0,0.0,0.0,0.0,0.0,0.0,0.0,0.0,0.0,0.0,0.0,0.0,-1.4279,-1.3589,-1.3379,-1.3727,-1.4449,-1.486,-1.4958,-1.6345,0.0,0.0,0.0,0.0,0.0,0.0,0.0,0.0,0.0,0.0,0.0,0.0,0.0,0.0,0.0,0.0,0.0,0.0,0.0,0.0,0.0,0.0,0.0,0.0,0.0,0.0,0.0,-1.429,0.0,0.0,0.0,0.0,0.0,0.0,0.0,0.0,0.0,0.0,0.0,0.0,0.0,0.0,-1.3888,-1.3555,-1.3325,-1.3006,0.0,0.0,-1.2698,-1.3065,-1.3611,-1.4085,0.0,0.0,0.0,0.0,0.0,0.0,0.0,0.0,0.0,0.0,0.0,0.0,0.0,0.0,0.0,0.0,0.0,0.0,0.0,0.0,0.0,0.0,0.0,0.0,0.0,0.0,0.0,0.0,0.0,0.0,0.0,0.0,0.0,0.0,0.0,0.0,0.0,0.0,0.0,0.0,0.0,0.0,0.0,0.0,0.0,0.0,0.0,0.0,0.0,0.0,0.0,0.0,0.0,0.0,-1.3413,-1.3498,-1.3545,-1.3902,-1.459,-1.5337,-1.5779,-1.5922,-1.7207,-1.765,0.0,0.0,0.0,0.0,0.0,0.0,0.0,0.0,0.0,0.0,0.0,0.0,0.0,0.0,0.0,0.0,0.0,0.0,0.0,0.0,0.0,0.0,0.0,0.0,0.0,0.0,0.0,0.0,0.0,0.0,0.0,0.0,0.0,0.0,0.0,0.0,0.0,0.0,0.0,0.0,0.0,-1.3527,-1.3514,-1.311,-1.2726,0.0,-1.1909,-1.2071,-1.3509,-1.3569,-1.3882,-1.5075,0.0,0.0,0.0,0.0,0.0,0.0,0.0,0.0,0.0,0.0,0.0,0.0,0.0,0.0,0.0,0.0,0.0,0.0,0.0,0.0,0.0,0.0,0.0,0.0,0.0,0.0,0.0,0.0,0.0,0.0,0.0,0.0,0.0,0.0,0.0,0.0,0.0,0.0,0.0,0.0,0.0,0.0,0.0,0.0,0.0,0.0,0.0,0.0,0.0,0.0,0.0,0.0,0.0,-1.3987,-1.4081,-1.4144,-1.4332,-1.471,-1.5513,-1.5748,-1.5323,-1.6181,-1.6801,0.0,0.0,0.0,0.0,0.0,0.0,0.0,0.0,0.0,0.0,0.0,0.0,0.0,0.0,0.0,0.0,0.0,0.0,0.0,0.0,0.0,0.0,0.0,0.0,0.0,0.0,0.0,0.0,-1.5522,-1.5486,-1.5759,0.0,0.0,0.0,0.0,0.0,0.0,0.0,0.0,0.0,0.0,-1.3619,-1.3234,-1.3247,0.0,0.0,-1.1836,-1.1545,-1.2097,-1.2468,-1.2936,-1.3606,-1.3902,0.0,0.0,0.0,0.0,0.0,0.0,0.0,0.0,0.0,0.0,0.0,0.0,0.0,0.0,0.0,0.0,0.0,0.0,0.0,0.0,0.0,0.0,0.0,0.0,0.0,0.0,0.0,0.0,0.0,0.0,0.0,0.0,0.0,0.0,0.0,0.0,0.0,0.0,0.0,0.0,0.0,0.0,0.0,0.0,0.0,0.0,0.0,0.0,0.0,0.0,0.0,0.0,-1.4553,-1.4844,-1.4717,-1.4693,-1.4795,-1.567,-1.5757,-1.5048,-1.5783,-1.6526,0.0,0.0,0.0,0.0,0.0,0.0,0.0,0.0,0.0,0.0,0.0,0.0,0.0,0.0,0.0,0.0,0.0,0.0,0.0,0.0,0.0,0.0,0.0,0.0,0.0,0.0,0.0,0.0,-1.5911,-1.5723,-1.5833,0.0,0.0,0.0,0.0,0.0,0.0,0.0,0.0,0.0,0.0,-1.3814,-1.3106,-1.332,-1.3304,-1.2469,-1.1745,-1.1368,-1.1486,-1.1892,-1.2435,-1.3216,0.0,0.0,0.0,0.0,0.0,0.0,0.0,0.0,0.0,0.0,0.0,0.0,0.0,0.0,0.0,0.0,0.0,0.0,0.0,0.0,0.0,0.0,0.0,0.0,0.0,0.0,0.0,-2.0201,0.0,0.0,-2.0211,0.0,0.0,0.0,0.0,0.0,0.0,0.0,0.0,0.0,0.0,0.0,0.0,0.0,0.0,0.0,0.0,0.0,0.0,0.0,0.0,0.0,0.0,-1.4979,-1.5652,-1.5253,-1.5032,-1.5044,-1.5926,-1.6002,-1.5289,-1.6484,-1.7114,-1.711,0.0,0.0,0.0,0.0,0.0,0.0,0.0,0.0,0.0,0.0,0.0,0.0,0.0,0.0,0.0,0.0,0.0,0.0,0.0,0.0,0.0,0.0,0.0,0.0,0.0,0.0,-1.7617,-1.7118,-1.67,0.0,0.0,0.0,0.0,0.0,0.0,0.0,0.0,0.0,-1.2606,-1.3652,-1.4087,-1.3094,-1.3326,-1.3251,-1.2188,-1.1616,-1.1508,-1.2051,-1.2014,-1.2594,0.0,0.0,0.0,0.0,0.0,0.0,0.0,0.0,0.0,0.0,0.0,0.0,0.0,0.0,0.0,0.0,0.0,0.0,0.0,0.0,0.0,0.0,0.0,0.0,0.0,0.0,0.0,-1.9949,-2.0001,0.0,0.0,0.0,0.0,0.0,0.0,0.0,0.0,0.0,0.0,0.0,-1.9583,-1.956,0.0,0.0,0.0,0.0,0.0,0.0,0.0,0.0,0.0,0.0,0.0,0.0,-1.6504,-1.6683,-1.6773,-1.6763,-1.6714,-1.6593,-1.636,-1.602,-1.5824,-1.6247,-1.7337,0.0,0.0,0.0,0.0,0.0,0.0,0.0,0.0,0.0,0.0,0.0,0.0,0.0,0.0,0.0,0.0,0.0,0.0,0.0,0.0,0.0,0.0,0.0,0.0,0.0,-1.765,0.0,0.0,0.0,0.0,0.0,0.0,0.0,0.0,0.0,0.0,-1.344,-1.3041,-1.2875,-1.3805,-1.4271,-1.3702,-1.4053,-1.4036,0.0,0.0,0.0,0.0,0.0,0.0,0.0,0.0,0.0,0.0,0.0,0.0,0.0,0.0,-0.8875,-0.9109,-0.87,-0.8207,-0.7679,0.0,0.0,0.0,0.0,0.0,0.0,0.0,0.0,0.0,0.0,0.0,0.0,0.0,0.0,-1.9793,-1.9873,-1.9939,0.0,0.0,0.0,0.0,0.0,0.0,0.0,0.0,-1.9641,-1.9532,-1.9418,-1.9427,-1.9413,-1.9357,-1.9295,-1.8996,0.0,0.0,0.0,0.0,0.0,0.0,0.0,0.0,-1.7317,-1.7234,-1.7248,-1.7129,-1.6794,-1.6439,-1.6327,-1.6445,-1.6379,-1.6851,-1.7976,-1.8226,-1.8547,0.0,0.0,0.0,0.0,0.0,0.0,0.0,0.0,0.0,0.0,0.0,0.0,0.0,0.0,0.0,0.0,0.0,0.0,0.0,0.0,0.0,0.0,0.0,-1.736,0.0,0.0,0.0,0.0,0.0,0.0,0.0,0.0,0.0,-1.3914,-1.3493,-1.3168,-1.2995,-1.4084,-1.4609,-1.3816,0.0,0.0,0.0,0.0,0.0,0.0,0.0,-1.3198,-1.4031,-1.4193,-1.4063,-1.3622,-1.1891,-1.0189,-0.9166,0.0,0.0,-0.7062,-0.665,-0.6037,-0.5459,-0.4116,-0.2863,-0.2309,-0.014,0.2033,0.0,0.0,0.0,0.0,-1.9661,0.0,0.0,0.0,-1.9638,-1.9699,0.0,-1.9921,0.0,0.0,0.0,0.0,-2.0135,-1.9837,0.0,0.0,-1.9438,-1.9323,-1.9295,-1.9305,-1.9295,-1.928,-1.9122,-1.9122,-1.9237,-1.8516,0.0,0.0,0.0,0.0,0.0,0.0,-1.7416,-1.7336,-1.6845,-1.6178,-1.5445,-1.5542,-1.5941,-1.6613,-1.8009,-1.8798,-1.8912,-1.8183,-1.8203,-1.9093,-1.834,0.0,0.0,0.0,0.0,0.0,0.0,0.0,0.0,0.0,0.0,0.0,0.0,0.0,0.0,0.0,0.0,0.0,0.0,0.0,0.0,-1.7509,0.0,0.0,0.0,0.0,0.0,0.0,0.0,0.0,0.0,-1.4137,-1.3941,-1.3925,-1.3711,-1.3044,0.0,0.0,0.0,0.0,-1.4792,-1.3591,-1.3397,-1.345,-1.3512,-1.3848,-1.4299,-1.4921,0.0,0.0,-1.372,-1.1945,-1.0067,-0.8243,-0.6152,-0.4759,-0.5181,-0.467,-0.3985,-0.3084,-0.1507,-0.0051,0.0844,0.3065,0.5507,-2.0891,0.0,0.0,0.0,0.0,-2.0443,-2.037,-2.0249,-2.028,-2.0103,-1.9767,-2.0421,0.0,0.0,0.0,0.0,0.0,0.0,-1.9836,-1.9695,-1.9569,-1.9442,-1.9295,-1.9295,-1.9295,-1.928,-1.9225,-1.9248,-1.9279,-1.9086,-1.8873,-1.8745,0.0,0.0,0.0,0.0,-1.8278,-1.7748,-1.7727,-1.7279,-1.6442,-1.6039,-1.6078,-1.6595,-1.8035,-1.8626,-1.8231,-1.8574,-1.8672,-1.8502,-1.8779,0.0,0.0,0.0,0.0,0.0,0.0,0.0,0.0,0.0,0.0,0.0,0.0,0.0,0.0,0.0,0.0,0.0,0.0,0.0,-1.7224,-1.6994,-1.6799,0.0,0.0,0.0,0.0,0.0,0.0,0.0,0.0,0.0,-1.3908,-1.3806,-1.3787,0.0,0.0,-1.4611,-1.4164,-1.5032,-1.5471,-1.4876,-1.523,0.0,-1.573,-1.5847,-1.6159,-1.6802,-1.6485,-1.5686,-1.4395,-1.2107,-0.9908,-0.8194,-0.5553,-0.3323,-0.2347,-0.1838,-0.1407,-0.0859,0.0739,0.2466,0.356,0.5682,0.7849,-2.2192,-2.0907,-2.0897,-2.0894,-2.0918,-2.0886,-2.0616,-2.0207,-2.0213,-2.0038,-1.9785,-2.0323,-2.0378,-2.0116,-2.1157,0.0,0.0,0.0,-1.9889,-1.9781,-1.9621,-1.9495,-1.9385,-1.9326,-1.9295,-1.9289,-1.9218,-1.9214,-1.9286,-1.923,-1.9178,-1.9168,0.0,-1.8913,-1.8523,-1.8863,-1.8509,-1.7491,-1.7624,-1.7171,-1.6011,-1.6241,-1.6485,-1.6742,-1.8234,-1.8883,-1.855,-1.8718,-1.882,-1.8744,-1.8868,-1.899,0.0,0.0,0.0,0.0,0.0,0.0,0.0,0.0,0.0,0.0,0.0,-1.848,-1.8356,0.0,0.0,0.0,-1.7555,-1.7216,-1.686,-1.674,0.0,0.0,0.0,0.0,0.0,0.0,0.0,-1.4686,-1.4259,-1.4,-1.4053,-1.3986,-1.3993,-1.4268,-1.4362,-1.4462,-1.4518,0.0,-1.5717,-1.5449,-1.5913,-1.6311,-1.6315,-1.6797,-1.7344,-1.7765,-1.6709,-1.5383,-1.4074,-1.1972,-0.9752,-0.7582,-0.4739,-0.2041,-0.019,0.1304,0.2047,0.1476,0.3114,0.4908,0.5894,0.8284,1.0641,-2.3547,-2.2792,-2.2742,-2.2185,-2.1312,-2.124,-2.0756,-2.0001,-1.9935,-1.991,-1.9917,-1.999,-2.0073,-2.0212,-2.0135,0.0,-2.0193,-2.0005,-1.9924,-1.9897,-1.9645,-1.9513,-1.9499,-1.9376,-1.9305,-1.9289,-1.9122,-1.9122,-1.9299,-1.9122,-1.9095,-1.9188,-1.9148,-1.8756,-1.8081,-1.8681,-1.8261,-1.6765,-1.6855,-1.6188,-1.468,-1.6239,-1.703,-1.6927,-1.8529,-1.9392,-1.9372,-1.8749,-1.873,-1.9416,-1.874,-1.859,-1.9171,0.0,0.0,0.0,0.0,0.0,0.0,0.0,0.0,0.0,0.0,0.0,0.0,0.0,0.0,0.0,-1.7142,0.0,-1.667,-1.6717,0.0,0.0,0.0,-1.6172,-1.5928,-1.5352,-1.4876,-1.4627,0.0,0.0,-1.4259,-1.4385,-1.4369,-1.422,-1.4384,-1.4577,-1.4648,-1.5343,-1.5741,-1.5617,-1.5951,-1.6238,-1.6483,-1.7428,-1.8294,-1.831,-1.6503,-1.49,-1.3638,-1.202,-0.982,-0.7111,-0.3823,-0.0794,0.1455,0.4482,0.6271,0.44,0.5734,0.7418,0.8311,1.083,1.3345,-2.485,-2.4658,-2.4648,-2.4032,-2.3079,-2.3076,-2.2882,-2.2538,-2.1895,-2.1347,-2.0941,-2.0919,-2.1325,-2.1991,-2.0738,-2.0518,-2.1072,-2.0375,-1.999,-1.9897,-1.9832,-1.9704,-1.9509,-1.9467,-1.9414,-1.9305,-1.9249,-1.9259,-1.9289,-1.9249,-1.8947,-1.8414,-1.8375,-1.856,-1.894,-1.8547,-1.7903,-1.7008,-1.6511,-1.5756,-1.4822,-1.6297,-1.7029,-1.6917,-1.852,-1.9125,-1.8536,-1.899,-1.9017,-1.8646,-1.904,-1.9285,-1.9351,-1.9175,0.0,0.0,0.0,0.0,0.0,0.0,0.0,0.0,0.0,-1.8155,-1.7883,0.0,-1.744,0.0,-1.6884,-1.6607,-1.6402,-1.6802,0.0,0.0,-1.6624,-1.6611,-1.5981,-1.5322,-1.4859,-1.4634,-1.4395,-1.4283,-1.4299,-1.458,-1.4852,-1.4985,-1.4945,-1.4942,-1.507,-1.5915,-1.6531,-1.6615,-1.7441,-1.8438,-1.9046,-1.9785,-2.0042,-1.9739,-1.8418,-1.6913,-1.521,-1.3724,-1.1594,-0.8076,-0.3542,0.0342,0.3171,0.6769,0.9296,0.9434,0.9651,1.0047,1.1211,1.295,1.4745,-2.535,-2.534,-2.5359,-2.4995,-2.4413,-2.398,-2.3548,-2.311,-2.2633,-2.2026,-2.1359,-2.0938,-2.1063,-2.1512,-2.0622,-2.0441,-2.0824,-2.0355,-2.0098,-1.999,-1.9928,-1.9821,-1.967,-1.9553,-1.9467,-1.94,-1.9335,-1.9295,-1.9295,-1.9295,-1.9066,-1.8634,-1.8619,-1.8852,-1.9249,-1.8507,-1.7937,-1.7637,-1.6999,-1.6252,-1.5452,-1.6565,-1.7105,-1.6994,-1.819,-1.885,-1.8823,-1.9272,-1.9351,-1.8949,-1.9355,-1.9541,-1.9407,-1.9267,-1.9068,0.0,0.0,0.0,0.0,0.0,0.0,0.0,0.0,0.0,0.0,0.0,-1.7085,-1.6773,-1.6729,-1.673,-1.6743,-1.7298,-1.7522,-1.7167,-1.7408,-1.728,-1.6551,-1.5972,-1.5522,-1.5074,-1.4821,-1.4753,-1.4939,-1.5156,-1.5448,-1.5848,-1.5851,-1.5785,-1.5711,-1.6264,-1.6769,-1.7117,-1.8143,-1.9347,-2.044,-2.05,-2.0324,-1.9965,-1.8987,-1.7657,-1.6098,-1.5081,-1.336,-0.9817,-0.4292,0.0908,0.392,0.8843,1.2542,1.3198,1.3371,1.3313,1.3314,1.4627,1.6203,-2.542,-2.543,-2.542,-2.541,-2.5345,-2.4466,-2.3697,-2.3016,-2.2815,-2.2182,-2.128,-2.0656,-2.0312,-2.0205,-2.0207,-2.0208,-2.0201,-2.0201,-2.0173,-2.0098,-2.0001,-1.9939,-1.9899,-1.9679,-1.954,-1.9527,-1.939,-1.932,-1.9295,-1.9295,-1.9295,-1.9295,-1.9194,-1.9198,-1.9259,-1.8491,-1.8117,-1.8168,-1.7742,-1.7113,-1.6298,-1.7037,-1.7363,-1.7195,-1.7946,-1.8758,-1.956,-1.9601,-1.9641,-1.9677,-1.9651,-1.9555,-1.9433,-1.9341,-1.9191,0.0,-1.8786,0.0,0.0,0.0,0.0,0.0,0.0,0.0,0.0,-1.7191,-1.6781,-1.6348,-1.6707,-1.7014,-1.7192,-1.7876,-1.8261,-1.8023,-1.8215,-1.8023,-1.7171,-1.6774,-1.633,-1.5668,-1.527,-1.5241,-1.5703,-1.5817,-1.6054,-1.6483,-1.6744,-1.6761,-1.6462,-1.6567,-1.6902,-1.7415,-1.8555,-1.9912,-2.0674,-2.0478,-2.0136,-1.9822,-1.9042,-1.7875,-1.6748,-1.6271,-1.5064,-1.1577,-0.5158,0.0838,0.4032,1.0431,1.5323,1.6036,1.634,1.6149,1.5227,1.6077,1.7592,-2.5486,-2.5486,-2.5488,-2.5479,-2.5459,-2.5279,-2.5087,-2.4791,-2.3403,-2.1904,-2.0518,-2.1017,-2.0881,-2.0296,-2.024,-2.0203,-2.0204,-2.0207,-2.0208,-2.017,-2.0162,-2.0079,-1.9991,-1.9931,-1.9786,-1.9596,-1.9564,-1.9462,-1.9295,-1.9295,-1.9295,-1.9295,-1.8656,-1.8647,-1.9231,0.0,0.0,0.0,-1.7548,-1.7416,-1.7108,-1.7863,-1.8178,-1.801,-1.8865,0.0,-1.9592,-1.9649,-1.9679,-1.9701,-1.9681,0.0,0.0,0.0,0.0,0.0,0.0,0.0,0.0,0.0,0.0,0.0,-1.8121,-1.7878,-1.7541,-1.7002,-1.6596,-1.6414,-1.6892,-1.7099,-1.6784,-1.816,-1.8486,-1.7136,-1.8214,-1.8377,-1.6613,-1.6473,-1.6315,-1.5617,-1.5448,-1.5498,-1.5792,-1.602,-1.6304,-1.6612,-1.7003,-1.7264,-1.7199,-1.7342,-1.7546,-1.7911,-1.9639,-2.0985,-2.0871,-2.1365,-2.131,-2.0652,-1.977,-1.8962,-1.82,-1.7776,-1.6473,-1.3234,-0.5454,0.1423,0.4548,1.1811,1.7075,1.7558,1.7723,1.7632,1.6865,1.7576,1.8627,-2.5605,-2.56,-2.561,-2.5585,0.0,-2.5599,-2.5561,-2.5438,-2.4536,-2.3158,-2.1557,-2.1557,-2.1091,-2.0321,-2.0688,-2.0603,-2.0201,-2.0203,-2.0205,-2.0198,-2.0198,-2.0171,-2.0088,-2.0021,-1.993,-1.9814,-1.9741,-1.963,-1.9457,-1.9439,-1.9429,-1.9383,-1.8991,-1.9,-1.9368,-1.9077,-1.8741,-1.8481,-1.8643,-1.8456,-1.7944,-1.8338,-1.8432,-1.8227,-1.8756,0.0,0.0,0.0,0.0,0.0,0.0,0.0,0.0,-1.9476,0.0,-1.8973,-1.8843,-1.8659,-1.8339,-1.831,-1.8286,-1.8244,-1.8078,-1.7766,-1.7272,-1.6825,-1.6482,-1.6336,-1.6969,-1.7311,-1.7176,-1.8342,-1.8736,-1.7775,-1.8412,-1.8323,-1.6956,-1.6787,-1.6608,-1.6005,-1.5848,-1.5939,-1.6253,-1.6428,-1.6736,-1.7136,-1.7579,-1.7872,-1.8005,-1.8013,-1.8191,-1.8932,-2.0235,-2.1213,-2.1038,-2.1419,-2.1577,-2.0584,-2.0079,-1.9694,-1.9217,-1.8948,-1.7857,-1.4691,-0.8311,-0.2383,0.1072,0.8494,1.4878,1.552,1.7216,1.8467,1.7984,1.8196,1.8653,-2.5697,-2.5694,-2.5697,-2.5694,-2.5693,-2.5693,-2.5588,-2.5395,-2.5298,0.0,0.0,-2.1927,-2.1132,-2.0356,-2.1001,-2.0897,-2.022,-2.0211,-2.0222,-2.0225,-2.0215,-2.0225,-2.0216,-2.0107,-2.0041,-1.9992,-1.988,-1.9776,-1.9641,-1.9615,-1.9564,-1.9517,-1.9501,-1.9505,-1.9497,-1.9601,-1.9668,-1.9698,-1.9841,-1.9533,-1.8785,-1.8807,-1.8707,-1.8476,-1.864,-1.9068,-1.9752,-1.9955,-1.9978,-1.9864,-1.9839,-1.9775,-1.9623,-1.9518,-1.9322,-1.9014,-1.8878,-1.866,-1.8339,-1.8293,-1.8253,-1.8202,-1.8018,-1.7695,-1.7183,-1.6876,-1.6591,-1.6394,-1.7149,-1.7614,-1.759,-1.8439,-1.8799,-1.839,-1.8476,-1.8216,-1.7176,-1.7139,-1.6932,-1.634,-1.6214,-1.6397,-1.6713,-1.6879,-1.7165,-1.7739,-1.8132,-1.8524,-1.8771,-1.8681,-1.8887,-1.9817,-2.0657,-2.1079,-2.0936,-2.1228,-2.1055,-2.036,-2.0214,-2.0141,-1.9892,-1.9692,-1.8674,-1.6449,-1.1428,-0.6784,-0.3359,0.4991,1.1294,1.2517,1.6344,1.9352,1.8764,1.8515,1.854,-2.57,-2.5694,-2.57,-2.5696,-2.5701,-2.5699,-2.5282,-2.4576,-2.4436,-2.3449,-2.1857,-2.1734,-2.1167,-2.0299,-2.0424,-2.04,-2.0292,-2.0285,-2.0294,-2.0277,-2.0296,-2.0296,-2.0296,-2.0278,-2.0162,-2.0003,-1.9993,-1.9902,-1.9767,-1.9667,-1.9599,-1.9577,-1.9517,-1.9501,-1.9503,-1.9512,-1.9583,-1.969,-1.99,-1.99,-1.9713,-1.9651,-1.9583,-1.9498,-1.9554,-1.967,-1.9809,-1.998,-2.0079,-2.0059,-2.0001,-1.9877,-1.9698,-1.9663,-1.9467,-1.9034,-1.8931,-1.8716,-1.8339,-1.8248,-1.8211,-1.819,-1.8027,-1.7861,-1.7772,-1.7581,-1.7353,-1.7198,-1.7735,-1.7975,-1.7584,-1.8346,-1.8478,-1.751,-1.8059,-1.8013,-1.6568,-1.6868,-1.693,-1.6307,-1.6406,-1.6611,-1.6839,-1.7215,-1.762,-1.8016,-1.8485,-1.8933,-1.9364,-1.9485,-1.9537,-1.9917,-2.0769,-2.1034,-2.065,-2.1046,-2.1099,-2.0488,-2.034,-2.0261,-1.9982,-1.9677,-1.8788,-1.6996,-1.1982,-0.7612,-0.4799,0.4417,0.9786,1.1515,1.533,1.8782,1.8241,1.8457,1.8641,-2.5694,-2.57,-2.5696,-2.5697,-2.5699,-2.5663,-2.5434,-2.4968,-2.4023,-2.2906,-2.181,-2.1758,-2.1221,-2.0386,-2.0785,-2.0745,-2.0302,-2.0302,-2.0302,-2.0302,-2.0302,-2.0302,-2.0302,-2.0302,-2.0241,-2.017,-2.0161,-2.0069,-1.9856,-1.9787,-1.97,-1.9596,-1.9601,-1.9608,-1.9601,-1.9612,-1.9655,-1.971,-1.9794,-1.9818,-1.9804,-1.9837,-1.9781,-1.9604,-1.9766,-1.9862,-1.9855,-2.0011,-2.0108,-2.0108,-2.0079,-1.9981,-1.9821,-1.9738,-1.9553,-1.9222,-1.9024,-1.8753,-1.8432,-1.8281,-1.8181,-1.8181,-1.813,-1.8104,-1.8222,-1.783,-1.7501,-1.7342,-1.7721,-1.7827,-1.7461,-1.784,-1.7818,-1.7083,-1.7343,-1.7164,-1.6439,-1.6584,-1.6753,-1.6499,-1.6749,-1.7032,-1.7209,-1.7647,-1.8073,-1.8442,-1.8926,-1.9457,-1.9894,-1.9945,-1.9942,-2.0061,-2.0521,-2.0682,-2.0395,-2.063,-2.0742,-2.0441,-2.0371,-2.0218,-1.9942,-1.9531,-1.8499,-1.6878,-1.366,-1.1154,-0.8792,-0.2288,0.2662,0.4972,0.8766,1.2089,1.3991,1.6058,1.7595,-2.5687,-2.5675,-2.5675,-2.5662,-2.567,-2.5623,-2.5512,-2.5201,-2.3943,-2.2798,-2.1886,-2.1633,-2.1077,-2.0456,-2.1039,-2.0946,-2.0359,-2.03,-2.0302,-2.0302,-2.0302,-2.0302,-2.0302,-2.0302,-2.0302,-2.0302,-2.0275,-2.0162,-1.9961,-1.9885,-1.9783,-1.9638,-1.9684,-1.971,-1.9742,-1.9754,-1.9726,-1.972,-1.9719,-1.9712,-1.9712,-1.979,-1.9769,-1.9617,-1.9783,-1.9918,-1.995,-2.0069,-2.0144,-2.0135,-2.0144,-2.0089,-1.995,-1.98,-1.9645,-1.9425,-1.9086,-1.8771,-1.8461,-1.8293,-1.8232,-1.8256,-1.8223,-1.8286,-1.8434,-1.8044,-1.7693,-1.7592,-1.7715,-1.7707,-1.7575,-1.7522,-1.7393,-1.7109,-1.6925,-1.6749,-1.6479,-1.657,-1.6712,-1.6783,-1.7142,-1.748,-1.7743,-1.8104,-1.8547,-1.9008,-1.951,-1.9944,-2.0174,-2.0241,-2.0275,-2.0281,-2.0345,-2.0439,-2.0426,-2.0409,-2.0401,-2.0381,-2.0275,-2.004,-1.9705,-1.923,-1.8261,-1.6677,-1.5716,-1.4009,-1.2018,-0.736,-0.3435,-0.1173,0.3131,0.6971,0.9697,1.1697,1.4942,-2.5664,-2.561,-2.5608,-2.5613,-2.561,-2.561,-2.5217,-2.4585,-2.4315,-2.3367,-2.1987,-2.1077,-2.0675,-2.0487,-2.0526,-2.0453,-2.0295,-2.0292,-2.0302,-2.0302,-2.0302,-2.0302,-2.0302,-2.0302,-2.0302,-2.0285,-2.0188,-2.012,-2.006,-1.982,-1.971,-1.9671,-1.9684,-1.9773,-1.9875,-1.9877,-1.9821,-1.972,-1.972,-1.9707,-1.9707,-1.972,-1.9752,-1.9855,-1.9886,-1.996,-2.0012,-2.0208,-2.0286,-2.0286,-2.0277,-2.0216,-2.0079,-1.996,-1.9764,-1.9504,-1.9111,-1.8698,-1.8289,-1.8211,-1.8277,-1.8443,-1.8298,-1.8307,-1.8494,-1.8281,-1.8194,-1.8233,-1.8091,-1.7914,-1.7858,-1.7772,-1.7612,-1.7361,-1.7272,-1.7216,-1.6968,-1.6942,-1.7035,-1.7205,-1.7509,-1.7786,-1.8162,-1.8617,-1.9111,-1.9597,-1.9926,-2.0209,-2.0291,-2.0388,-2.0459,-2.0453,-2.049,-2.0491,-2.0472,-2.0387,-2.0337,-2.0296,-2.0088,-1.9816,-1.9411,-1.8845,-1.799,-1.6816,-1.5791,-1.4666,-1.2377,-0.8369,-0.4614,-0.3755,0.0279,0.5624,0.6725,0.7129,0.9371,-2.5618,-2.5601,-2.56,-2.5605,-2.5601,-2.5603,-2.5407,-2.508,-2.4586,-2.3993,-2.3249,-2.1964,-2.104,-2.0516,-2.0431,-2.0365,-2.0301,-2.0289,-2.0302,-2.0302,-2.0302,-2.0302,-2.0302,-2.0302,-2.0302,-2.0302,-2.0246,-2.0177,-2.0069,-1.9834,-1.9713,-1.9717,-1.9774,-1.9876,-2.0012,-2.0021,-1.9982,-1.992,-1.9864,-1.9811,-1.983,-1.9809,-1.9853,-1.9897,-1.9961,-1.9783,-1.9439,-1.9866,-1.9986,-1.961,-2.0004,-2.0267,-2.0226,-2.0098,-1.993,-1.9719,-1.9204,-1.8762,-1.8394,-1.8383,-1.8403,-1.8485,-1.8414,-1.8485,-1.8753,-1.8535,-1.8463,-1.8648,-1.8293,-1.7983,-1.7914,-1.7695,-1.7511,-1.7401,-1.7257,-1.7124,-1.7018,-1.7247,-1.7442,-1.7563,-1.8095,-1.8513,-1.8762,-1.9224,-1.9688,-2.004,-2.0233,-2.0317,-2.0405,-2.0473,-2.05,-2.0508,-2.0508,-2.0504,-2.0491,-2.0428,-2.0323,-2.0199,-2.0034,-1.9741,-1.9219,-1.868,-1.7924,-1.6865,-1.594,-1.5034,-1.407,-1.182,-0.8884,-0.7167,-0.3873,0.0569,0.1321,0.3375,0.6441,-2.5605,-2.5606,-2.5606,-2.5603,-2.56,-2.5605,-2.5605,-2.5551,-2.5002,-2.45,-2.3935,-2.2754,-2.1581,-2.0625,-2.0436,-2.0374,-2.0291,-2.0296,-2.0302,-2.0302,-2.0302,-2.0302,-2.0302,-2.0302,-2.0302,-2.0285,-2.0208,-2.0102,-1.9954,-1.9809,-1.9726,-1.9757,-1.9897,-2.0031,-2.0153,-2.0151,-2.0126,-2.0088,-1.9991,-1.994,-1.995,-1.996,-1.996,-1.996,-2.005,-1.982,-1.9264,-1.9828,-1.9912,-1.9417,-1.9956,-2.0302,-2.0294,-2.0172,-1.9992,-1.9746,-1.9283,-1.886,-1.8594,-1.8584,-1.8612,-1.8613,-1.8603,-1.8697,-1.8877,-1.8734,-1.8697,-1.886,-1.8489,-1.8192,-1.8078,-1.7849,-1.7707,-1.7679,-1.7514,-1.7394,-1.7462,-1.7776,-1.8009,-1.8104,-1.8655,-1.9168,-1.9368,-1.9763,-2.0116,-2.0242,-2.033,-2.0373,-2.0463,-2.0503,-2.0505,-2.0506,-2.0481,-2.0438,-2.0437,-2.0357,-2.0234,-2.003,-1.983,-1.947,-1.9012,-1.8462,-1.7796,-1.6764,-1.5927,-1.5146,-1.4337,-1.3219,-1.2154,-1.099,-0.8056,-0.4671,-0.4069,-0.0971,0.0203,-2.561,-2.5603,-2.5603,-2.5608,-2.5597,-2.5571,-2.559,-2.5607,-2.5564,-2.4696,-2.3428,-2.3074,-2.2125,-2.0697,-2.0529,-2.0361,-2.0308,-2.0291,-2.0292,-2.0302,-2.0302,-2.0302,-2.0302,-2.0302,-2.0302,-2.0275,-2.0102,-1.9886,-1.9681,-1.9698,-1.9773,-1.9894,-2.0019,-2.0163,-2.0257,-2.0277,-2.0225,-2.0117,-2.0107,-2.0088,-2.0098,-2.0088,-2.0079,-2.0088,-2.0098,-2.0105,-2.0134,-2.0248,-2.0246,-2.0225,-2.0236,-2.0294,-2.0285,-2.0172,-1.9889,-1.9494,-1.9271,-1.9076,-1.8834,-1.8771,-1.8825,-1.8921,-1.8852,-1.8852,-1.9007,-1.8887,-1.8825,-1.8834,-1.8744,-1.8652,-1.8585,-1.8415,-1.8373,-1.8379,-1.8417,-1.8359,-1.8408,-1.8469,-1.8735,-1.8884,-1.9142,-1.9485,-1.9894,-2.0142,-2.0257,-2.032,-2.0399,-2.0476,-2.0488,-2.0508,-2.0497,-2.0468,-2.0395,-2.0305,-2.0288,-2.0212,-2.0053,-1.9858,-1.9533,-1.9081,-1.8605,-1.8116,-1.7407,-1.6746,-1.6083,-1.5345,-1.4544,-1.3644,-1.2694,-1.1676,-1.0746,-0.8839,-0.7355,-0.8303,-0.6996,-2.6111,-2.5605,-2.5605,-2.5603,-2.5548,-2.5047,-2.5156,-2.559,-2.5092,-2.4863,-2.4578,-2.3599,-2.276,-2.2154,-2.0979,-2.0432,-2.0366,-2.0305,-2.0291,-2.0292,-2.0298,-2.0291,-2.0302,-2.0302,-2.0302,-2.0275,-2.0198,-2.0066,-1.9935,-1.9951,-1.998,-2.0029,-2.0069,-2.0162,-2.0267,-2.0302,-2.0269,-2.0234,-2.0234,-2.0234,-2.0216,-2.0225,-2.0225,-2.0225,-2.0225,-1.9992,-1.9477,-1.9919,-1.9958,-1.9494,-1.9909,-2.0208,-2.0269,-2.0098,-1.9864,-1.9602,-1.9356,-1.9139,-1.9005,-1.9007,-1.8981,-1.8989,-1.8947,-1.8996,-1.9122,-1.904,-1.8964,-1.9072,-1.9166,-1.9191,-1.9097,-1.878,-1.8531,-1.8616,-1.8646,-1.8682,-1.8761,-1.8904,-1.9068,-1.9227,-1.9545,-1.9922,-2.0125,-2.0332,-2.0419,-2.0439,-2.0465,-2.0494,-2.0505,-2.0504,-2.0461,-2.0389,-2.0325,-2.0247,-2.0059,-2.0021,-1.9907,-1.9697,-1.9409,-1.9049,-1.861,-1.8092,-1.743,-1.692,-1.6266,-1.5608,-1.484,-1.4076,-1.3157,-1.2375,-1.1474,-1.0651,-0.9597,-0.9562,-0.923,-2.613,-2.5646,-2.5601,-2.561,-2.5493,-2.4742,-2.4729,-2.5159,-2.4369,-2.417,-2.4201,-2.3212,-2.2569,-2.2148,-2.1016,-2.0465,-2.0404,-2.0337,-2.0298,-2.0289,-2.0296,-2.0291,-2.0292,-2.0302,-2.0302,-2.0285,-2.026,-2.0172,-2.006,-2.0079,-2.0108,-2.0108,-2.0135,-2.0208,-2.0277,-2.0302,-2.0302,-2.0302,-2.0302,-2.0294,-2.0302,-2.0302,-2.0302,-2.0302,-2.0302,-2.0035,-1.9439,-1.9901,-1.9949,-1.9565,-1.9909,-2.019,-2.0217,-2.0011,-1.9841,-1.9676,-1.9467,-1.9152,-1.8941,-1.9127,-1.9149,-1.8836,-1.8825,-1.8891,-1.902,-1.8656,-1.8529,-1.8638,-1.8998,-1.9173,-1.9133,-1.8952,-1.8893,-1.8977,-1.8968,-1.9013,-1.9127,-1.9295,-1.9473,-1.9649,-1.9922,-2.0194,-2.0349,-2.0451,-2.0491,-2.0509,-2.0507,-2.0479,-2.0452,-2.0437,-2.0373,-2.0252,-2.0192,-2.0069,-1.9899,-1.9806,-1.9725,-1.9531,-1.9301,-1.8949,-1.8609,-1.8056,-1.7532,-1.7044,-1.6451,-1.5839,-1.5142,-1.444,-1.3716,-1.2989,-1.2295,-1.1489,-1.0756,-1.012,-0.9796,-2.5595,-2.5539,-2.5601,-2.5558,-2.5383,-2.4603,-2.4367,-2.4341,-2.3496,-2.2889,-2.2692,-2.2067,-2.1686,-2.0943,-2.0728,-2.0462,-2.0399,-2.0342,-2.0313,-2.0296,-2.0296,-2.03,-2.0292,-2.03,-2.0292,-2.0302,-2.0171,-2.005,-1.9974,-2.006,-2.0126,-2.0135,-2.0234,-2.0277,-2.0302,-2.0302,-2.0302,-2.0302,-2.0302,-2.0302,-2.0302,-2.0302,-2.0302,-2.0302,-2.0302,-2.0265,-2.0217,-2.0248,-2.0249,-2.0227,-2.0248,-2.0234,-2.0088,-1.998,-1.9832,-1.9717,-1.9624,-1.9179,-1.8563,-1.9169,-1.9272,-1.8689,-1.8515,-1.8665,-1.8515,-1.7932,-1.748,-1.7538,-1.8128,-1.854,-1.8643,-1.9132,-1.9553,-1.9587,-1.9481,-1.948,-1.9588,-1.972,-1.9923,-2.0172,-2.0283,-2.0342,-2.0462,-2.0506,-2.0507,-2.0505,-2.0489,-2.0443,-2.0373,-2.0339,-2.0256,-2.0136,-2.0017,-1.9905,-1.975,-1.9579,-1.9492,-1.935,-1.9111,-1.8816,-1.8545,-1.8094,-1.758,-1.7077,-1.6305,-1.5666,-1.5082,-1.4399,-1.407,-1.3425,-1.2864,-1.2295,-1.1631,-1.0962,-1.055,-2.5289,-2.4868,-2.5388,-2.5268,-2.4687,-2.3863,-2.3825,-2.4218,-2.2909,-2.2783,-2.3281,-2.2402,-2.2031,-2.1982,-2.115,-2.0512,-2.0402,-2.0371,-2.0346,-2.031,-2.0294,-2.0296,-2.0299,-2.0292,-2.0301,-2.0289,-2.0265,-2.0212,-2.0178,-2.0215,-2.0243,-2.0251,-2.0277,-2.0294,-2.0302,-2.0302,-2.0302,-2.0302,-2.0302,-2.0302,-2.0302,-2.0302,-2.0302,-2.0302,-2.0302,-2.0302,-2.0294,-2.0208,-2.0217,-2.0285,-2.0208,-2.0098,-1.9971,-1.9919,-1.9816,-1.9651,-1.9615,-1.9248,-1.8614,-1.916,-1.9354,-1.8762,-1.8952,-1.8983,-1.8586,-1.8214,-1.7727,-1.7382,-1.8049,-1.8611,-1.8754,-1.9447,-1.9865,-1.975,-1.9715,-1.9794,-1.9972,-2.0079,-2.02,-2.0329,-2.0412,-2.0452,-2.0492,-2.0506,-2.0506,-2.0487,-2.0457,-2.0404,-2.0357,-2.0251,-2.0151,-1.9992,-1.9867,-1.9735,-1.9574,-1.9457,-1.9374,-1.9246,-1.9026,-1.8789,-1.8498,-1.8161,-1.7659,-1.697,-1.62,-1.552,-1.4934,-1.4491,-1.4114,-1.386,-1.3352,-1.2791,-1.2235,-1.1709,-1.1201,-2.5114,-2.4449,-2.4934,-2.4874,-2.4258,-2.3169,-2.3337,-2.3988,-2.2274,-2.2204,-2.2939,-2.1984,-2.1643,-2.1856,-2.1014,-2.0527,-2.0391,-2.0386,-2.0392,-2.0337,-2.0268,-2.0268,-2.0287,-2.025,-2.0235,-2.0246,-2.023,-2.0249,-2.0302,-2.0302,-2.0294,-2.0294,-2.0302,-2.0302,-2.0302,-2.0302,-2.0302,-2.0302,-2.0302,-2.0302,-2.0302,-2.0302,-2.0302,-2.0302,-2.0302,-2.0302,-2.0294,-2.0216,-2.0207,-2.0259,-2.0207,-2.0126,-1.9991,-1.9928,-1.9816,-1.9681,-1.9559,-1.9243,-1.8653,-1.9267,-1.9437,-1.89,-1.9105,-1.9013,-1.8313,-1.7962,-1.7329,-1.6734,-1.7226,-1.7975,-1.8354,-1.9139,-1.971,-2.0002,-2.0002,-2.0069,-2.0245,-2.0332,-2.0392,-2.0436,-2.0472,-2.0507,-2.0512,-2.0508,-2.0482,-2.0433,-2.039,-2.0286,-2.0227,-2.0096,-1.9963,-1.9836,-1.9692,-1.9541,-1.9404,-1.9331,-1.928,-1.9143,-1.8977,-1.8749,-1.8511,-1.8191,-1.774,-1.6821,-1.6016,-1.5359,-1.4772,-1.446,-1.4129,-1.394,-1.3717,-1.3304,-1.274,-1.2067,-1.1568,-2.5084,-2.4353,-2.4368,-2.4428,-2.4197,-2.2763,-2.3002,-2.3857,-2.1873,-2.133,-2.1763,-2.1111,-2.0667,-2.0668,-2.0636,-2.0475,-2.0409,-2.0385,-2.0389,-2.036,-2.0289,-2.025,-2.0289,-2.0193,-2.0178,-2.0197,-2.0162,-2.0199,-2.0294,-2.0302,-2.0302,-2.0302,-2.0302,-2.0292,-2.0291,-2.0292,-2.0292,-2.0298,-2.0292,-2.0302,-2.0302,-2.0302,-2.0302,-2.0302,-2.03,-2.0298,-2.0298,-2.0291,-2.0283,-2.0302,-2.0294,-2.0226,-2.0088,-1.998,-1.9873,-1.9735,-1.9651,-1.9232,-1.889,-1.9391,-1.9588,-1.8935,-1.8884,-1.8543,-1.7822,-1.7081,-1.6321,-1.5536,-1.6107,-1.689,-1.7709,-1.8566,-1.9364,-2.0134,-2.0265,-2.0317,-2.0406,-2.0444,-2.048,-2.0493,-2.0502,-2.051,-2.0504,-2.0489,-2.0426,-2.0358,-2.0307,-2.0182,-2.0031,-1.992,-1.9766,-1.964,-1.9513,-1.937,-1.9236,-1.9129,-1.908,-1.8982,-1.8795,-1.8524,-1.8266,-1.7941,-1.7495,-1.66,-1.5869,-1.5228,-1.472,-1.441,-1.415,-1.3967,-1.3769,-1.3624,-1.3181,-1.2484,-1.1867,-2.5039,-2.4305,-2.432,-2.4362,-2.4258,-2.3222,-2.3378,-2.4101,-2.2338,-2.1935,-2.2285,-2.1153,-2.0894,-2.1355,-2.0754,-2.0473,-2.041,-2.0387,-2.0389,-2.0392,-2.0328,-2.0286,-2.0277,-2.0222,-2.0188,-2.0204,-2.0168,-2.0232,-2.0285,-2.0292,-2.0302,-2.0302,-2.0302,-2.0296,-2.0301,-2.0296,-2.0294,-2.0301,-2.0296,-2.0292,-2.0302,-2.0292,-2.0302,-2.0292,-2.0296,-2.0295,-2.0295,-2.0295,-2.0296,-2.0292,-2.0294,-2.0243,-2.0117,-2.0108,-2.0038,-1.9864,-1.979,-1.952,-1.9076,-1.9545,-1.9662,-1.9071,-1.8991,-1.8654,-1.7741,-1.6894,-1.6064,-1.5517,-1.5923,-1.6772,-1.7682,-1.8581,-1.9469,-2.0251,-2.0276,-2.0351,-2.0461,-2.0486,-2.0511,-2.0508,-2.0504,-2.0497,-2.0476,-2.0399,-2.0333,-2.0263,-2.0191,-2.0098,-1.9939,-1.9797,-1.9682,-1.949,-1.9346,-1.9202,-1.9081,-1.8964,-1.8872,-1.8807,-1.8548,-1.8165,-1.7794,-1.7365,-1.6846,-1.6134,-1.5672,-1.5064,-1.4655,-1.4275,-1.4118,-1.3987,-1.3874,-1.3702,-1.3327,-1.2748,-1.2193,-2.5024,-2.4264,-2.4296,-2.4326,-2.4251,-2.3486,-2.3628,-2.4033,-2.2992,-2.2346,-2.2356,-2.192,-2.1411,-2.1182,-2.105,-2.0753,-2.0428,-2.0389,-2.0389,-2.0392,-2.0313,-2.0257,-2.0205,-2.0171,-2.0162,-2.016,-2.0122,-2.0196,-2.0275,-2.03,-2.03,-2.0302,-2.0302,-2.0292,-2.0289,-2.0298,-2.0301,-2.0299,-2.0301,-2.0294,-2.0292,-2.0294,-2.0299,-2.0304,-2.0318,-2.0324,-2.034,-2.0344,-2.0336,-2.0415,-2.06,-2.0613,-2.0251,-2.0498,-2.0432,-2.0057,-1.992,-1.9713,-1.9581,-1.9887,-1.9757,-1.9217,-1.9078,-1.8403,-1.7431,-1.6681,-1.6106,-1.5418,-1.5697,-1.6517,-1.7684,-1.8659,-1.9206,-1.9364,-1.9677,-2.0009,-2.0427,-2.0508,-2.0513,-2.0488,-2.0446,-2.0419,-2.0413,-2.0279,-2.0182,-2.0127,-2.0069,-1.9959,-1.9832,-1.9716,-1.9576,-1.9352,-1.9193,-1.9057,-1.8931,-1.8824,-1.861,-1.8529,-1.8068,-1.7726,-1.7392,-1.6919,-1.6499,-1.5971,-1.547,-1.5013,-1.4669,-1.4334,-1.4139,-1.4007,-1.3934,-1.3694,-1.3297,-1.29,-1.2342,-2.5042,-2.4348,-2.432,-2.4352,-2.4342,-2.3592,-2.364,-2.4137,-2.3245,-2.2422,-2.1975,-2.2407,-2.1578,-2.0457,-2.1033,-2.1082,-2.0389,-2.0389,-2.0389,-2.036,-2.0294,-2.0223,-2.0172,-2.0126,-2.0125,-2.0123,-2.005,-2.0142,-2.0264,-2.0294,-2.0296,-2.0298,-2.0291,-2.0316,-2.0325,-2.0315,-2.0302,-2.0311,-2.0299,-2.0289,-2.0296,-2.0294,-2.0315,-2.0338,-2.0381,-2.0409,-2.0413,-2.0413,-2.0409,-2.0413,-2.1046,-2.0877,-2.0444,-2.0949,-2.086,-2.0296,-2.0059,-2.0039,-2.0148,-2.0171,-2.0022,-1.9463,-1.9134,-1.8387,-1.7132,-1.6532,-1.6019,-1.5574,-1.5346,-1.6349,-1.7592,-1.8617,-1.8786,-1.8662,-1.8912,-1.9508,-2.0204,-2.0478,-2.0455,-2.0349,-2.0201,-2.0179,-2.0124,-2.0041,-1.9903,-1.9899,-1.9853,-1.9771,-1.9663,-1.9554,-1.9376,-1.9162,-1.9007,-1.8895,-1.8779,-1.8667,-1.8413,-1.8191,-1.758,-1.7149,-1.6979,-1.6602,-1.6289,-1.5889,-1.5492,-1.5134,-1.478,-1.4507,-1.4218,-1.4027,-1.3907,-1.3613,-1.3257,-1.2814,-1.2324,-2.5393,-2.517,-2.4554,-2.4724,-2.5084,-2.3808,-2.3625,-2.4216,-2.2763,-2.2065,-2.1636,-2.1237,-2.0843,-2.0418,-2.0695,-2.056,-2.0418,-2.0389,-2.0389,-2.0389,-2.0376,-2.0318,-2.0248,-2.0162,-2.0134,-2.0157,-2.0164,-2.0208,-2.0272,-2.0296,-2.0296,-2.0296,-2.0309,-2.0331,-2.0367,-2.0386,-2.0385,-2.0371,-2.0337,-2.0294,-2.0315,-2.0314,-2.0349,-2.039,-2.0447,-2.05,-2.0533,-2.0503,-2.0503,-2.0561,-2.062,-2.0613,-2.0487,-2.0592,-2.0597,-2.0408,-2.0291,-2.0297,-2.0366,-2.0371,-2.0348,-2.0003,-1.9029,-1.8072,-1.7644,-1.6376,-1.6026,-1.6077,-1.6315,-1.6811,-1.7607,-1.8026,-1.8293,-1.8542,-1.8882,-1.9376,-2.0067,-2.0336,-2.0137,-1.9593,-1.94,-1.9264,-1.9168,-1.9107,-1.9202,-1.9524,-1.9607,-1.9563,-1.9434,-1.9315,-1.918,-1.8956,-1.8878,-1.8743,-1.8498,-1.8348,-1.8065,-1.781,-1.7231,-1.6759,-1.6557,-1.6332,-1.6017,-1.579,-1.5566,-1.5218,-1.4866,-1.4548,-1.4272,-1.408,-1.384,-1.3478,-1.3098,-1.272,-1.2264,-2.5511,-2.5511,-2.5116,-2.5247,-2.5515,-2.4728,-2.4115,-2.3767,-2.3282,-2.2227,-2.1378,-2.1314,-2.1159,-2.0457,-2.0792,-2.0859,-2.0457,-2.0389,-2.0389,-2.0373,-2.0369,-2.0356,-2.0342,-2.0256,-2.0212,-2.0242,-2.0242,-2.0272,-2.0288,-2.0295,-2.0295,-2.0305,-2.033,-2.0373,-2.0404,-2.0427,-2.0438,-2.0432,-2.039,-2.0342,-2.0354,-2.0353,-2.0405,-2.048,-2.0526,-2.0555,-2.0591,-2.0564,-2.0564,-2.0566,-2.0533,-2.0477,-2.0562,-2.0769,-2.0813,-2.0458,-2.039,-2.0413,-2.0439,-2.0442,-2.0304,-1.9954,-1.9035,-1.8498,-1.8005,-1.6999,-1.6856,-1.7123,-1.7249,-1.737,-1.7332,-1.7766,-1.8024,-1.7951,-1.8599,-1.9166,-1.9583,-2.0,-1.9957,-1.9287,-1.9277,-1.9135,-1.8945,-1.8463,-1.8554,-1.8933,-1.8927,-1.8879,-1.8838,-1.8755,-1.8883,-1.8798,-1.8743,-1.8584,-1.8278,-1.7997,-1.7676,-1.7367,-1.6943,-1.6565,-1.632,-1.6052,-1.5784,-1.5639,-1.5507,-1.5257,-1.4926,-1.462,-1.4205,-1.3867,-1.3586,-1.3288,-1.2965,-1.2579,-1.2047,-2.5544,-2.5608,-2.5656,-2.5695,-2.5686,-2.5476,-2.462,-2.3562,-2.3688,-2.2466,-2.1117,-2.2082,-2.1397,-2.0795,-2.1069,-2.0985,-2.0569,-2.0389,-2.0389,-2.0379,-2.0356,-2.0372,-2.0372,-2.0342,-2.0301,-2.0321,-2.0309,-2.0317,-2.0318,-2.0334,-2.0328,-2.0344,-2.0372,-2.0402,-2.0423,-2.0463,-2.0497,-2.0482,-2.0428,-2.0396,-2.0411,-2.0413,-2.0459,-2.0555,-2.0581,-2.0583,-2.0604,-2.0591,-2.0593,-2.0603,-2.0603,-2.0566,-2.0701,-2.1031,-2.1264,-2.0451,-2.0439,-2.0461,-2.0485,-2.046,-2.0199,-1.9424,-1.9258,-1.8955,-1.8359,-1.7998,-1.7929,-1.7987,-1.8007,-1.7597,-1.6961,-1.718,-1.7273,-1.7242,-1.8112,-1.8752,-1.898,-1.9511,-1.9353,-1.8774,-1.8345,-1.8098,-1.8091,-1.7845,-1.8081,-1.8274,-1.825,-1.8247,-1.8228,-1.8372,-1.8627,-1.8633,-1.8584,-1.8371,-1.8061,-1.7825,-1.7479,-1.706,-1.6686,-1.6394,-1.6088,-1.5833,-1.5639,-1.5617,-1.5455,-1.5169,-1.4847,-1.4488,-1.409,-1.3656,-1.3425,-1.3254,-1.2896,-1.2473,-1.1937,-2.5553,-2.553,-2.5646,-2.5695,-2.5579,-2.4953,-2.4426,-2.3888,-2.2739,-2.1948,-2.1464,-2.1089,-2.0866,-2.057,-2.052,-2.0521,-2.0415,-2.0386,-2.0386,-2.0379,-2.0376,-2.0383,-2.0383,-2.0386,-2.036,-2.0376,-2.0366,-2.0363,-2.037,-2.0379,-2.0389,-2.0389,-2.0395,-2.0427,-2.0475,-2.0508,-2.0503,-2.0508,-2.0464,-2.0429,-2.0471,-2.0459,-2.0482,-2.059,-2.0596,-2.0596,-2.0604,-2.0604,-2.0603,-2.0603,-2.0603,-2.0593,-2.0609,-2.0748,-2.0716,-2.0621,-2.0552,-2.0531,-2.0504,-2.0496,-2.0449,-2.0151,-1.9696,-1.9318,-1.892,-1.8521,-1.86,-1.871,-1.8404,-1.7841,-1.7633,-1.7341,-1.7128,-1.7454,-1.8111,-1.8726,-1.8674,-1.8577,-1.8485,-1.7745,-1.7252,-1.6937,-1.7013,-1.7151,-1.7352,-1.7642,-1.7872,-1.7885,-1.7876,-1.8226,-1.8663,-1.8584,-1.8437,-1.8146,-1.7844,-1.7629,-1.7354,-1.6876,-1.6493,-1.6196,-1.5932,-1.5653,-1.5514,-1.5299,-1.5181,-1.4977,-1.4647,-1.429,-1.4011,-1.3659,-1.347,-1.326,-1.2861,-1.2467,-1.2024,-2.5609,-2.5609,-2.5663,-2.5695,-2.5541,-2.478,-2.411,-2.3523,-2.2278,-2.1458,-2.107,-2.0687,-2.0507,-2.0502,-2.0483,-2.0446,-2.04,-2.0387,-2.0385,-2.0392,-2.0389,-2.0389,-2.0389,-2.0389,-2.0389,-2.0389,-2.0389,-2.0389,-2.0389,-2.0389,-2.0424,-2.0462,-2.0463,-2.0468,-2.0491,-2.0527,-2.0542,-2.0533,-2.0496,-2.0482,-2.0553,-2.0511,-2.0543,-2.0578,-2.0596,-2.0596,-2.0596,-2.0564,-2.0572,-2.0598,-2.0575,-2.0546,-2.0554,-2.055,-2.0539,-2.0553,-2.0555,-2.0547,-2.0506,-2.0505,-2.049,-2.0455,-2.0031,-1.9869,-1.9762,-1.9562,-1.9397,-1.9473,-1.8981,-1.8235,-1.7824,-1.7632,-1.7665,-1.7665,-1.8222,-1.854,-1.8319,-1.7634,-1.7109,-1.6804,-1.7153,-1.6904,-1.6097,-1.6291,-1.6568,-1.6938,-1.7368,-1.7503,-1.7513,-1.7936,-1.8416,-1.827,-1.8078,-1.7861,-1.7581,-1.7401,-1.7158,-1.6712,-1.6359,-1.6057,-1.579,-1.5536,-1.5134,-1.4814,-1.4706,-1.4809,-1.437,-1.4024,-1.3835,-1.3655,-1.342,-1.3157,-1.2826,-1.2455,-1.2079,-2.5654,-2.5694,-2.5699,-2.5701,-2.555,-2.4776,-2.403,-2.3235,-2.2212,-2.1401,-2.0807,-2.0588,-2.0505,-2.0505,-2.0501,-2.0463,-2.0389,-2.0389,-2.0392,-2.0386,-2.0389,-2.0389,-2.0389,-2.0389,-2.0389,-2.0399,-2.0418,-2.0418,-2.0411,-2.0412,-2.0464,-2.0487,-2.0506,-2.0515,-2.0542,-2.0566,-2.0604,-2.0584,-2.0529,-2.0536,-2.0568,-2.0591,-2.0604,-2.0598,-2.0597,-2.0597,-2.0574,-2.0537,-2.0537,-2.0547,-2.0535,-2.0509,-2.0507,-2.0487,-2.0478,-2.0486,-2.0501,-2.0505,-2.0488,-2.0484,-2.047,-2.0426,-2.0388,-2.0366,-2.0332,-2.0182,-2.0264,-2.0191,-1.9451,-1.8666,-1.8262,-1.8406,-1.8213,-1.7861,-1.8039,-1.8254,-1.7527,-1.6833,-1.6161,-1.6283,-1.7037,-1.6657,-1.559,-1.5605,-1.5923,-1.6088,-1.6496,-1.6993,-1.7086,-1.7507,-1.7838,-1.7764,-1.7643,-1.7497,-1.7321,-1.7199,-1.6908,-1.6528,-1.6196,-1.5924,-1.5675,-1.5396,-1.4982,-1.4634,-1.4728,-1.4765,-1.4237,-1.3755,-1.3589,-1.3414,-1.3286,-1.31,-1.2908,-1.2649,-1.2289,-2.5696,-2.5687,-2.5673,-2.5701,-2.5494,-2.4655,-2.4287,-2.3927,-2.2364,-2.1759,-2.1384,-2.084,-2.051,-2.051,-2.051,-2.0461,-2.041,-2.0404,-2.0398,-2.0392,-2.0386,-2.0389,-2.0389,-2.0389,-2.0389,-2.0408,-2.0457,-2.0457,-2.0433,-2.0458,-2.0496,-2.0511,-2.0506,-2.0526,-2.0583,-2.0596,-2.0596,-2.0596,-2.0546,-2.0511,-2.0517,-2.0565,-2.0599,-2.0595,-2.0595,-2.0576,-2.0524,-2.0492,-2.0493,-2.0516,-2.0498,-2.0494,-2.0503,-2.0449,-2.0423,-2.0442,-2.0461,-2.0476,-2.0408,-2.0402,-2.0376,-2.0332,-2.0296,-2.0315,-2.0279,-2.0297,-2.0272,-2.0109,-1.9359,-1.8841,-1.8536,-1.8571,-1.8221,-1.7878,-1.7756,-1.7323,-1.6587,-1.632,-1.5618,-1.5568,-1.6267,-1.5628,-1.4705,-1.4983,-1.526,-1.5418,-1.5673,-1.6247,-1.6732,-1.719,-1.7399,-1.7369,-1.7377,-1.7248,-1.71,-1.6959,-1.6712,-1.6359,-1.6065,-1.579,-1.5573,-1.5284,-1.4973,-1.4725,-1.4818,-1.4522,-1.3888,-1.3496,-1.3316,-1.3267,-1.3286,-1.321,-1.3066,-1.2795,-1.2489,-2.4938,-2.4911,-2.4449,-2.4228,-2.4118,-2.3309,-2.2927,-2.2657,-2.1629,-2.1062,-2.1013,-2.0718,-2.051,-2.051,-2.051,-2.048,-2.0453,-2.0459,-2.0433,-2.0449,-2.043,-2.0418,-2.0389,-2.0389,-2.0389,-2.054,-2.0457,-2.0482,-2.0466,-2.0495,-2.051,-2.0549,-2.0512,-2.0529,-2.0596,-2.0596,-2.0596,-2.0586,-2.0557,-2.0538,-2.0541,-2.0571,-2.0583,-2.0539,-2.0536,-2.0513,-2.0492,-2.0451,-2.047,-2.048,-2.0437,-2.0419,-2.042,-2.0358,-2.0279,-2.0231,-2.0243,-2.0243,-2.023,-2.0299,-2.025,-2.0183,-2.0138,-2.0095,-2.0067,-2.0074,-2.004,-1.9832,-1.9057,-1.863,-1.841,-1.7929,-1.758,-1.7331,-1.7267,-1.6971,-1.6292,-1.5719,-1.5363,-1.5413,-1.5447,-1.5137,-1.4967,-1.5363,-1.5529,-1.5297,-1.574,-1.6402,-1.6761,-1.7079,-1.7143,-1.7069,-1.7076,-1.7067,-1.6908,-1.6771,-1.6554,-1.6231,-1.5904,-1.566,-1.547,-1.5208,-1.4918,-1.4725,-1.4679,-1.4227,-1.356,-1.3463,-1.3529,-1.3448,-1.3367,-1.3223,-1.3043,-1.2937,-1.2602,-2.3717,-2.3692,-2.3276,-2.3107,-2.3016,-2.2176,-2.1826,-2.1718,-2.0919,-2.0528,-2.0509,-2.0513,-2.051,-2.051,-2.0507,-2.0497,-2.0508,-2.0511,-2.0629,-2.0665,-2.0758,-2.0933,-2.1185,-2.1175,-2.1172,-2.103,-2.104,-2.0982,-2.0837,-2.0648,-2.0527,-2.0596,-2.0554,-2.056,-2.0586,-2.0596,-2.0596,-2.0596,-2.0579,-2.0555,-2.0549,-2.0562,-2.0555,-2.0527,-2.0508,-2.0508,-2.0478,-2.0429,-2.0441,-2.0443,-2.0344,-2.0312,-2.0344,-2.0215,-2.0106,-2.003,-1.9992,-1.9867,-1.9905,-1.9974,-2.0058,-1.9955,-1.9816,-1.9675,-1.9653,-1.9693,-1.9697,-1.9477,-1.9058,-1.8607,-1.819,-1.7521,-1.7261,-1.692,-1.6527,-1.646,-1.6393,-1.5998,-1.5873,-1.6101,-1.6105,-1.5861,-1.5809,-1.6072,-1.5946,-1.5407,-1.5764,-1.6511,-1.6797,-1.6967,-1.6987,-1.6909,-1.6892,-1.6908,-1.6746,-1.6588,-1.6367,-1.6093,-1.5769,-1.5558,-1.5358,-1.5201,-1.4973,-1.4804,-1.4571,-1.4259,-1.3749,-1.376,-1.3757,-1.3427,-1.3141,-1.3097,-1.2986,-1.2879,-1.2638,-2.1974,-2.2039,-2.2779,-2.3015,-2.2948,-2.2156,-2.1767,-2.1631,-2.0861,-2.0519,-2.0504,-2.0509,-2.051,-2.051,-2.051,-2.051,-2.0508,-2.0504,-2.0837,-2.1263,-2.1642,-2.1843,-2.213,-2.2368,-2.2568,-2.2436,-2.1913,-2.1632,-2.1501,-2.0723,-2.0615,-2.0595,-2.0575,-2.0585,-2.0596,-2.0586,-2.0586,-2.0573,-2.0547,-2.0549,-2.0536,-2.0546,-2.0521,-2.0496,-2.0482,-2.0466,-2.0423,-2.0381,-2.0371,-2.0384,-2.0243,-2.019,-2.0196,-2.0002,-1.9866,-1.9798,-1.9615,-1.9481,-1.9443,-1.9601,-1.9668,-1.949,-1.9337,-1.9257,-1.9236,-1.9294,-1.9242,-1.9131,-1.8814,-1.8638,-1.8249,-1.7809,-1.7164,-1.7011,-1.6653,-1.654,-1.6565,-1.6509,-1.6472,-1.6808,-1.6779,-1.6523,-1.6369,-1.6562,-1.6351,-1.582,-1.5783,-1.6481,-1.6571,-1.6735,-1.683,-1.6833,-1.6789,-1.6746,-1.6588,-1.6367,-1.6072,-1.5847,-1.5602,-1.544,-1.5298,-1.514,-1.4949,-1.4672,-1.4438,-1.4188,-1.3921,-1.3689,-1.3427,-1.3116,-1.2926,-1.2928,-1.2692,-1.2431,-1.224,-2.2064,-2.254,-2.1878,-2.1559,-2.1551,-2.1194,-2.1061,-2.1015,-2.0703,-2.0533,-2.0508,-2.0507,-2.0506,-2.0514,-2.0503,-2.0507,-2.0506,-2.0511,-2.0763,-2.1056,-2.1461,-2.1874,-2.2303,-2.272,-2.2751,-2.243,-2.2004,-2.1513,-2.0986,-2.0694,-2.059,-2.0537,-2.0546,-2.0545,-2.0539,-2.0551,-2.0548,-2.0542,-2.0525,-2.0519,-2.052,-2.0504,-2.0481,-2.0439,-2.0437,-2.0434,-2.0401,-2.0315,-2.0295,-2.0238,-2.0069,-2.0031,-1.9973,-1.9708,-1.955,-1.9484,-1.9262,-1.9106,-1.9013,-1.92,-1.9285,-1.9213,-1.9089,-1.8981,-1.8856,-1.9019,-1.9007,-1.8837,-1.8513,-1.8244,-1.8512,-1.7566,-1.6745,-1.6949,-1.696,-1.676,-1.68,-1.6853,-1.6868,-1.711,-1.7222,-1.717,-1.7052,-1.6974,-1.6639,-1.6295,-1.6319,-1.6345,-1.6483,-1.6536,-1.6652,-1.6651,-1.6607,-1.6535,-1.6402,-1.6108,-1.5776,-1.5602,-1.5433,-1.5261,-1.5147,-1.4994,-1.4794,-1.4547,-1.4239,-1.3921,-1.365,-1.338,-1.3164,-1.2998,-1.2862,-1.2782,-1.2484,-1.2029,-1.1715,-2.1724,-2.2166,-2.1089,-2.0603,-2.0603,-2.0603,-2.0597,-2.0602,-2.0604,-2.0557,-2.0504,-2.0508,-2.0513,-2.0508,-2.0506,-2.0507,-2.0514,-2.0532,-2.0698,-2.118,-2.1775,-2.2187,-2.2629,-2.3007,-2.332,-2.2543,-2.1903,-2.1515,-2.1142,-2.0667,-2.0493,-2.0466,-2.0473,-2.0476,-2.0513,-2.0508,-2.0503,-2.0511,-2.0484,-2.0497,-2.0497,-2.0478,-2.0425,-2.0382,-2.0371,-2.0337,-2.0296,-2.0227,-2.0148,-2.0069,-1.9932,-1.9776,-1.9626,-1.9425,-1.921,-1.9052,-1.8911,-1.8798,-1.8744,-1.8708,-1.8778,-1.8681,-1.8489,-1.8422,-1.8438,-1.852,-1.8379,-1.8485,-1.8039,-1.7901,-1.8402,-1.7362,-1.6834,-1.7056,-1.7003,-1.6878,-1.7244,-1.7397,-1.7337,-1.7363,-1.7399,-1.7354,-1.7213,-1.7015,-1.6766,-1.6531,-1.6547,-1.6539,-1.6516,-1.6548,-1.6525,-1.6455,-1.6348,-1.6301,-1.6191,-1.5854,-1.5573,-1.5477,-1.5277,-1.5072,-1.4925,-1.477,-1.4606,-1.4324,-1.4012,-1.3649,-1.3308,-1.2979,-1.2936,-1.2963,-1.2739,-1.2502,-1.1912,-1.1457,-1.1068,-2.0627,-2.0552,-2.0625,-2.0603,-2.0603,-2.0603,-2.0604,-2.0597,-2.0603,-2.0566,-2.0526,-2.0552,-2.0552,-2.0522,-2.052,-2.0507,-2.0511,-2.0539,-2.0872,-2.164,-2.2407,-2.3347,-2.3886,-2.4125,-2.3874,-2.3828,-2.275,-2.1721,-2.152,-2.0768,-2.0463,-2.0408,-2.0419,-2.0445,-2.0504,-2.0508,-2.0508,-2.0495,-2.0423,-2.044,-2.0447,-2.0421,-2.0346,-2.03,-2.0288,-2.0243,-2.018,-2.0107,-2.0021,-1.9932,-1.9734,-1.9548,-1.9345,-1.9148,-1.892,-1.8726,-1.8586,-1.8467,-1.8408,-1.8223,-1.8156,-1.8118,-1.7941,-1.7718,-1.7579,-1.7593,-1.7802,-1.8023,-1.7921,-1.7711,-1.7556,-1.7314,-1.7192,-1.7129,-1.7077,-1.7133,-1.7488,-1.7594,-1.7456,-1.7356,-1.7301,-1.726,-1.7154,-1.7019,-1.6819,-1.6704,-1.6747,-1.6712,-1.6588,-1.6525,-1.6452,-1.63,-1.6162,-1.5988,-1.5854,-1.5595,-1.5366,-1.5269,-1.5118,-1.4873,-1.4631,-1.444,-1.4234,-1.4058,-1.3656,-1.3229,-1.29,-1.2596,-1.252,-1.2437,-1.2312,-1.2004,-1.1431,-1.0852,-1.0456,-2.1184,-2.2118,-2.105,-2.0603,-2.0603,-2.0603,-2.0603,-2.0596,-2.0602,-2.0594,-2.0575,-2.0595,-2.0594,-2.0566,-2.0526,-2.0513,-2.0508,-2.0525,-2.0968,-2.1815,-2.2647,-2.3557,-2.4112,-2.4161,-2.4044,-2.3398,-2.2329,-2.1375,-2.0862,-2.0618,-2.0466,-2.0389,-2.0437,-2.0408,-2.0434,-2.0437,-2.0444,-2.0434,-2.0408,-2.0389,-2.0361,-2.0296,-2.0235,-2.0163,-2.0173,-2.0145,-2.0069,-1.9969,-1.9873,-1.9743,-1.954,-1.9207,-1.9008,-1.8807,-1.852,-1.8404,-1.8316,-1.815,-1.7992,-1.7791,-1.7647,-1.7579,-1.7486,-1.7337,-1.7393,-1.7479,-1.7581,-1.7643,-1.7724,-1.7583,-1.7535,-1.7498,-1.7456,-1.7447,-1.7422,-1.7395,-1.7557,-1.7466,-1.7347,-1.7253,-1.7183,-1.6977,-1.6829,-1.6682,-1.6534,-1.6483,-1.649,-1.6498,-1.6398,-1.6386,-1.6347,-1.6146,-1.599,-1.5734,-1.5514,-1.5239,-1.5088,-1.4996,-1.4797,-1.4564,-1.4324,-1.4072,-1.3709,-1.3393,-1.3098,-1.2797,-1.2472,-1.2139,-1.1949,-1.1788,-1.176,-1.1516,-1.0948,-1.0321,-0.9688,-2.1422,-2.2076,-2.1061,-2.0581,-2.058,-2.0591,-2.0603,-2.0604,-2.0601,-2.0599,-2.0598,-2.0605,-2.0595,-2.0584,-2.0556,-2.0537,-2.0546,-2.0555,-2.065,-2.1509,-2.2281,-2.2867,-2.3299,-2.3574,-2.3085,-2.2553,-2.1842,-2.0992,-2.0608,-2.0776,-2.0879,-2.085,-2.054,-2.0418,-2.0399,-2.0399,-2.0399,-2.0399,-2.0383,-2.0366,-2.0298,-2.0211,-2.015,-2.0069,-2.003,-2.0,-1.9905,-1.9802,-1.9691,-1.9513,-1.9228,-1.8867,-1.8717,-1.8491,-1.8187,-1.8121,-1.7992,-1.7816,-1.761,-1.7376,-1.7224,-1.7109,-1.7117,-1.7117,-1.7117,-1.7109,-1.7182,-1.7264,-1.7395,-1.7468,-1.7477,-1.7506,-1.7519,-1.7509,-1.7439,-1.7447,-1.7272,-1.7167,-1.7175,-1.7068,-1.6918,-1.6696,-1.6498,-1.6314,-1.6159,-1.6167,-1.6171,-1.6179,-1.6166,-1.6111,-1.6049,-1.5867,-1.5647,-1.535,-1.5118,-1.4928,-1.478,-1.4686,-1.4458,-1.4169,-1.3881,-1.3568,-1.3167,-1.2791,-1.2573,-1.2312,-1.1989,-1.1704,-1.1543,-1.1416,-1.1325,-1.0964,-1.0467,-0.9986,-0.9425,-2.1282,-2.0689,-2.0603,-2.0558,-2.0521,-2.0568,-2.0593,-2.0603,-2.0603,-2.0604,-2.0604,-2.0596,-2.0597,-2.0604,-2.0596,-2.0597,-2.0598,-2.0598,-2.0779,-2.1103,-2.2002,-2.2225,-2.2334,-2.2373,-2.2383,-2.1797,-2.1127,-2.0724,-2.0505,-2.0853,-2.1246,-2.1249,-2.0627,-2.0424,-2.0339,-2.0487,-2.0462,-2.0444,-2.0389,-2.0325,-2.0219,-2.0184,-2.0078,-1.9971,-1.9894,-1.9804,-1.9685,-1.9564,-1.9456,-1.9283,-1.9014,-1.8744,-1.8519,-1.8299,-1.8048,-1.7852,-1.7681,-1.7517,-1.736,-1.7126,-1.685,-1.6738,-1.6633,-1.6581,-1.6633,-1.6693,-1.6755,-1.6855,-1.698,-1.7147,-1.7272,-1.7338,-1.7376,-1.732,-1.7232,-1.7109,-1.6934,-1.6858,-1.6892,-1.6799,-1.663,-1.6462,-1.6297,-1.6112,-1.5847,-1.5713,-1.5696,-1.5731,-1.5717,-1.5682,-1.5603,-1.5468,-1.5226,-1.4909,-1.4725,-1.4624,-1.442,-1.4324,-1.4007,-1.3721,-1.3397,-1.3085,-1.2702,-1.2383,-1.2132,-1.1861,-1.154,-1.1345,-1.1212,-1.1104,-1.098,-1.0713,-1.0283,-1.0074,-0.9632,-2.1713,-2.147,-2.0856,-2.0549,-2.0509,-2.0531,-2.0549,-2.0603,-2.0603,-2.0603,-2.0603,-2.0603,-2.0632,-2.0603,-2.0603,-2.0603,-2.0642,-2.0692,-2.1095,-2.1548,-2.2097,-2.2548,-2.2666,-2.251,-2.2314,-2.1658,-2.0992,-2.0505,-2.0486,-2.0853,-2.0822,-2.0498,-2.0561,-2.0361,-2.0485,-2.0764,-2.0666,-2.0561,-2.0485,-2.0317,-2.0179,-2.0115,-1.9991,-1.9891,-1.9741,-1.9653,-1.9573,-1.9274,-1.9187,-1.9216,-1.8653,-1.8316,-1.8515,-1.8142,-1.7847,-1.7869,-1.7664,-1.7431,-1.7288,-1.7043,-1.6722,-1.6394,-1.6293,-1.632,-1.6348,-1.6371,-1.6355,-1.6429,-1.6572,-1.6739,-1.6791,-1.6831,-1.6918,-1.6934,-1.6892,-1.6815,-1.6659,-1.6667,-1.6659,-1.6549,-1.6385,-1.6223,-1.607,-1.583,-1.5587,-1.535,-1.5247,-1.5278,-1.5271,-1.527,-1.5229,-1.5125,-1.492,-1.4637,-1.4529,-1.4452,-1.4156,-1.3901,-1.3584,-1.3261,-1.2867,-1.2561,-1.2234,-1.2018,-1.1872,-1.1525,-1.1169,-1.1094,-1.125,-1.0833,-1.0669,-1.0404,-1.0171,-1.004,-0.979,-2.1667,-2.1323,-2.0827,-2.058,-2.0545,-2.0511,-2.0535,-2.0593,-2.0603,-2.0603,-2.0603,-2.0603,-2.0778,-2.105,-2.082,-2.0908,-2.1619,-2.0918,-2.1132,-2.2254,-2.2305,-2.2241,-2.2389,-2.2276,-2.1656,-2.1157,-2.0901,-2.0624,-2.0705,-2.0852,-2.0875,-2.0824,-2.0691,-2.0641,-2.0766,-2.1015,-2.1062,-2.0913,-2.0728,-2.0448,-2.0203,-2.0011,-1.9924,-1.9822,-1.9655,-1.9582,-1.9467,-1.9093,-1.9005,-1.9026,-1.8384,-1.8182,-1.8249,-1.791,-1.7557,-1.7502,-1.7256,-1.701,-1.6801,-1.6567,-1.6282,-1.6077,-1.596,-1.5924,-1.5953,-1.596,-1.596,-1.5981,-1.6156,-1.6266,-1.6258,-1.6278,-1.6394,-1.6517,-1.6517,-1.6517,-1.649,-1.649,-1.6413,-1.6301,-1.6123,-1.5964,-1.5755,-1.5536,-1.5323,-1.5108,-1.4966,-1.4921,-1.4899,-1.4869,-1.4906,-1.4854,-1.4644,-1.4433,-1.4324,-1.4214,-1.3947,-1.3613,-1.3223,-1.286,-1.2436,-1.2066,-1.1737,-1.1658,-1.1647,-1.1398,-1.118,-1.1303,-1.1341,-1.0926,-1.0669,-1.0597,-1.0477,-1.0269,-0.9947,-2.134,-2.0632,-2.0603,-2.0603,-2.0603,-2.0523,-2.0535,-2.0603,-2.0603,-2.0603,-2.0603,-2.0603,-2.0972,-2.1179,-2.0826,-2.1235,-2.155,-2.1178,-2.1245,-2.289,-2.2061,-2.1731,-2.1477,-2.1101,-2.1102,-2.0662,-2.045,-2.061,-2.1232,-2.1332,-2.1272,-2.1422,-2.1464,-2.1214,-2.0798,-2.1301,-2.1255,-2.078,-2.0954,-2.0949,-2.0157,-1.9896,-1.9849,-1.9763,-1.9651,-1.9513,-1.9341,-1.9095,-1.8815,-1.8652,-1.8371,-1.8086,-1.7854,-1.7684,-1.7352,-1.7027,-1.6825,-1.6609,-1.6355,-1.609,-1.5781,-1.5616,-1.5558,-1.5507,-1.5485,-1.5696,-1.5725,-1.5696,-1.5847,-1.5932,-1.5953,-1.6093,-1.6238,-1.6285,-1.6278,-1.6285,-1.6266,-1.6266,-1.6176,-1.6051,-1.5836,-1.5659,-1.5506,-1.5303,-1.5039,-1.4868,-1.4756,-1.4679,-1.4479,-1.4427,-1.4518,-1.4562,-1.4426,-1.4273,-1.4136,-1.3992,-1.3756,-1.3401,-1.2908,-1.2466,-1.1988,-1.1617,-1.1282,-1.1303,-1.1356,-1.1476,-1.1412,-1.1461,-1.1388,-1.111,-1.0926,-1.0942,-1.0779,-1.0495,-1.0259,-2.1368,-2.0593,-2.0545,-2.0557,-2.0593,-2.0533,-2.0535,-2.0593,-2.0603,-2.0603,-2.0603,-2.0612,-2.0713,-2.0921,-2.0701,-2.0971,-2.108,-2.1334,-2.1283,-2.1844,-2.1701,-2.1393,-2.1169,-2.1167,-2.0915,-2.0569,-2.0434,-2.0577,-2.0894,-2.1146,-2.1158,-2.0689,-2.1236,-2.158,-2.0624,-2.1224,-2.1437,-2.0719,-2.1101,-2.1023,-2.0185,-1.9901,-1.9823,-1.9705,-1.9573,-1.9453,-1.9216,-1.8798,-1.8698,-1.8603,-1.8023,-1.7684,-1.7461,-1.7424,-1.7264,-1.6993,-1.6496,-1.6247,-1.5999,-1.5702,-1.5396,-1.5218,-1.5157,-1.5043,-1.5104,-1.5411,-1.5566,-1.5536,-1.5544,-1.5631,-1.5711,-1.5883,-1.6045,-1.6029,-1.607,-1.605,-1.6037,-1.5988,-1.5911,-1.5739,-1.553,-1.5394,-1.5233,-1.5046,-1.4809,-1.4654,-1.4592,-1.4458,-1.4073,-1.394,-1.4152,-1.4212,-1.4251,-1.4118,-1.3894,-1.3644,-1.334,-1.2894,-1.239,-1.1951,-1.1533,-1.125,-1.1012,-1.1002,-1.1051,-1.1254,-1.1406,-1.1428,-1.1313,-1.118,-1.0954,-1.085,-1.0741,-1.0495,-1.0418,-2.1052,-2.0622,-2.0549,-2.0543,-2.0562,-2.0535,-2.0545,-2.0562,-2.059,-2.058,-2.0562,-2.0589,-2.0738,-2.0837,-2.0649,-2.1079,-2.1216,-2.1103,-2.1563,-2.1876,-2.1615,-2.1407,-2.1287,-2.1114,-2.0738,-2.0424,-2.077,-2.0933,-2.0833,-2.1474,-2.1662,-2.114,-2.1877,-2.1872,-2.0896,-2.1596,-2.1617,-2.0738,-2.1328,-2.1031,-2.0424,-2.0532,-2.0433,-2.025,-1.9844,-1.9614,-1.9044,-1.8632,-1.8467,-1.8281,-1.7796,-1.732,-1.7101,-1.6985,-1.6858,-1.6573,-1.6188,-1.5858,-1.5659,-1.5382,-1.5027,-1.4873,-1.4904,-1.4842,-1.4911,-1.5179,-1.5247,-1.5225,-1.5388,-1.5477,-1.5403,-1.5507,-1.5617,-1.566,-1.5754,-1.579,-1.5646,-1.547,-1.5441,-1.5411,-1.5228,-1.5102,-1.4956,-1.4819,-1.4594,-1.436,-1.4298,-1.4266,-1.3908,-1.3581,-1.3759,-1.3801,-1.38,-1.3465,-1.2982,-1.2861,-1.278,-1.2336,-1.1925,-1.1497,-1.112,-1.0942,-1.0774,-1.0807,-1.0895,-1.1148,-1.1275,-1.12,-1.1377,-1.1319,-1.1023,-1.072,-1.0567,-1.0413,-1.022,-2.0622,-2.0603,-2.0603,-2.0555,-2.0506,-2.0572,-2.0538,-2.051,-2.0548,-2.0526,-2.0529,-2.062,-2.1116,-2.1205,-2.1186,-2.1958,-2.2305,-2.1998,-2.2228,-2.1934,-2.1483,-2.1283,-2.103,-2.0741,-2.0476,-2.0612,-2.0977,-2.1149,-2.1211,-2.2025,-2.2502,-2.2327,-2.2365,-2.2421,-2.2199,-2.2045,-2.1752,-2.1387,-2.1415,-2.1249,-2.1332,-2.1506,-2.0993,-2.0585,-2.0307,-1.9768,-1.9083,-1.8614,-1.8329,-1.7936,-1.7608,-1.7118,-1.6789,-1.6633,-1.6367,-1.6128,-1.5796,-1.5433,-1.5143,-1.489,-1.4637,-1.4486,-1.4637,-1.4732,-1.4787,-1.4873,-1.4944,-1.505,-1.5178,-1.5245,-1.5163,-1.5156,-1.5262,-1.5322,-1.5418,-1.5455,-1.5246,-1.5065,-1.5081,-1.5066,-1.4961,-1.4838,-1.4676,-1.4548,-1.4387,-1.4151,-1.4046,-1.3985,-1.3841,-1.3538,-1.3472,-1.3311,-1.316,-1.273,-1.2407,-1.2195,-1.2256,-1.2071,-1.1687,-1.1166,-1.0748,-1.0603,-1.0544,-1.0616,-1.0776,-1.0773,-1.0792,-1.073,-1.0972,-1.108,-1.07,-1.0191,-1.005,-0.9894,-0.9785,-2.0603,-2.0603,-2.0603,-2.0552,-2.0503,-2.0506,-2.0481,-2.0427,-2.0431,-2.0437,-2.0599,-2.1126,-2.1539,-2.1684,-2.2304,-2.2742,-2.2673,-2.2582,-2.2188,-2.1781,-2.1883,-2.1436,-2.0875,-2.0476,-2.0339,-2.0608,-2.1004,-2.1271,-2.1768,-2.2658,-2.2915,-2.2379,-2.3598,-2.3287,-2.2111,-2.202,-2.1976,-2.1722,-2.1725,-2.168,-2.1714,-2.1488,-2.0508,-2.0372,-2.0553,-1.9729,-1.9056,-1.8767,-1.8411,-1.7972,-1.7424,-1.6924,-1.6493,-1.6285,-1.6072,-1.5696,-1.5367,-1.509,-1.4797,-1.456,-1.4319,-1.4319,-1.4433,-1.4452,-1.4547,-1.4711,-1.4797,-1.4835,-1.498,-1.5034,-1.502,-1.5043,-1.5097,-1.505,-1.5088,-1.5034,-1.4887,-1.4866,-1.4883,-1.484,-1.4736,-1.4561,-1.4383,-1.4302,-1.4238,-1.4046,-1.3998,-1.394,-1.3712,-1.3449,-1.3225,-1.2996,-1.2757,-1.2777,-1.2785,-1.1934,-1.1797,-1.1632,-1.1416,-1.0914,-1.0518,-1.0298,-1.0278,-1.023,-1.0103,-1.004,-1.0094,-1.013,-1.0084,-1.0117,-0.9916,-0.962,-0.9474,-0.9293,-0.9097]}]]